[[{"header":{"parameterUnit":"m.s-1","parameterCategory":1,"la1":30.6,"la2":29.2853,"lo1":-89.7004,"lo2":-87.6739,"dy":0.0162,"dx":0.0183,"nx":112,"ny":82,"refTime":"2026-02-25T00:00:00:Z","depth":0,"parameterNumber":2,"parameterNumberName":"U-component_of_WINDS"},"data":[0.0,0.0,0.0,0.0,0.0,0.0,0.0,0.0,0.0,0.0,0.0,0.0,0.0,0.0,0.0,0.0,0.0,0.0,0.0,0.0,0.0,0.0,0.0,0.0,0.0,0.0,0.0,0.0,0.0,0.0,0.0,0.0,0.0,0.0,0.0,0.0,0.0,0.0,0.0,0.0,0.0,0.0,0.0,0.0,0.0,0.0,0.0,0.0,0.0,0.0,0.0,0.0,0.0,0.0,0.0,0.0,0.0,0.0,0.0,0.0,0.0,0.0,0.0,0.0,0.0,0.0,0.0,0.0,0.0,0.0,0.0,0.0,0.0,0.0,0.0,0.0,0.0,0.0,0.0,0.0,0.0,0.0,0.0,0.0,0.0,0.0,0.0,0.0,0.0,0.0,0.0,2.2941,2.5019,2.5946,2.5317,2.5009,2.3968,2.1899,0.0,0.0,0.0,0.0,0.0,0.0,0.0,0.0,0.0,0.0,0.0,0.0,0.0,0.0,0.0,0.0,0.0,0.0,0.0,0.0,0.0,0.0,0.0,0.0,0.0,0.0,0.0,0.0,0.0,0.0,0.0,0.0,0.0,0.0,0.0,0.0,0.0,0.0,0.0,0.0,0.0,0.0,0.0,0.0,0.0,0.0,0.0,0.0,0.0,0.0,0.0,0.0,0.0,0.0,0.0,0.0,0.0,0.0,0.0,0.0,0.0,0.0,0.0,0.0,0.0,0.0,0.0,0.0,0.0,0.0,0.0,0.0,0.0,0.0,0.0,0.0,0.0,0.0,0.0,0.0,0.0,0.0,0.0,0.0,0.0,0.0,0.0,0.0,0.0,0.0,0.0,0.0,0.0,0.0,0.0,0.0,0.0,0.0,0.0,0.0,0.0,0.0,0.0,0.0,2.0206,2.4323,2.5631,2.6161,2.6045,2.4629,2.3398,2.2587,0.0,0.0,0.0,0.0,0.0,0.0,0.0,0.0,0.0,0.0,0.0,0.0,0.0,0.0,0.0,0.0,0.0,0.0,0.0,0.0,0.0,0.0,0.0,0.0,0.0,0.0,0.0,0.0,0.0,0.0,0.0,0.0,0.0,0.0,0.0,0.0,0.0,0.0,0.0,0.0,0.0,0.0,0.0,0.0,0.0,0.0,0.0,0.0,0.0,0.0,0.0,0.0,0.0,0.0,0.0,0.0,0.0,0.0,0.0,0.0,0.0,0.0,0.0,0.0,0.0,0.0,0.0,0.0,0.0,0.0,0.0,0.0,0.0,0.0,0.0,0.0,0.0,0.0,0.0,0.0,0.0,0.0,0.0,0.0,0.0,0.0,0.0,0.0,0.0,0.0,0.0,0.0,0.0,0.0,0.0,0.0,0.0,0.0,0.0,0.0,0.0,0.0,0.0,2.0192,2.1972,2.4804,2.5764,2.615,2.6059,2.4906,2.3844,2.3026,2.0187,0.0,0.0,0.0,0.0,0.0,0.0,0.0,0.0,0.0,0.0,0.0,0.0,0.0,0.0,0.0,0.0,0.0,0.0,0.0,0.0,0.0,0.0,0.0,0.0,0.0,0.0,0.0,0.0,0.0,0.0,0.0,0.0,0.0,0.0,0.0,0.0,0.0,0.0,0.0,0.0,0.0,0.0,0.0,0.0,0.0,0.0,0.0,0.0,0.0,0.0,0.0,0.0,0.0,0.0,0.0,0.0,0.0,0.0,0.0,0.0,0.0,0.0,0.0,0.0,0.0,0.0,0.0,0.0,0.0,0.0,0.0,0.0,0.0,0.0,0.0,0.0,0.0,0.0,0.0,0.0,0.0,0.0,0.0,0.0,0.0,0.0,0.0,0.0,0.0,0.0,0.0,0.0,0.0,0.0,0.0,0.0,0.0,0.0,0.0,0.0,0.0,0.0,2.2424,2.3719,2.5201,2.5854,2.6141,2.5979,2.4923,2.3827,2.2839,1.9365,0.0,0.0,0.0,0.0,0.0,0.0,0.0,0.0,0.0,0.0,0.0,0.0,0.0,0.0,0.0,0.0,0.0,0.0,0.0,0.0,0.0,0.0,0.0,0.0,0.0,0.0,0.0,0.0,0.0,0.0,0.0,0.0,0.0,0.0,0.0,0.0,0.0,0.0,0.0,0.0,0.0,0.0,0.0,0.0,0.0,0.0,0.0,0.0,0.0,0.0,0.0,0.0,0.0,0.0,0.0,0.0,0.0,0.0,0.0,0.0,0.0,0.0,0.0,0.0,0.0,0.0,0.0,0.0,0.0,0.0,0.0,0.0,0.0,0.0,0.0,0.0,0.0,0.0,0.0,0.0,0.0,0.0,0.0,0.0,0.0,0.0,0.0,0.0,0.0,0.0,0.0,0.0,0.0,0.0,0.0,0.0,0.0,0.0,0.0,0.0,0.0,0.0,2.2609,2.4497,2.5979,2.6178,2.6185,2.6184,2.4013,2.2338,2.1573,1.7898,0.0,0.0,0.0,0.0,0.0,0.0,0.0,0.0,0.0,0.0,0.0,0.0,0.0,0.0,0.0,0.0,0.0,0.0,0.0,0.0,0.0,0.0,0.0,0.0,0.0,0.0,0.0,0.0,0.0,0.0,0.0,0.0,0.0,0.0,0.0,0.0,0.0,0.0,0.0,0.0,0.0,0.0,0.0,0.0,0.0,0.0,0.0,0.0,0.0,0.0,0.0,0.0,0.0,0.0,0.0,0.0,0.0,0.0,0.0,0.0,0.0,0.0,0.0,0.0,0.0,0.0,0.0,0.0,0.0,0.0,0.0,0.0,0.0,0.0,0.0,0.0,0.0,0.0,0.0,0.0,0.0,0.0,0.0,0.0,0.0,0.0,0.0,0.0,0.0,0.0,0.0,0.0,0.0,0.0,0.0,0.0,0.0,0.0,0.0,0.0,0.0,0.0,2.2449,2.3951,0.0,2.6096,2.5961,2.5835,2.4427,2.3014,2.1733,0.0,0.0,0.0,0.0,0.0,0.0,0.0,0.0,0.0,0.0,0.0,0.0,0.0,0.0,0.0,0.0,0.0,0.0,0.0,0.0,0.0,0.0,0.0,0.0,0.0,0.0,0.0,0.0,0.0,0.0,0.0,0.0,0.0,0.0,0.0,0.0,0.0,0.0,0.0,0.0,0.0,0.0,0.0,0.0,0.0,0.0,0.0,0.0,0.0,0.0,0.0,0.0,0.0,0.0,0.0,0.0,0.0,0.0,0.0,0.0,0.0,0.0,0.0,0.0,0.0,0.0,0.0,0.0,0.0,0.0,0.0,0.0,0.0,0.0,0.0,0.0,0.0,0.0,0.0,0.0,0.0,0.0,0.0,0.0,0.0,0.0,0.0,0.0,0.0,0.0,0.0,0.0,0.0,0.0,0.0,0.0,0.0,0.0,0.0,0.0,0.0,0.0,2.1248,2.2416,2.3726,0.0,2.5897,2.5752,2.5614,2.4255,2.2874,2.1661,0.0,0.0,0.0,0.0,0.0,0.0,0.0,0.0,0.0,0.0,0.0,0.0,0.0,0.0,0.0,0.0,0.0,0.0,0.0,0.0,0.0,0.0,0.0,0.0,0.0,0.0,0.0,0.0,0.0,0.0,0.0,0.0,0.0,0.0,0.0,0.0,0.0,0.0,0.0,0.0,0.0,0.0,0.0,0.0,0.0,0.0,0.0,0.0,0.0,0.0,0.0,0.0,0.0,0.0,0.0,0.0,0.0,0.0,0.0,0.0,0.0,0.0,0.0,0.0,0.0,0.0,0.0,0.0,0.0,0.0,0.0,0.0,0.0,0.0,0.0,0.0,0.0,0.0,0.0,0.0,0.0,0.0,0.0,0.0,0.0,0.0,0.0,0.0,0.0,0.0,0.0,0.0,0.0,0.0,0.0,0.0,0.0,0.0,0.0,0.0,0.0,0.0,2.1136,2.2606,2.3964,2.5433,2.5596,2.5596,2.5586,2.3203,2.1521,0.0,0.0,0.0,0.0,0.0,0.0,0.0,0.0,0.0,0.0,0.0,0.0,0.0,0.0,0.0,0.0,0.0,0.0,0.0,0.0,0.0,0.0,0.0,0.0,0.0,0.0,0.0,0.0,0.0,0.0,0.0,0.0,0.0,0.0,0.0,0.0,0.0,0.0,0.0,0.0,0.0,0.0,0.0,0.0,0.0,0.0,0.0,0.0,0.0,0.0,0.0,0.0,0.0,0.0,0.0,0.0,0.0,0.0,0.0,0.0,0.0,0.0,0.0,0.0,0.0,0.0,0.0,0.0,0.0,0.0,0.0,0.0,0.0,0.0,0.0,0.0,0.0,0.0,0.0,0.0,0.0,0.0,0.0,0.0,0.0,0.0,0.0,0.0,0.0,0.0,0.0,0.0,0.0,0.0,0.0,0.0,0.0,0.0,0.0,0.0,0.0,0.0,0.0,2.0991,2.2464,2.3863,2.544,2.548,2.5298,2.5052,2.3321,2.1766,2.06,0.0,0.0,0.0,0.0,0.0,0.0,0.0,0.0,0.0,0.0,0.0,0.0,0.0,0.0,0.0,0.0,0.0,0.0,0.0,0.0,0.0,0.0,0.0,0.0,0.0,0.0,0.0,0.0,0.0,0.0,0.0,0.0,0.0,0.0,0.0,0.0,0.0,0.0,0.0,0.0,0.0,0.0,0.0,0.0,0.0,0.0,0.0,0.0,0.0,0.0,0.0,0.0,0.0,0.0,0.0,0.0,0.0,0.0,0.0,0.0,0.0,0.0,0.0,0.0,0.0,0.0,0.0,0.0,0.0,0.0,0.0,0.0,0.0,0.0,0.0,0.0,0.0,0.0,0.0,0.0,0.0,0.0,0.0,0.0,0.0,0.0,0.0,0.0,0.0,0.0,0.0,0.0,0.0,0.0,0.0,0.0,0.0,0.0,0.0,0.0,0.0,0.0,2.0898,2.2201,2.3464,2.5003,2.493,2.469,2.4508,2.3016,2.1659,2.0612,0.0,0.0,0.0,0.0,0.0,0.0,0.0,0.0,0.0,0.0,0.0,0.0,0.0,0.0,0.0,0.0,0.0,0.0,0.0,0.0,0.0,0.0,0.0,0.0,0.0,0.0,0.0,0.0,0.0,0.0,0.0,0.0,0.0,0.0,0.0,0.0,0.0,0.0,0.0,0.0,0.0,0.0,0.0,0.0,0.0,0.0,0.0,0.0,0.0,0.0,0.0,0.0,0.0,0.0,0.0,0.0,0.0,0.0,0.0,0.0,0.0,0.0,0.0,0.0,0.0,0.0,0.0,0.0,0.0,0.0,0.0,0.0,0.0,0.0,0.0,0.0,0.0,0.0,0.0,0.0,0.0,0.0,0.0,0.0,0.0,0.0,0.0,0.0,0.0,0.0,0.0,0.0,0.0,0.0,0.0,0.0,0.0,0.0,0.0,0.0,0.0,0.0,2.0749,2.1853,2.2902,2.4292,2.4172,2.3982,2.395,2.2499,2.1371,2.0875,0.0,0.0,0.0,0.0,0.0,0.0,0.0,0.0,0.0,0.0,0.0,0.0,0.0,0.0,0.0,0.0,0.0,0.0,0.0,0.0,0.0,0.0,0.0,0.0,0.0,0.0,0.0,0.0,0.0,0.0,0.0,0.0,0.0,0.0,0.0,0.0,0.0,0.0,0.0,0.0,0.0,0.0,0.0,0.0,0.0,0.0,0.0,0.0,0.0,0.0,0.0,0.0,0.0,0.0,0.0,0.0,0.0,0.0,0.0,0.0,1.8192,0.0,0.0,0.0,0.0,0.0,0.0,0.0,0.0,0.0,0.0,0.0,0.0,0.0,0.0,0.0,0.0,0.0,0.0,0.0,0.0,0.0,0.0,0.0,0.0,0.0,0.0,0.0,0.0,0.0,0.0,0.0,0.0,0.0,0.0,0.0,0.0,0.0,0.0,0.0,0.0,0.0,2.0294,2.1488,2.2594,2.3961,2.4035,2.3871,2.3551,2.2776,2.1783,2.058,0.0,0.0,0.0,0.0,0.0,0.0,0.0,0.0,0.0,0.0,0.0,0.0,0.0,0.0,0.0,0.0,0.0,0.0,0.0,0.0,0.0,0.0,0.0,0.0,0.0,0.0,0.0,0.0,0.0,0.0,0.0,0.0,0.0,0.0,0.0,0.0,0.0,0.0,0.0,0.0,0.0,0.0,0.0,0.0,0.0,0.0,0.0,0.0,0.0,0.0,0.0,0.0,0.0,0.0,0.0,0.0,0.0,0.0,0.0,0.0,0.0,1.9389,0.0,0.0,0.0,0.0,0.0,0.0,0.0,0.0,0.0,0.0,0.0,0.0,0.0,0.0,0.0,0.0,0.0,0.0,0.0,0.0,0.0,0.0,0.0,0.0,0.0,0.0,0.0,0.0,0.0,0.0,0.0,0.0,0.0,0.0,0.0,0.0,0.0,0.0,0.0,0.0,2.0668,2.1685,2.2579,2.3601,2.357,2.3385,2.3172,2.2599,2.181,2.0753,1.8894,0.0,0.0,0.0,0.0,0.0,0.0,0.0,0.0,0.0,0.0,0.0,0.0,0.0,0.0,0.0,0.0,0.0,0.0,0.0,0.0,0.0,0.0,0.0,0.0,0.0,0.0,0.0,0.0,0.0,0.0,0.0,0.0,0.0,0.0,0.0,0.0,0.0,0.0,0.0,0.0,0.0,0.0,0.0,0.0,0.0,0.0,0.0,0.0,0.0,0.0,0.0,0.0,0.0,0.0,2.3806,2.4425,2.4977,2.5212,2.5042,2.3038,2.1917,2.1463,0.0,0.0,0.0,0.0,0.0,0.0,0.0,0.0,0.0,0.0,0.0,0.0,0.0,0.0,0.0,0.0,0.0,0.0,0.0,0.0,0.0,0.0,0.0,0.0,0.0,2.0586,2.0455,0.0,0.0,0.0,0.0,0.0,0.0,0.0,0.0,0.0,0.0,0.0,0.0,2.1239,2.2099,2.277,2.3552,2.34,2.3189,2.3073,2.2617,2.1989,2.122,1.9508,1.7975,0.0,0.0,0.0,0.0,0.0,0.0,0.0,0.0,0.0,0.0,0.0,0.0,0.0,0.0,0.0,0.0,0.0,0.0,0.0,0.0,0.0,0.0,0.0,0.0,0.0,0.0,0.0,0.0,0.0,0.0,0.0,0.0,1.4227,1.4995,0.0,0.0,0.0,0.0,0.0,0.0,0.0,0.0,0.0,0.0,0.0,0.0,0.0,0.0,2.1889,2.3367,2.4305,2.4722,2.5471,2.604,2.6415,2.6502,2.6546,2.656,2.6737,0.0,2.3481,2.2809,0.0,0.0,0.0,0.0,0.0,0.0,0.0,0.0,0.0,0.0,0.0,0.0,0.0,0.0,0.0,0.0,0.0,0.0,0.0,0.0,0.0,0.0,2.2334,2.2465,2.2531,2.252,0.0,1.9893,1.7765,1.7617,0.0,0.0,0.0,0.0,0.0,0.0,0.0,0.0,2.1314,2.2325,2.329,2.4493,2.4641,2.4399,2.3818,2.3699,2.3147,2.1931,2.0596,1.9508,1.8753,1.7135,0.0,0.0,0.0,0.0,0.0,0.0,0.0,0.0,0.0,0.0,0.0,0.0,0.0,0.0,0.0,0.0,0.0,0.0,0.0,0.0,0.0,0.0,0.0,0.0,0.0,0.0,0.0,0.0,0.0,1.4137,1.5924,1.6182,1.6507,1.6585,0.0,0.0,0.0,0.0,0.0,0.0,0.0,0.0,0.0,2.1384,2.2493,2.3441,2.4215,2.5684,2.6693,2.7216,2.8383,2.9115,2.945,2.9842,3.0001,3.0031,3.0277,2.9363,2.7504,2.54,2.3906,2.2816,0.0,0.0,0.0,0.0,0.0,2.1517,2.2228,0.0,0.0,0.0,0.0,0.0,0.0,0.0,0.0,0.0,0.0,0.0,0.0,0.0,0.0,2.3923,2.3998,2.3972,2.3972,2.2516,2.0951,0.0,1.9349,1.8514,1.7157,0.0,0.0,0.0,0.0,0.0,2.2392,2.3439,2.4215,2.474,2.4824,2.4735,2.4471,2.412,2.3499,2.2562,2.166,2.0868,2.019,1.889,1.7653,0.0,0.0,0.0,0.0,0.0,0.0,0.0,0.0,0.0,0.0,0.0,0.0,0.0,0.0,0.0,0.0,0.0,0.0,0.0,0.0,0.0,0.0,0.0,0.0,0.0,0.0,0.0,0.0,1.5942,1.7403,1.7254,1.7892,1.8055,0.0,0.0,0.0,0.0,0.0,0.0,2.0367,2.1344,2.2458,2.3706,2.4669,2.5661,2.6634,2.7637,2.857,2.9404,3.0409,3.1189,3.1771,3.2279,3.2497,3.2497,3.2497,3.1961,3.0858,2.7969,2.6213,2.5282,2.4097,2.3548,2.3432,2.3592,2.3952,2.4469,2.5098,2.533,2.534,2.4979,0.0,2.2759,2.1631,0.0,0.0,0.0,0.0,2.3453,2.4578,0.0,2.5038,2.5718,2.5836,2.5752,2.5578,2.5069,2.4136,0.0,2.1901,2.1142,1.9104,0.0,0.0,0.0,0.0,2.2264,2.3592,2.4569,2.5168,2.5288,2.5303,2.5257,2.5151,2.4672,2.4036,2.3215,2.2573,2.1946,2.1278,2.0367,1.9434,1.8448,0.0,0.0,0.0,0.0,0.0,0.0,0.0,0.0,0.0,0.0,0.0,0.0,0.0,0.0,0.0,0.0,0.0,0.0,0.0,0.0,0.0,0.0,0.0,0.0,0.0,0.0,0.0,0.0,0.0,1.7916,1.8897,0.0,0.0,0.0,0.0,1.9563,2.1131,2.2152,2.2361,2.29,2.4168,2.6247,2.6623,2.776,2.9746,2.952,3.0028,3.126,3.0753,3.1193,3.2453,3.2482,3.2497,3.2497,3.2497,3.2468,3.225,3.0248,2.8347,2.6633,2.5936,2.5297,2.4876,2.5442,2.5674,2.579,2.6473,2.6691,2.6792,2.7318,2.665,2.5485,2.4781,2.4167,0.0,0.0,2.5096,2.5919,2.7187,2.7507,2.768,2.8346,2.8506,2.8332,2.7681,2.7071,2.6081,0.0,2.3252,2.2677,2.2231,0.0,2.1914,2.2178,2.2556,2.3299,2.4561,2.5328,2.5994,2.6633,2.6691,2.6444,2.5805,2.5718,2.5166,2.3932,2.3215,2.2577,2.1975,2.1289,2.033,1.9087,1.8384,0.0,0.0,0.0,0.0,0.0,0.0,0.0,0.0,0.0,0.0,0.0,0.0,0.0,0.0,0.0,0.0,0.0,0.0,0.0,0.0,0.0,0.0,0.0,0.0,0.0,0.0,0.0,0.0,1.9262,2.0577,0.0,0.0,2.0668,2.1068,2.1461,2.276,2.3712,2.4144,2.5422,2.6772,2.8128,2.8221,2.8913,3.0304,3.0125,3.0613,3.1802,3.1865,3.2557,3.3715,3.3715,3.3715,3.3715,3.3715,3.3499,3.3095,3.2398,3.1206,2.9769,2.913,2.8767,2.8593,2.8811,2.913,2.9494,2.974,2.9581,2.9072,2.8043,2.7391,2.6911,2.6286,2.6213,2.6389,2.6608,2.7143,2.7765,2.823,2.8332,2.839,2.8637,2.8695,2.8637,2.839,2.8172,2.7809,2.7112,2.5446,2.3961,2.3447,2.3288,2.3254,2.3356,2.3792,2.4435,2.533,2.6037,2.6531,2.6778,2.6792,2.6691,2.6458,2.5649,2.4982,2.4571,2.3505,2.2798,2.2591,2.1989,2.122,2.0335,1.9304,1.7606,0.0,0.0,0.0,0.0,0.0,0.0,0.0,0.0,0.0,0.0,0.0,0.0,0.0,0.0,0.0,0.0,0.0,0.0,0.0,0.0,0.0,0.0,0.0,0.0,0.0,0.0,2.0373,2.0283,2.1944,2.287,2.2226,2.2532,2.3018,2.3597,2.4722,2.549,2.5702,2.6977,2.8177,2.9205,2.9066,2.9531,3.0714,3.0382,3.0712,3.1721,3.1897,3.2569,3.3621,3.3621,3.3621,3.3652,3.3894,3.3767,3.3427,3.3692,3.3282,3.2395,3.1585,3.1251,3.1251,3.1251,3.1496,3.1844,3.1844,3.1584,3.1033,2.974,2.916,2.8913,2.8507,2.8652,2.8986,2.8986,2.929,2.9639,2.9639,2.9493,2.9348,2.9348,2.9348,2.929,2.9058,2.9,2.8942,2.8738,2.7128,2.5593,2.4979,2.4687,2.4542,2.4542,2.4878,2.5373,2.6052,2.6531,2.6792,2.6792,2.6792,2.6792,2.6792,2.5778,2.5069,2.4919,2.3635,2.2812,2.2606,2.1993,2.1361,2.0712,1.9217,1.7714,1.619,0.0,0.0,0.0,0.0,0.0,0.0,0.0,0.0,0.0,0.0,0.0,0.0,0.0,0.0,0.0,0.0,0.0,0.0,0.0,0.0,0.0,0.0,0.0,1.7484,2.0016,2.1605,2.0987,2.2946,2.4106,2.3477,2.4472,2.5368,2.5889,2.7032,2.7473,2.6942,2.7415,2.8268,2.9464,2.9112,2.9616,3.1127,3.0368,3.0387,3.1177,3.0796,3.1137,3.2092,3.2092,3.2092,3.2128,3.2861,3.3178,3.3262,3.4045,3.438,3.4281,3.3033,3.2555,3.2555,3.2555,3.2555,3.2555,3.254,3.2526,3.2526,3.2511,3.2061,3.1539,3.1539,3.1539,3.1539,3.1539,3.1539,3.1539,3.1539,3.109,3.067,3.067,3.0641,3.0452,2.9798,2.9639,2.9464,2.8869,2.8231,2.7579,2.6967,2.6313,2.5892,2.5892,2.5892,0.0,2.6778,2.6851,2.6851,2.6836,2.6836,2.6821,2.6792,2.6168,2.5515,2.4934,2.3621,2.262,2.2048,2.138,2.0751,2.0146,1.8245,1.6916,1.6234,0.0,0.0,0.0,0.0,0.0,0.0,0.0,0.0,0.0,0.0,0.0,0.0,0.0,0.0,0.0,0.0,0.0,0.0,0.0,0.0,0.0,0.0,1.8472,1.8833,2.0944,2.2704,2.3404,2.4737,2.5693,2.5891,2.6201,2.6469,2.6614,2.729,2.7648,2.75,2.7997,2.8621,2.9401,2.9047,2.918,2.989,2.969,2.989,3.0545,3.0739,3.1267,3.2092,3.2092,3.2092,3.211,3.2308,3.2702,3.3213,3.3451,3.3877,3.4368,3.4005,3.3875,3.3875,3.3875,3.3875,3.3817,3.3385,3.3226,3.3153,3.2656,3.238,3.2235,3.2235,3.2235,3.2235,3.2235,3.2235,3.2235,3.2235,3.2105,3.199,3.199,3.1613,3.1191,3.1017,3.064,3.0278,3.0118,2.9537,2.8884,2.8288,2.8012,2.7896,2.7896,0.0,0.0,2.8143,2.8186,2.7998,2.7506,2.7448,2.7274,2.6836,2.5736,2.4998,0.0,2.3197,2.237,2.2649,2.2062,2.1423,2.078,1.9319,1.8027,0.0,0.0,0.0,0.0,0.0,0.0,0.0,0.0,0.0,0.0,0.0,0.0,0.0,0.0,0.0,0.0,0.0,0.0,0.0,0.0,0.0,0.0,1.9251,2.0619,2.143,2.2646,2.3871,2.5029,2.5919,2.664,2.7174,2.7253,2.7318,2.7553,2.7866,2.8034,2.8034,2.8322,2.8697,2.9126,2.8988,2.904,2.9275,2.9482,2.9683,2.9928,3.0273,3.069,3.114,3.114,3.114,0.0,3.1466,3.1842,3.2259,3.2595,3.3017,0.0,0.0,0.0,0.0,0.0,3.4397,3.4339,3.3993,3.3879,3.3804,3.3411,3.3294,3.3294,3.3294,3.3294,3.3294,3.3294,3.3106,3.2919,3.2919,3.27,3.2497,3.2497,3.2206,3.1931,3.1931,3.1642,3.1308,3.1032,0.0,0.0,2.9595,2.9043,2.8695,2.8695,2.8695,2.8695,0.0,2.8695,2.855,2.8159,2.8115,2.7854,2.7229,2.6229,0.0,0.0,0.0,2.2287,2.2113,2.1772,0.0,0.0,0.0,0.0,0.0,0.0,0.0,0.0,1.7931,1.7983,0.0,0.0,0.0,0.0,0.0,0.0,0.0,0.0,0.0,0.0,0.0,0.0,0.0,0.0,0.0,0.0,2.1091,2.3003,2.4561,2.4825,2.521,2.6178,2.67,2.7198,2.7745,2.7794,2.7986,2.8454,2.849,2.849,2.849,0.0,0.0,0.0,0.0,2.9052,2.9032,2.9495,2.9631,2.936,2.965,2.9792,2.9792,2.9792,2.9792,2.985,3.0482,3.082,3.097,3.1673,3.2033,3.2236,3.3704,3.4264,3.4281,3.438,3.4397,0.0,0.0,0.0,0.0,3.4397,3.4397,3.4397,3.4397,3.4397,3.4397,3.4397,3.4008,3.3605,3.3605,3.3151,3.2714,3.2714,3.2656,3.2613,3.2613,3.2555,3.2322,3.1728,3.1612,3.1437,3.0917,2.9769,2.8898,2.8898,2.8898,2.8898,2.8898,2.8898,2.8884,2.8811,0.0,0.0,2.7869,2.7258,2.6358,2.51,2.3827,2.2577,2.139,2.1394,2.1394,2.1332,2.1902,2.2189,2.2106,2.2769,2.3105,2.3059,2.0895,2.0494,0.0,0.0,0.0,0.0,0.0,0.0,0.0,0.0,0.0,0.0,0.0,0.0,0.0,0.0,0.0,2.1322,2.2979,2.4609,2.6201,2.682,2.7157,2.7361,2.7481,2.7757,2.8286,2.8346,2.8382,2.8478,2.849,2.849,2.849,2.849,0.0,2.8558,2.8744,2.8784,2.863,2.9177,2.9373,2.917,0.0,0.0,2.9792,2.9792,2.9792,2.9811,2.9953,3.0343,3.0914,3.1063,3.1507,3.2182,3.3087,3.3419,3.3503,3.4147,3.4397,3.4397,3.4397,3.4397,3.4397,3.4397,3.4397,3.4397,3.4397,3.4397,0.0,3.4397,3.431,3.424,3.424,3.4121,3.4034,3.4034,3.3659,3.3298,3.3298,3.2875,3.2468,3.2337,3.2308,3.2264,3.2148,3.1076,3.0234,3.0234,3.0234,3.0234,3.0234,3.0234,3.0031,2.9479,2.9435,2.9174,2.8564,2.7898,2.7201,2.646,2.5212,2.4152,2.338,2.3807,2.3836,2.3351,2.3467,2.3267,2.2725,2.387,2.4435,2.4392,2.2941,2.2367,0.0,0.0,0.0,0.0,0.0,0.0,0.0,0.0,0.0,0.0,0.0,1.7411,1.8744,0.0,2.1828,2.3135,2.4669,2.6087,2.7138,2.7769,2.8094,2.8094,2.8094,2.8202,2.8466,2.849,2.849,2.849,2.849,2.849,2.849,2.849,2.849,2.849,2.8705,2.8744,2.8657,2.904,2.9197,2.9091,2.9443,2.9599,2.9599,2.974,2.9792,2.9792,2.9792,3.0017,3.0343,3.0343,3.0589,3.1028,3.1764,3.2308,3.2737,3.352,3.3794,3.3859,3.4264,3.4397,3.4397,3.4397,3.4397,3.4397,3.4397,3.4397,3.4397,3.4397,3.4397,3.4397,3.4397,3.4397,3.4397,3.4397,3.4167,3.3952,3.3952,3.3688,3.3352,3.305,3.2991,3.289,3.2555,3.1975,3.1438,3.1105,3.0786,3.0598,3.0598,3.0598,3.0466,3.0132,3.0103,2.9842,2.9203,2.826,2.7565,2.7259,2.6371,2.5703,2.5369,2.5647,2.5662,2.5355,2.5647,2.5649,2.529,2.6287,2.6737,2.675,2.6099,2.5622,0.0,0.0,0.0,0.0,0.0,0.0,0.0,0.0,1.5906,1.7796,1.8698,1.9564,2.0971,2.2438,2.3773,2.4801,2.6129,2.7234,2.7781,2.8226,2.849,2.849,2.849,2.849,2.849,2.849,2.849,2.849,2.849,2.849,2.849,2.849,2.849,2.849,2.8657,2.8744,2.8744,2.9103,2.9271,2.9271,2.9613,2.9719,2.9651,2.9852,2.9892,2.9804,2.9905,3.0005,3.0105,3.0105,3.0105,3.0171,3.0765,3.1386,3.205,3.2731,3.2985,3.3087,3.3739,3.4045,3.413,3.3994,3.4045,3.4165,3.4165,3.4165,3.4213,3.4363,3.4397,3.4397,3.4397,3.4397,3.4397,3.4397,3.4397,3.4397,3.4397,3.4397,3.4269,3.3763,3.3661,3.3501,3.2961,3.2772,3.2468,3.18,3.1279,3.0975,3.0975,3.0975,3.0917,3.0786,3.0771,3.051,2.9842,2.8725,2.8072,2.8072,2.7505,2.717,2.717,2.717,2.717,2.717,2.7637,2.7884,2.7912,2.855,2.8869,2.8884,2.9,2.8651,1.6326,1.5262,1.4494,1.5262,1.5491,1.6175,0.0,0.0,1.9518,2.0706,2.1753,2.2658,2.3308,2.4331,2.5378,2.6453,2.7174,2.7794,2.8342,2.8454,2.849,2.849,2.849,2.849,2.849,2.849,2.849,2.849,2.849,2.849,2.849,2.849,2.849,2.849,2.853,2.853,2.853,2.9434,2.99,2.9913,3.0762,3.0919,3.048,3.05,3.0256,2.9836,3.0306,3.0783,3.121,3.121,3.121,3.1231,3.1299,3.14,3.1541,3.2043,3.2218,3.225,3.234,3.2787,3.3227,3.2559,3.2791,3.3332,3.3332,3.3332,3.3485,3.4213,3.4397,3.4397,3.4397,3.4397,3.4397,3.4397,3.4397,3.4397,3.4397,3.4397,3.4368,3.4295,3.4312,3.4283,3.4194,3.3732,3.3167,3.2482,3.2322,3.2293,3.2293,3.2293,3.2061,3.1467,3.1394,3.1163,3.0539,2.9798,2.9378,2.9378,2.8811,2.8491,2.8491,2.8491,2.8491,2.8491,2.855,2.8593,2.8593,2.9189,2.9508,2.9508,3.0118,2.974,1.7406,1.7171,0.0,0.0,1.7676,1.8888,2.0009,2.0502,2.1046,2.2117,2.3147,2.4037,2.4566,2.5781,2.6844,0.0,2.7818,2.8238,2.8474,2.849,2.849,2.849,2.849,2.849,2.849,2.849,2.849,2.849,2.849,2.849,2.849,2.849,2.849,2.849,2.8811,2.8967,2.8967,2.9681,3.0063,3.0063,3.056,3.0787,3.0732,3.0842,3.0826,3.0733,3.0972,3.1185,3.1406,3.1406,3.1406,3.1406,3.1406,3.1406,3.1466,3.2156,3.2395,3.2439,3.288,3.3036,3.3046,3.3219,3.3239,3.3297,3.3759,3.3894,3.3962,3.4312,3.4397,3.4397,3.4397,3.4397,3.4397,3.4397,3.4397,3.4397,3.4397,3.4397,3.4397,3.4397,3.4397,3.4397,3.4397,3.4196,3.3935,3.3643,3.2975,3.2497,3.2497,3.2497,3.2395,3.2119,3.2076,3.1974,3.1729,3.1452,3.1118,3.0741,3.048,3.0161,2.9828,2.9813,2.9813,2.9813,2.9813,2.9973,3.0335,3.0582,3.0915,3.1292,3.1584,3.1424,1.7983,0.0,0.0,1.8361,1.9671,2.1076,2.1221,2.1789,2.2522,2.3436,2.4218,2.497,2.5799,2.6796,2.7589,2.7878,2.8238,2.849,2.849,2.849,2.8462,2.8298,2.8274,2.8274,2.8274,2.8406,2.849,2.849,2.849,2.849,2.849,2.8635,2.8727,2.8727,2.9244,2.952,2.952,3.01,3.0396,3.0408,3.084,3.105,3.1124,3.1158,3.1343,3.1625,3.1625,3.1733,3.1871,3.1871,3.1871,3.1871,3.1871,3.1871,3.1933,3.2516,3.2553,3.2348,3.2876,3.2968,3.2874,3.3246,3.3206,3.3127,3.3729,3.3903,3.3963,3.424,3.4318,3.4327,3.439,3.4397,3.4397,3.4397,3.4397,3.4397,3.4397,3.4397,3.4397,3.4397,3.4397,3.4397,3.4397,3.4397,3.4397,3.4397,3.3614,3.3019,3.3019,3.289,3.2788,3.2788,3.2613,3.2497,3.2497,3.2497,3.2293,3.1815,3.1786,3.1584,3.1134,3.112,3.112,3.112,3.112,3.1337,3.1786,3.1786,3.2032,3.2497,3.2497,3.2598,0.0,0.0,1.859,2.0115,2.1329,2.2297,2.2815,2.3688,2.4561,2.5131,2.5246,2.5751,2.7337,2.7234,2.7258,2.8298,2.8478,2.849,2.849,2.849,2.8298,2.7794,2.7721,2.7721,0.0,2.819,2.849,2.849,2.849,2.849,2.849,2.8991,2.928,2.928,2.9806,3.0083,3.0083,3.0801,3.1162,3.1174,3.2164,3.2366,3.1866,3.1547,3.1687,3.219,3.219,3.2503,3.3052,3.3052,3.3052,3.3052,3.3052,3.3052,3.3052,3.3082,3.2391,3.1447,3.1468,3.1968,3.2481,3.1734,3.2003,3.2614,3.2653,3.2653,3.2868,3.3836,3.41,3.4153,3.4355,3.4397,3.4397,3.4397,3.4397,3.4397,3.4397,3.4397,3.4397,3.4397,3.4397,3.4397,3.4397,3.4397,3.4397,3.4397,3.4368,3.4339,3.4339,3.3835,3.3474,3.3474,3.289,3.2497,3.2497,3.2497,3.2497,3.2468,3.2468,3.2468,3.2439,3.2439,3.2439,3.2439,3.2439,3.2453,3.2468,3.2468,3.2482,3.2497,3.2497,3.2846,1.8657,0.0,2.055,2.144,2.2702,2.3864,2.441,2.5059,2.5612,2.5793,2.6111,2.6424,2.6592,2.6784,2.7126,2.7854,2.7974,2.8094,2.8442,2.849,2.843,2.825,2.8226,0.0,0.0,0.0,0.0,2.8466,2.849,2.849,2.849,2.9015,2.9304,2.9304,3.0179,3.0624,3.0624,3.124,3.1537,3.1537,3.2006,3.2125,3.1975,3.2028,3.2169,3.2321,3.2321,3.2454,3.2627,3.2627,3.2702,3.2831,3.2831,3.2939,3.3102,3.3102,3.2851,3.2537,3.2537,3.2441,3.238,3.2633,3.2679,3.2686,3.3169,3.3325,3.3401,3.3734,3.383,3.3982,3.4633,3.4807,3.4832,3.5021,3.5055,3.4939,3.4501,3.4397,3.4397,3.4397,3.4397,3.4397,3.4397,3.4397,3.4397,3.4397,3.4397,3.4397,3.4397,3.4225,3.4095,3.4095,3.3906,3.3759,3.3759,3.3759,3.3601,3.3196,3.3167,3.2962,3.2511,3.2497,3.2497,3.2497,3.2497,3.2714,3.3167,3.3167,3.3369,3.3759,3.3759,3.3891,1.964,2.1,2.2442,2.3123,2.4333,2.545,2.5787,2.5997,2.6093,2.6093,2.6063,2.6003,2.5853,2.5805,2.6147,2.7241,2.7253,2.7445,2.8378,2.849,2.8418,2.8226,2.8202,0.0,0.0,0.0,0.0,2.8454,2.849,2.849,2.849,2.9184,2.9581,2.9581,3.0624,3.1178,3.1178,3.1536,3.1739,3.1805,3.1937,3.206,3.2147,3.2322,3.2431,3.2519,3.2519,3.2562,3.2649,3.2649,3.2736,3.2853,3.2853,3.2939,3.3102,3.3102,3.3102,3.3102,3.3102,3.2851,3.26,3.3133,3.3055,3.2868,3.3348,3.3488,3.3496,3.3581,3.3593,3.3735,3.4367,3.4538,3.4585,3.4754,3.4781,3.4625,3.4002,3.386,3.3891,3.3954,3.3962,3.4062,3.4346,3.4397,3.4397,3.4397,3.4397,3.4397,3.4397,3.4397,3.4397,3.4397,3.4397,3.4397,3.4397,3.4397,3.424,3.385,3.3821,3.363,3.3193,3.3178,3.3178,3.3178,3.3178,3.3398,3.3821,3.3821,3.4008,3.4397,3.4397,3.4397,2.1081,2.2678,2.4114,2.5131,2.6147,2.6898,2.6898,2.6484,2.6081,2.6021,2.5186,2.4585,0.0,0.0,2.4451,2.646,2.6412,2.6695,2.8282,2.849,2.8298,0.0,0.0,0.0,0.0,0.0,0.0,2.8454,0.0,2.8522,2.8546,2.9532,3.0098,3.0143,3.1141,3.1705,3.1705,3.1705,3.1805,3.1981,3.1981,3.2125,3.2344,3.2344,3.2475,3.2646,3.2646,3.2788,3.3038,3.3038,3.3025,3.3059,3.3059,3.3068,3.3081,3.3081,3.3102,3.3102,3.3068,3.3102,3.3102,3.3102,3.3102,3.3102,3.3102,3.3102,3.3148,3.3315,3.3385,3.3437,3.3669,3.3734,3.3754,3.3752,3.3752,3.3595,3.307,3.2935,3.2995,3.3194,3.3231,3.3479,3.4264,3.4397,3.4397,3.4397,3.4397,3.4397,3.4397,3.4397,3.4397,3.4397,3.4397,3.4397,3.4397,3.4397,3.4397,3.4397,3.4397,3.4397,3.4397,3.4397,3.4397,3.4397,3.4397,3.4397,3.4397,3.4397,3.4397,3.4397,3.4397,3.4397,2.2939,2.4149,2.5168,2.6231,2.6712,2.6898,2.6898,2.6484,2.5877,2.5066,2.441,2.3657,0.0,0.0,0.0,2.497,2.6003,0.0,2.8342,2.849,0.0,2.831,0.0,2.8298,2.8298,2.8298,0.0,0.0,2.849,2.8659,2.9076,2.9725,3.0287,3.0684,3.1334,3.1705,3.1705,3.1705,3.1727,3.1783,3.1783,3.1805,3.1893,3.1893,3.1903,3.1947,3.1947,3.1991,3.2057,3.2057,3.2157,3.23,3.2497,3.2671,3.2797,3.2797,3.2918,3.3068,3.2874,3.2918,3.3102,3.3102,3.3102,3.3102,3.3102,3.3102,3.3108,3.317,3.3183,3.3335,3.4041,3.4227,3.425,3.4416,3.4445,3.4283,3.3622,3.3501,3.3504,3.3562,3.3734,3.3981,3.4334,3.4397,3.4397,3.4397,3.4397,3.4397,3.4397,3.4397,3.4397,3.4397,3.4397,3.4397,3.4397,3.4397,3.4397,3.4397,3.4397,3.4397,3.4397,3.4397,3.4397,3.4397,3.4397,3.4397,3.4397,3.4397,3.4397,3.4397,3.4397,3.4397,2.4259,2.5475,2.6496,2.7109,2.7246,2.7133,2.6664,2.5943,2.4975,2.3444,2.2739,0.0,0.0,0.0,0.0,0.0,0.0,0.0,2.8274,2.849,2.849,0.0,2.849,0.0,2.849,2.849,2.849,0.0,2.8727,2.8979,2.928,3.0034,3.0588,3.0889,3.1406,3.1705,3.1705,3.1705,3.1705,3.1705,3.1705,3.1705,3.1705,3.1705,3.1761,3.1827,0.0,3.1893,3.2003,3.2003,3.2081,3.2191,3.2344,3.2475,3.2608,3.2822,3.3018,3.3155,3.3246,3.3355,3.3457,3.3188,3.3102,3.3102,3.3102,3.3102,3.3102,3.3102,3.3102,3.3197,3.3696,3.3823,3.3859,3.3979,3.4003,3.3833,3.319,3.3039,3.308,3.319,3.3593,3.4001,3.4231,3.4271,3.4307,3.439,3.4397,3.4397,3.4397,3.4397,3.4397,3.4397,3.4397,3.4397,3.4397,3.4397,3.4397,3.4397,3.4397,3.4397,3.4397,3.4397,3.4397,3.4397,3.4397,3.4397,3.4397,3.4397,3.4397,3.4397,3.4397,3.4397,2.5289,2.658,2.7697,2.7697,2.7649,2.7301,2.6154,2.5006,2.3612,2.1608,0.0,1.9971,1.8975,1.978,2.1284,2.3356,0.0,2.6142,2.8202,2.849,2.849,2.849,2.849,2.849,2.849,2.849,2.8526,2.8587,2.91,2.94,2.94,3.0359,3.0925,3.0997,3.1454,3.1705,3.1705,3.1705,3.1705,3.1705,3.1705,3.1705,3.1705,3.1705,3.1805,3.1972,0.0,0.0,3.23,3.23,3.23,3.23,3.2335,3.2393,3.2516,3.2982,3.3203,3.3371,3.3793,3.3964,3.3919,3.3411,3.3251,3.326,3.3206,3.3253,3.3291,3.314,3.3153,3.319,3.3115,3.3102,3.3102,3.3102,3.3102,3.2964,3.2441,3.2328,3.2402,3.2662,3.3211,3.3745,3.3992,3.4132,3.4242,3.4344,3.4462,3.4501,3.4412,3.4397,3.4397,3.4397,3.4397,3.4397,3.4397,3.4397,3.4397,3.4397,3.4397,3.4397,3.4397,3.4397,3.4397,3.4397,3.4397,3.4397,3.4397,3.4397,3.4397,3.4397,3.4397,3.4397,2.6345,2.7157,2.7697,2.7697,2.7373,2.6633,2.5126,2.3652,0.0,0.0,0.0,1.8409,1.7784,1.9274,2.1149,2.2863,0.0,0.0,0.0,0.0,2.849,0.0,0.0,0.0,0.0,0.0,0.0,0.0,0.0,0.0,2.9953,3.0564,3.1093,3.156,3.1657,3.1705,3.1705,3.1705,3.1705,3.1705,3.1705,3.1705,3.1705,3.1705,3.1705,3.1761,0.0,0.0,3.1815,3.1815,3.1815,3.1849,3.2003,3.2327,3.2751,3.2848,3.3301,3.3829,3.3709,3.3814,3.4019,3.4059,3.4087,3.4045,3.3831,3.4073,3.4248,3.3354,3.3429,3.3658,3.3215,3.3102,3.3102,3.3102,3.3102,3.3077,3.2977,3.2952,3.3009,3.3226,3.3359,3.3516,3.3734,3.4362,3.4684,3.422,3.4783,3.5026,3.447,3.4397,3.4397,3.4397,3.4397,3.4397,3.4397,3.4397,3.4397,3.4397,3.4397,3.4397,3.4397,3.4397,3.4397,3.4397,3.4397,3.4397,3.4397,3.4397,3.4397,3.4397,3.4397,3.4397,2.6669,2.7505,2.8046,2.7769,2.7085,2.5919,2.3797,0.0,0.0,0.0,0.0,1.7207,1.6667,1.8325,0.0,0.0,0.0,0.0,0.0,0.0,0.0,0.0,0.0,0.0,0.0,0.0,0.0,0.0,0.0,0.0,3.0504,3.1021,3.1418,3.1705,3.1705,3.1705,3.1705,3.1705,3.1705,3.1705,3.1705,3.1705,3.1705,3.1705,3.1705,3.1705,3.1705,0.0,3.1705,3.1705,3.1863,3.2128,3.2218,3.2589,3.3084,3.3327,3.3662,3.401,3.4171,3.4315,3.4481,3.4857,3.4672,3.4278,3.4153,3.44,3.459,3.4085,3.4123,3.4274,3.3997,3.3721,3.353,3.353,3.3303,3.3102,3.3102,3.3102,3.3122,3.3233,3.3232,3.331,3.3509,3.3897,3.4109,3.3921,3.4247,3.4406,3.4076,3.379,3.3818,3.4341,3.4397,3.4397,3.4397,3.4397,3.4397,3.4397,3.4397,3.4397,3.4397,3.4397,3.4397,3.4397,3.4397,3.4397,3.4397,3.4397,3.4397,3.4397,3.4397,3.4397,2.6717,2.7601,2.819,2.7661,2.6712,2.524,2.2618,2.1106,0.0,0.0,1.6511,1.6331,1.6031,0.0,1.9083,0.0,0.0,0.0,0.0,0.0,0.0,0.0,0.0,0.0,0.0,0.0,0.0,0.0,0.0,0.0,3.1045,3.1476,3.1705,3.1705,3.1705,3.1705,3.1705,3.1705,3.1705,3.1705,3.1705,3.1705,3.1705,3.1705,3.1705,3.1705,3.1705,0.0,0.0,3.1815,3.2128,3.2515,3.2623,3.2984,3.3501,3.3874,3.4066,3.4222,3.4655,3.4799,3.4884,3.5295,3.503,3.4582,3.4562,3.4794,3.5004,3.4766,3.4778,3.4841,3.4728,3.4377,3.4048,3.3922,3.3461,3.3025,3.3102,3.3047,3.3025,3.3102,3.3102,3.3165,3.331,3.3487,3.3624,3.3631,3.379,3.3866,3.3711,3.333,3.3372,3.4177,3.4034,3.3908,3.3908,3.4045,3.413,3.413,3.4298,3.4397,3.4397,3.4397,3.4397,3.4397,3.4397,3.4397,3.4397,3.4397,3.4397,3.4397,3.4397,3.4397,2.6609,2.7337,2.7649,2.7102,2.6171,2.4699,2.2077,0.0,0.0,1.6943,1.6211,1.6007,1.6451,0.0,0.0,0.0,0.0,2.32,0.0,0.0,0.0,0.0,0.0,0.0,0.0,0.0,0.0,0.0,0.0,0.0,0.0,3.1659,3.1705,3.1705,3.1705,3.1705,3.1705,3.1705,3.1705,3.1705,3.1705,3.1705,3.1705,3.1705,3.1705,3.1705,0.0,0.0,0.0,3.2236,3.2454,3.2551,3.3032,3.3525,3.3934,3.397,3.4294,3.4739,3.4787,3.4799,3.4799,3.486,3.515,3.547,3.5408,3.5794,3.6029,3.4979,3.5067,3.5307,3.4828,3.4653,3.449,3.4022,3.3296,3.2797,3.3059,3.2918,3.281,3.3059,3.3102,3.3099,3.3134,3.3775,3.411,3.3509,3.41,3.4391,3.3765,3.3657,3.3647,3.3759,3.2891,3.2322,3.2322,3.2928,3.3315,3.3315,3.4011,3.4397,3.4397,3.4397,3.4397,3.4397,3.4397,3.4397,3.4397,3.4397,3.4397,3.4397,3.4397,3.4397,2.5673,2.6568,2.7097,2.6544,2.5607,2.4129,2.1509,0.0,1.8446,1.6523,1.5947,1.5875,1.6079,1.6559,0.0,0.0,0.0,0.0,0.0,0.0,0.0,0.0,0.0,0.0,0.0,0.0,0.0,0.0,0.0,0.0,0.0,3.1705,3.1705,3.1705,3.1705,3.1705,3.1705,3.1705,3.1705,3.1705,3.1705,3.1705,3.1705,3.1705,3.1705,3.1705,0.0,0.0,0.0,3.2274,3.2695,3.3032,3.3537,3.403,3.4487,3.4487,3.4619,3.4799,3.4799,3.4799,3.4835,3.4981,3.5199,3.5379,3.5529,3.5853,3.6093,3.5807,3.5868,3.597,3.557,3.5132,3.4613,3.4044,3.3448,3.2979,3.2884,3.268,3.2562,3.2649,3.2671,3.2671,3.2671,3.2961,3.3109,3.284,3.3212,3.3402,3.3129,3.2918,3.2813,3.2813,3.2957,3.307,3.307,3.3476,3.375,3.375,3.4157,3.4397,3.4397,3.4397,3.4397,3.4397,3.4397,3.4397,3.4397,3.4397,3.4397,3.4397,3.4397,3.4617,2.4741,2.5847,2.6568,2.619,2.5192,2.364,0.0,1.9648,1.8205,1.6211,1.5803,1.5803,1.5803,1.6115,1.6715,0.0,0.0,1.9191,2.2044,0.0,0.0,0.0,0.0,0.0,0.0,0.0,0.0,0.0,0.0,0.0,0.0,3.1705,3.1705,3.1705,3.1705,3.1705,3.1705,3.1705,3.1705,3.1705,3.1705,3.1705,3.1705,3.1705,3.1705,3.1705,0.0,0.0,0.0,3.2465,3.2947,3.3356,3.3994,3.4475,3.4799,3.4799,3.4799,3.4799,3.4799,3.4799,3.4835,3.503,3.5078,3.5126,3.5392,3.5668,3.5908,3.6109,3.6157,3.6133,3.5931,3.5346,3.4682,3.4259,3.3724,3.3289,3.3118,3.2776,3.2546,3.2612,3.2511,3.24,3.24,3.24,3.24,3.24,3.2519,3.2615,3.2615,3.2418,3.2254,3.2254,3.2944,3.3304,3.304,3.3409,3.3646,3.3646,3.3992,3.4193,3.4193,3.4039,3.3957,3.3957,3.4011,3.4045,3.4045,3.4215,3.4315,3.4315,3.4488,3.4836,2.403,2.5282,2.6105,2.6093,2.4944,2.324,0.0,1.9361,1.7748,1.6127,1.5803,1.5803,1.5803,1.5792,1.6163,1.7231,0.0,0.0,2.2538,0.0,0.0,0.0,0.0,0.0,0.0,0.0,0.0,0.0,0.0,0.0,0.0,3.1705,3.1705,3.1705,3.1705,3.1705,3.1705,3.1705,3.1705,3.1705,3.1705,3.1705,3.1705,3.1705,3.1705,0.0,0.0,0.0,0.0,3.285,3.3284,3.3392,3.439,3.4799,3.4799,3.4799,3.4799,3.4799,3.4799,3.4799,3.4799,3.4799,3.4799,3.4848,3.5126,3.5392,3.5596,3.562,3.562,3.562,3.5596,3.5191,3.4786,3.4797,3.417,3.3664,3.3917,3.3364,3.2873,3.3142,3.2757,3.24,3.24,3.24,3.24,3.24,3.24,3.24,3.24,3.2388,3.241,3.241,3.2581,3.2358,3.1507,3.2169,3.2626,3.2626,3.3312,3.3703,3.3703,3.3192,3.2918,3.2918,3.3114,3.3196,3.3196,3.3806,3.4096,3.4125,3.4722,3.5003,2.108,2.2065,2.2799,2.2422,2.1966,2.1151,1.9373,1.8566,1.7736,1.6127,1.5803,1.5803,1.5803,1.5803,1.6391,1.8205,1.8639,0.0,0.0,0.0,0.0,0.0,0.0,0.0,0.0,0.0,0.0,0.0,0.0,0.0,0.0,3.1705,3.1705,3.1705,3.1705,3.1705,3.1705,3.1705,3.1705,3.1705,3.1705,3.1705,3.1705,3.1705,0.0,0.0,0.0,0.0,0.0,3.2465,3.2959,3.3356,3.4006,3.4487,3.4799,3.4799,3.4799,3.4799,3.4799,3.4799,3.4799,3.4799,3.4799,3.4835,3.4896,3.5126,3.5368,3.5548,3.5476,3.5368,3.5548,3.5198,3.4811,3.4801,3.4323,3.3857,3.3762,3.3417,3.317,3.3239,3.2838,3.2463,3.2463,3.217,3.1915,3.1915,3.2025,3.2125,3.2125,3.2291,3.24,3.24,3.2453,3.2435,3.2311,3.2816,3.3154,3.3154,3.348,3.3698,3.3698,3.3541,3.3452,3.3452,3.3521,3.3543,3.3543,3.373,3.3825,3.3839,3.4492,3.4785,1.9215,2.0276,2.1022,2.0682,2.0298,1.9684,1.847,1.7893,1.7243,1.6043,1.5803,1.5803,1.5803,1.5803,1.6295,1.7844,1.8265,0.0,0.0,0.0,0.0,0.0,0.0,0.0,0.0,0.0,0.0,0.0,0.0,0.0,0.0,0.0,3.1705,3.1705,3.1705,3.1705,3.1705,3.1705,3.1705,3.1705,3.1705,3.1705,3.1705,3.1705,0.0,0.0,0.0,0.0,0.0,3.2274,3.2815,3.3344,3.3826,3.4342,3.4799,3.4799,3.4799,3.4799,3.4799,3.4799,3.4799,3.4799,3.4799,3.4799,3.4799,3.4932,3.5078,3.5247,3.5175,3.5102,3.5247,3.5054,3.48,3.481,3.4534,3.4246,3.4087,3.3799,3.3549,3.3549,3.3152,3.2743,3.2527,3.2214,3.1924,3.1741,3.1805,3.1893,3.1893,3.2025,3.2147,3.2147,3.2213,3.23,3.2419,3.2793,3.3062,3.3133,3.3246,3.3374,3.3468,3.3264,3.3133,3.3133,3.3217,3.3286,3.3286,3.3493,3.372,3.3966,3.4393,3.4587,0.0,1.9504,2.0288,2.0252,1.953,1.8686,1.8157,1.7291,0.0,1.5911,1.5803,1.5816,1.5899,1.5851,1.6043,1.6763,0.0,0.0,0.0,0.0,0.0,0.0,0.0,0.0,0.0,0.0,0.0,0.0,0.0,0.0,0.0,0.0,3.1705,3.1705,3.1705,3.1705,3.1705,3.1705,3.1705,3.1705,3.1705,3.1705,3.1705,3.1705,0.0,0.0,0.0,0.0,0.0,3.2248,3.2755,3.3284,3.3766,3.4282,3.4751,3.4787,3.4799,3.4799,3.4799,3.4799,3.4799,3.4799,3.4799,3.4799,3.4799,3.4799,3.4799,3.4799,3.4799,3.4799,3.4799,3.4799,3.4799,3.4799,3.4799,3.4799,3.4799,3.4414,3.4054,3.4054,3.3657,3.3188,3.2695,3.2575,3.237,3.1827,3.1765,3.1731,3.1695,3.1705,3.1705,3.1705,3.1871,3.1981,3.1981,3.2235,3.2475,3.268,3.268,3.281,3.3059,3.2532,3.2235,3.2256,3.2507,3.2638,3.2638,3.3151,3.3697,3.4314,3.4314,3.4314,1.6056,0.0,1.7252,1.6991,1.7039,1.7015,0.0,1.6499,1.6451,1.5911,1.5803,1.6043,1.6871,1.6343,1.6655,0.0,0.0,0.0,0.0,0.0,0.0,0.0,0.0,0.0,0.0,0.0,0.0,0.0,0.0,0.0,0.0,0.0,3.1705,3.1705,3.1705,3.1705,3.1705,3.1705,3.1705,3.1705,3.1705,3.1705,3.1705,3.1705,0.0,0.0,0.0,0.0,3.1717,3.1827,3.22,3.2743,3.326,3.3754,3.4234,3.4655,3.4799,3.4799,3.4799,3.4799,3.4799,3.4799,3.4799,3.4799,3.4799,3.4799,3.4799,3.4799,3.4799,3.4799,3.4799,3.4799,3.4799,3.4799,3.4799,3.4799,3.4799,3.4703,3.4619,3.4619,3.4198,3.3802,3.3681,3.3356,3.2923,3.2382,3.2298,3.2154,3.1743,3.1705,3.1705,3.1705,3.1727,3.1771,3.1771,3.2169,3.241,3.2475,3.2475,3.2584,3.2788,3.2651,3.2675,3.2867,3.2954,3.2984,3.2984,3.3123,3.325,3.3411,3.3411,3.3411,1.5334,1.589,1.6279,1.619,1.6391,1.6523,1.6223,1.6199,1.6151,1.5863,1.5803,1.5983,1.6559,0.0,0.0,0.0,0.0,0.0,0.0,0.0,0.0,0.0,0.0,0.0,0.0,0.0,0.0,0.0,0.0,0.0,0.0,0.0,3.1705,3.1705,3.1705,3.1705,3.1705,3.1705,3.1705,3.1705,3.1705,3.1705,3.1705,3.1705,0.0,0.0,0.0,0.0,3.1705,3.1705,3.202,3.2527,3.2815,3.3357,3.4054,3.4342,3.4595,3.4799,3.4799,3.4799,3.4799,3.4799,3.4799,3.4799,3.4799,3.4799,3.4799,3.4799,3.4799,3.4799,3.4799,3.4799,3.4799,3.4799,3.4799,3.4799,3.4799,3.4799,3.4799,3.4799,3.4571,3.4306,3.403,3.379,3.3452,3.2935,3.2659,3.2394,3.2104,3.1839,3.1705,3.1705,3.1705,3.1705,3.1705,3.1937,3.2125,3.2213,3.2213,3.2322,3.255,3.2658,3.2831,3.309,3.3102,3.3102,3.3102,3.2982,3.2918,3.2918,3.2822,3.2822,1.5452,1.6009,1.6374,1.6465,1.6547,1.6583,1.6499,1.6127,0.0,0.0,0.0,0.0,0.0,1.6547,0.0,0.0,0.0,0.0,0.0,0.0,0.0,0.0,0.0,0.0,0.0,0.0,0.0,0.0,0.0,0.0,0.0,0.0,0.0,3.1705,3.1705,3.1705,3.1705,3.1705,3.1705,3.1705,3.1705,3.1705,3.1705,3.1705,0.0,0.0,0.0,0.0,3.1705,3.1705,3.1972,3.2382,3.2466,3.3057,3.391,3.3958,3.4342,3.4799,3.4799,3.4799,3.4799,3.4799,3.4799,3.4799,3.4799,3.4799,3.4799,3.4799,3.4799,3.4799,3.4799,3.4799,3.4799,3.4799,3.4799,3.4799,3.4799,3.4799,3.4799,3.4799,3.4799,3.4667,3.4186,3.4114,3.397,3.3477,3.302,3.2707,3.2635,3.2152,3.1815,3.1815,3.1743,3.1705,3.1705,3.1705,3.1771,3.1937,3.1937,3.2081,3.2322,3.2528,3.2766,3.2995,3.2995,3.2995,3.2995,3.2766,3.2658,3.2658,3.2475,3.2497,1.6128,1.6587,1.6522,1.6037,1.6259,1.6487,1.6031,1.5863,1.5803,0.0,0.0,0.0,0.0,1.7905,0.0,0.0,0.0,0.0,0.0,0.0,0.0,0.0,0.0,0.0,0.0,0.0,0.0,0.0,0.0,0.0,0.0,0.0,0.0,3.1705,3.1705,3.1705,3.1705,3.1705,3.1705,3.1705,3.1705,3.1705,3.1705,3.1705,3.1705,0.0,0.0,3.1705,3.1705,3.1705,3.1743,3.1863,3.2322,3.2863,3.3452,3.3862,3.4342,3.4799,3.4799,3.4799,3.4799,3.4799,3.4799,3.4799,3.4799,3.4799,3.4799,3.4799,3.4799,3.4799,3.4799,3.4799,3.4799,3.4799,3.4799,3.4799,3.4799,3.4799,3.4799,3.4799,3.4799,3.4775,3.4691,3.4691,3.4511,3.3982,3.3826,3.3633,3.3224,3.2707,3.237,3.237,3.1972,3.1705,3.1705,3.1705,3.1705,3.1727,3.1761,3.1849,3.206,3.23,3.2475,3.2509,3.2509,3.2509,3.2509,3.2475,3.2453,3.2453,3.241,3.241,1.5576,1.604,1.6228,1.6055,1.6753,1.7399,1.7147,1.6871,1.6751,0.0,0.0,0.0,0.0,0.0,0.0,0.0,0.0,0.0,0.0,0.0,0.0,0.0,0.0,0.0,0.0,0.0,0.0,0.0,0.0,0.0,0.0,0.0,0.0,0.0,3.1705,3.1705,3.1705,3.1705,3.1705,3.1705,3.1705,3.1705,3.1705,3.1705,3.1705,3.1705,0.0,3.1705,3.1705,3.1705,3.1705,3.1729,3.1972,3.2405,3.2959,3.373,3.4342,3.4799,3.4799,3.4799,3.4799,3.4799,3.4799,3.4799,3.4799,3.4799,3.4799,3.4799,3.4799,3.4799,3.4799,3.4799,3.4799,3.4799,3.4799,3.4799,3.4799,3.4799,3.4799,3.4799,3.4799,3.4799,3.4799,3.4799,3.4727,3.4475,3.4198,3.391,3.3705,3.3248,3.2923,3.2923,3.2718,3.2453,3.2164,3.214,3.2008,3.1729,3.1705,3.1783,3.1994,3.2125,3.2257,3.24,3.24,3.24,3.24,3.2257,3.2191,3.2191,3.2081,3.2069,1.5279,1.5682,1.6019,1.655,1.7241,1.7904,1.8225,1.7927,1.7808,0.0,0.0,0.0,0.0,0.0,0.0,0.0,0.0,0.0,0.0,0.0,0.0,0.0,0.0,0.0,0.0,0.0,0.0,0.0,0.0,0.0,0.0,0.0,0.0,0.0,3.1452,3.1502,3.1502,3.1645,3.1705,3.1705,3.1705,3.1705,3.1705,3.1705,3.1705,3.1705,3.1705,3.1705,3.1705,3.1705,3.1705,3.1705,3.1705,3.2032,3.2623,3.3633,3.427,3.4643,3.4763,3.4799,3.4799,3.4799,3.4799,3.4799,3.4799,3.4799,3.4799,3.4799,3.4799,3.4799,3.4799,3.4799,3.4799,3.4799,3.4799,3.4799,3.4799,3.4799,3.4799,3.4799,3.4799,3.4799,3.4799,3.4799,3.4799,3.4799,3.4462,3.4198,3.4198,3.3754,3.3464,3.3464,3.3356,3.308,3.2551,3.2503,3.2262,3.1719,3.1705,3.1771,3.1915,3.1928,3.2025,3.2235,3.2235,3.2235,3.2235,3.2025,3.1928,3.1928,3.1771,3.1771,1.6183,1.6248,1.6252,1.7695,1.7387,1.7039,1.8289,1.8349,1.859,2.0115,0.0,0.0,0.0,0.0,0.0,0.0,0.0,0.0,0.0,0.0,0.0,0.0,0.0,0.0,0.0,0.0,0.0,0.0,0.0,0.0,0.0,0.0,0.0,0.0,0.0,3.0949,3.0949,3.1442,3.1705,3.1705,3.1705,3.1705,3.1705,3.1705,3.1705,3.1705,3.1705,3.1705,3.1705,3.1705,3.1705,3.1705,3.1705,3.2032,3.2623,3.3633,3.4018,3.4114,3.4631,3.4799,3.4799,3.4799,3.4799,3.4799,3.4799,3.4799,3.4799,3.4799,3.4799,3.4799,3.4799,3.4799,3.4799,3.4799,3.4799,3.4799,3.4799,3.4799,3.4799,3.4799,3.4799,3.4799,3.4799,3.4799,3.4799,3.4799,3.4775,3.4751,3.4751,3.4282,3.3934,3.3934,3.3573,3.308,3.2551,3.2503,3.2262,3.1719,3.1705,3.1717,3.1705,3.1705,3.1727,3.1749,3.1749,3.1749,3.1749,3.1727,3.1705,3.1705,3.1717,3.1705,1.5182,1.556,1.5894,1.6939,1.7502,1.8066,1.9114,1.9783,2.0646,2.2261,2.2823,0.0,0.0,0.0,0.0,0.0,0.0,0.0,0.0,0.0,0.0,0.0,0.0,0.0,0.0,0.0,0.0,0.0,0.0,0.0,0.0,0.0,0.0,0.0,0.0,3.0564,3.0901,3.1093,3.1358,3.1705,3.1705,3.1705,3.1705,3.1705,3.1705,3.1705,3.1705,3.1705,3.1705,3.1705,3.1705,3.1705,3.1705,3.2032,3.2587,3.3308,3.3742,3.4066,3.4619,3.4799,3.4799,3.4799,3.4799,3.4799,3.4799,3.4799,3.4799,3.4799,3.4799,3.4799,3.4799,3.4799,3.4799,3.4799,3.4799,3.4799,3.4799,3.4799,3.4799,3.4799,3.4799,3.4799,3.4799,3.4799,3.4799,3.4799,3.4799,3.4799,3.4799,3.4631,3.4511,3.4511,3.4042,3.3645,3.3453,3.2875,3.2406,3.2224,3.1875,3.1705,3.1705,3.1705,3.1705,3.1705,3.1705,3.1705,3.1705,3.1705,3.1705,3.1705,3.1705,3.1705,1.4383,1.4854,1.5499,1.65,1.7511,1.8684,2.0205,2.1262,2.239,2.4162,2.4771,0.0,0.0,0.0,0.0,0.0,0.0,0.0,0.0,0.0,0.0,0.0,0.0,0.0,0.0,0.0,0.0,0.0,0.0,0.0,0.0,0.0,0.0,0.0,0.0,0.0,3.0395,3.0732,3.1081,3.1442,3.1633,3.1705,3.1705,3.1705,3.1705,3.1705,3.1705,3.1705,3.1705,3.1705,3.1705,3.1705,3.1705,3.1924,3.2298,3.2839,3.326,3.3621,3.4318,3.4559,3.4583,3.4751,3.4799,3.4799,3.4799,3.4799,3.4799,3.4799,3.4799,3.4799,3.4799,3.4799,3.4799,3.4799,3.4799,3.4799,3.4799,3.4799,3.4799,3.4799,3.4799,3.4799,3.4799,3.4799,3.4799,3.4799,3.4799,3.4799,3.4799,3.4799,3.4799,3.4799,3.4475,3.4174,3.4006,3.3369,3.2851,3.2527,3.2164,3.1875,3.1717,3.1705,3.1705,3.1705,3.1705,3.1705,3.1705,3.1705,3.1705,3.1705,3.1705,3.1705,1.4072,1.4351,1.5094,1.6699,0.0,0.0,2.1536,2.2634,2.3609,2.5685,2.6117,2.6117,2.6117,0.0,0.0,0.0,0.0,0.0,0.0,0.0,0.0,0.0,0.0,0.0,0.0,0.0,0.0,0.0,0.0,0.0,0.0,0.0,0.0,0.0,0.0,0.0,2.9304,3.0359,3.0889,3.0901,3.1452,3.1705,3.1705,3.1705,3.1705,3.1705,3.1705,3.1705,3.1705,3.1705,3.1705,3.1705,3.1705,3.1705,3.1755,3.2298,3.2503,3.2647,3.3657,3.4006,3.4078,3.4619,3.4799,3.4799,3.4799,3.4799,3.4799,3.4799,3.4799,3.4799,3.4799,3.4799,3.4799,3.4799,3.4799,3.4799,3.4799,3.4799,3.4799,3.4799,3.4799,3.4799,3.4799,3.4799,3.4799,3.4799,3.4799,3.4799,3.4799,3.4799,3.4799,3.4799,3.4799,3.4595,3.4042,3.3994,3.3573,3.2575,3.2515,3.225,3.1729,3.1705,3.1705,3.1705,3.1705,3.1705,3.1705,3.1705,3.1705,3.1705,3.1705,3.1705,1.3982,1.4619,0.0,1.7201,0.0,0.0,0.0,2.3701,0.0,0.0,2.7481,2.7229,0.0,0.0,0.0,0.0,0.0,0.0,0.0,0.0,0.0,0.0,0.0,0.0,0.0,0.0,0.0,0.0,0.0,0.0,0.0,0.0,0.0,0.0,0.0,0.0,2.9304,2.9625,3.0146,3.0901,3.1057,3.1322,3.1705,3.1705,3.1705,3.1705,3.1705,3.1705,3.1705,3.1705,3.1705,3.1705,3.1705,3.1705,3.1755,3.2298,3.2503,3.2599,3.3272,3.3717,3.4018,3.4198,3.4474,3.4799,3.4799,3.4799,3.4799,3.4799,3.4799,3.4799,3.4799,3.4799,3.4799,3.4799,3.4799,3.4799,3.4799,3.4799,3.4799,3.4799,3.4799,3.4799,3.4799,3.4799,3.4799,3.4799,3.4799,3.4799,3.4799,3.4799,3.4799,3.4799,3.4799,3.4739,3.4583,3.4234,3.3862,3.3573,3.2899,3.225,3.1729,3.1705,3.1705,3.1705,3.1705,3.1705,3.1705,3.1705,3.1705,3.1705,3.1705,3.1705,1.4205,1.49,0.0,1.821,1.9696,2.1331,2.4083,0.0,0.0,0.0,0.0,0.0,0.0,0.0,0.0,0.0,0.0,0.0,0.0,0.0,0.0,0.0,0.0,0.0,0.0,0.0,0.0,0.0,0.0,0.0,0.0,0.0,0.0,0.0,0.0,0.0,2.8979,2.9196,2.9617,3.0275,3.048,3.0744,3.1069,3.1524,3.1705,3.1705,3.1705,3.1705,3.1705,3.1705,3.1705,3.1705,3.1705,3.1705,3.1753,3.2068,3.2188,3.2273,3.2791,3.3176,3.3441,3.3645,3.4066,3.4487,3.4487,3.4643,3.4799,3.4799,3.4799,3.4799,3.4799,3.4799,3.4799,3.4799,3.4799,3.4799,3.4799,3.4799,3.4799,3.4799,3.4799,3.4799,3.4799,3.4799,3.4799,3.4799,3.4799,3.4799,3.4799,3.4799,3.4799,3.4799,3.4799,3.4799,3.4799,3.4511,3.4234,3.4006,3.3429,3.2875,3.2357,3.1924,3.1705,3.1705,3.1705,3.1705,3.1705,3.1705,3.1803,3.202,3.202,3.2128,1.4575,1.5195,0.0,1.9477,2.0443,0.0,2.5331,0.0,0.0,0.0,0.0,0.0,0.0,0.0,0.0,0.0,0.0,0.0,0.0,0.0,0.0,0.0,0.0,0.0,0.0,0.0,0.0,0.0,0.0,0.0,0.0,0.0,0.0,0.0,0.0,0.0,2.849,2.8979,2.9256,0.0,2.9785,3.0058,3.0143,3.1105,3.1585,3.1633,3.1633,3.1657,3.1705,3.1705,3.1705,3.1705,3.1705,3.1705,3.1705,3.1705,3.1705,3.1767,3.225,3.2454,3.2575,3.3056,3.3561,3.3934,3.3982,3.433,3.4739,3.4787,3.4799,3.4799,3.4799,3.4799,3.4799,3.4799,3.4799,3.4799,3.4799,3.4799,3.4799,3.4799,3.4799,3.4799,3.4799,3.4799,3.4799,3.4799,3.4799,3.4799,3.4799,3.4799,3.4799,3.4799,3.4799,3.4799,3.4799,3.4799,3.4595,3.409,3.4066,3.3862,3.338,3.2381,3.1862,3.1862,3.1862,3.1862,3.1862,3.1862,3.2104,3.2575,3.2575,3.2827,1.4445,1.5637,0.0,0.0,2.2368,2.4654,2.6345,2.7229,0.0,0.0,0.0,0.0,0.0,0.0,0.0,0.0,0.0,0.0,0.0,0.0,0.0,0.0,0.0,0.0,0.0,0.0,0.0,0.0,0.0,0.0,0.0,0.0,0.0,0.0,0.0,2.849,2.849,2.8599,2.8883,0.0,2.9412,2.9689,3.0119,3.0347,3.0672,3.1069,3.1069,3.1298,3.1705,3.1705,3.1705,3.1705,3.1705,3.1705,3.1705,3.1705,3.1705,3.1729,3.1827,3.2152,3.2515,3.2635,3.3032,3.3525,3.3898,3.4066,3.427,3.4691,3.4799,3.4799,3.4799,3.4799,3.4799,3.4799,3.4799,3.4799,3.4799,3.4799,3.4799,3.4799,3.4799,3.4799,3.4799,3.4799,3.4799,3.4799,3.4799,3.4799,3.4799,3.4799,3.4799,3.4799,3.4799,3.4799,3.4799,3.4799,3.4751,3.4643,3.4631,3.439,3.3874,3.3272,3.297,3.297,3.297,3.297,3.297,3.297,3.3031,3.3139,3.3139,3.3176,1.5045,0.0,0.0,2.1032,0.0,2.5901,2.6705,2.7306,0.0,0.0,0.0,0.0,0.0,0.0,0.0,0.0,0.0,0.0,0.0,0.0,0.0,0.0,0.0,0.0,0.0,0.0,0.0,0.0,0.0,0.0,0.0,0.0,0.0,0.0,2.849,2.849,2.849,2.849,2.8635,2.8919,2.8919,2.9063,2.9352,2.9878,3.0263,3.0528,3.0792,3.1057,3.1334,3.1587,3.1705,3.1705,3.1705,3.1705,3.1705,3.1705,3.1705,3.1705,3.1705,3.1875,3.2116,3.2116,3.2466,3.2959,3.3201,3.3453,3.3766,3.4282,3.4426,3.4487,3.4739,3.4799,3.4799,3.4799,3.4799,3.4799,3.4799,3.4799,3.4799,3.4799,3.4799,3.4799,3.4799,3.4799,3.4799,3.4799,3.4799,3.4799,3.4799,3.4799,3.4799,3.4799,3.4799,3.4799,3.4799,3.4799,3.4799,3.4799,3.4799,3.4679,3.4402,3.4138,3.3789,3.3319,3.3284,3.3284,3.3284,3.3284,3.3416,3.3657,3.3657,3.3754,1.5436,0.0,1.8934,2.2202,2.441,0.0,2.6628,2.7181,0.0,0.0,0.0,0.0,0.0,0.0,0.0,0.0,0.0,0.0,0.0,0.0,0.0,0.0,0.0,0.0,0.0,0.0,0.0,0.0,0.0,0.0,0.0,0.0,2.8291,2.8291,2.8119,2.8027,2.8027,2.8027,2.8119,2.8279,2.8431,2.849,2.8526,2.9412,2.9869,2.9998,3.0528,3.0804,3.0937,3.1488,3.1705,3.1705,3.1705,3.1705,3.1705,3.1705,3.1705,3.1705,3.1705,3.1705,3.1705,3.1705,3.1996,3.237,3.2466,3.2863,3.3392,3.3874,3.4078,3.4234,3.4691,3.4799,3.4799,3.4799,3.4799,3.4799,3.4799,3.4799,3.4799,3.4799,3.4799,3.4799,3.4799,3.4799,3.4799,3.4799,3.4799,3.4799,3.4799,3.4799,3.4799,3.4799,3.4799,3.4799,3.4799,3.4799,3.4799,3.4799,3.4799,3.4799,3.4799,3.4799,3.4402,3.3573,3.3561,3.3561,3.3561,3.3561,3.3765,3.415,3.415,3.439,1.419,0.0,2.0089,0.0,2.3857,2.497,0.0,0.0,0.0,0.0,0.0,0.0,0.0,0.0,0.0,0.0,0.0,0.0,0.0,0.0,0.0,0.0,0.0,0.0,0.0,0.0,0.0,0.0,0.0,0.0,0.0,2.7785,2.7368,2.7368,2.6588,2.6163,2.6163,2.6163,2.6567,2.7389,2.8139,2.849,2.849,2.8655,2.8967,2.9436,2.9965,3.0468,3.0937,3.1488,3.1705,3.1705,3.1705,3.1705,3.1705,3.1705,3.1705,3.1705,3.1705,3.1705,3.1705,3.1705,3.1743,3.1887,3.2358,3.2863,3.3392,3.3874,3.4318,3.4715,3.4787,3.4799,3.4799,3.4799,3.4799,3.4799,3.4799,3.4799,3.4799,3.4799,3.4799,3.4799,3.4799,3.4799,3.4799,3.4799,3.4799,3.4799,3.4799,3.4799,3.4799,3.4799,3.4799,3.4799,3.4799,3.4799,3.4799,3.4799,3.4799,3.4799,3.4799,3.4799,3.4739,3.4607,3.4595,3.4595,3.4595,3.4595,3.4631,3.4703,3.4703,3.4739,1.5446,1.8034,2.0627,0.0,2.3532,2.4705,2.548,0.0,0.0,0.0,0.0,0.0,0.0,0.0,0.0,0.0,0.0,0.0,0.0,0.0,0.0,0.0,0.0,0.0,0.0,0.0,0.0,0.0,0.0,0.0,2.849,2.7672,2.7409,2.7906,2.6535,2.6059,2.6588,2.6059,2.6267,2.7205,2.7592,2.8039,2.849,2.849,2.8643,2.8883,2.9412,2.9962,3.0492,3.1021,3.144,3.1705,3.1705,3.1705,3.1705,3.1705,3.1705,3.1705,3.1705,3.1705,3.1705,3.1705,3.1705,3.1731,3.1984,3.2441,3.2959,3.3477,3.397,3.4402,3.4727,3.4799,3.4799,3.4799,3.4799,3.4799,3.4799,3.4799,3.4799,3.4799,3.4799,3.4799,3.4799,3.4799,3.4799,3.4799,3.4799,3.4799,3.4799,3.4799,3.4799,3.4799,3.4799,3.4799,3.4799,3.4799,3.4799,3.4799,3.4799,3.4799,3.4799,3.4799,3.4799,3.4799,3.4799,3.4799,3.4799,3.4799,3.4799,3.4799,3.4799,3.4799,0.0,0.0,1.9939,2.1419,2.2859,2.4117,0.0,0.0,0.0,0.0,0.0,0.0,0.0,0.0,0.0,0.0,0.0,0.0,0.0,0.0,0.0,0.0,0.0,0.0,0.0,0.0,0.0,0.0,0.0,0.0,2.849,2.7672,2.7389,2.7794,2.6287,2.5683,2.6153,2.5704,2.583,2.6526,2.6969,2.7531,2.8179,2.8411,2.849,2.8526,2.9076,2.952,2.9962,3.0624,3.1151,3.1524,3.1657,3.1705,3.1705,3.1705,3.1705,3.1705,3.1705,3.1705,3.1705,3.1705,3.1705,3.1705,3.1705,3.208,3.2611,3.314,3.3657,3.4114,3.4667,3.4799,3.4799,3.4799,3.4799,3.4799,3.4799,3.4799,3.4799,3.4799,3.4799,3.4799,3.4799,3.4799,3.4799,3.4799,3.4799,3.4799,3.4799,3.4799,3.4799,3.4799,3.4799,3.4799,3.4799,3.4799,3.4799,3.4799,3.4799,3.4799,3.4799,3.4799,3.4799,3.4799,3.4799,3.4799,3.4799,3.4799,3.4799,3.4799,3.4799,3.4799,0.0,1.6343,0.0,2.0023,2.1503,0.0,0.0,0.0,0.0,0.0,0.0,0.0,0.0,0.0,0.0,0.0,0.0,0.0,0.0,0.0,0.0,0.0,0.0,0.0,0.0,0.0,0.0,0.0,0.0,0.0,2.849,2.7672,2.6814,2.5976,2.5052,2.4155,2.3321,2.4155,2.4584,2.4659,2.6381,2.7226,2.7307,2.8119,2.849,2.8526,2.9076,2.9316,2.9412,3.0468,3.0913,3.0985,3.1512,3.1705,3.1705,3.1705,3.1705,3.1705,3.1705,3.1705,3.1705,3.1705,3.1705,3.1705,3.1705,3.208,3.2611,3.314,3.3657,3.4114,3.4667,3.4799,3.4799,3.4799,3.4799,3.4799,3.4799,3.4799,3.4799,3.4799,3.4799,3.4799,3.4799,3.4799,3.4799,3.4799,3.4799,3.4799,3.4799,3.4799,3.4799,3.4799,3.4799,3.4799,3.4799,3.4799,3.4799,3.4799,3.4799,3.4799,3.4799,3.4799,3.4799,3.4799,3.4799,3.4799,3.4799,3.4799,3.4799,3.4799,3.4799,3.4799,0.0,0.0,0.0,1.8734,2.0382,2.1921,0.0,0.0,0.0,0.0,0.0,0.0,0.0,0.0,0.0,0.0,0.0,0.0,0.0,0.0,0.0,0.0,0.0,0.0,0.0,0.0,0.0,0.0,0.0,0.0,2.849,2.7672,2.7296,2.7519,2.5558,2.4048,2.3113,2.4026,2.4787,2.5347,2.6609,2.749,2.8039,2.8371,2.849,2.8522,2.8703,2.8979,2.9328,2.9701,3.0287,3.0913,3.1105,3.1404,3.1705,3.1705,3.1705,3.1705,3.1705,3.1705,3.1705,3.1705,3.1705,3.1705,3.1705,3.208,3.2611,3.314,3.3657,3.4114,3.4667,3.4799,3.4799,3.4799,3.4799,3.4799,3.4799,3.4799,3.4799,3.4799,3.4799,3.4799,3.4799,3.4799,3.4799,3.4799,3.4799,3.4799,3.4799,3.4799,3.4799,3.4799,3.4799,3.4799,3.4799,3.4799,3.4799,3.4799,3.4799,3.4799,3.4799,3.4799,3.4799,3.4799,3.4799,3.4799,3.4799,3.4799,3.4799,3.4799,3.4799,3.4799,1.4014,0.0,0.0,0.0,0.0,0.0,0.0,0.0,0.0,0.0,0.0,0.0,0.0,0.0,0.0,0.0,0.0,0.0,0.0,0.0,0.0,0.0,0.0,0.0,0.0,0.0,0.0,0.0,0.0,0.0,2.849,2.7946,2.7612,2.758,2.5579,2.4048,2.3113,2.3712,2.4467,2.5368,2.6287,2.7194,2.8079,2.8371,2.849,2.849,2.849,2.8703,2.9051,2.9232,2.9713,3.0407,3.0756,3.1117,3.1442,3.1623,3.1705,3.1705,3.1705,3.1705,3.1705,3.1705,3.1705,3.1705,3.1705,3.1948,3.2334,3.2875,3.3392,3.3886,3.4402,3.4667,3.4799,3.4799,3.4799,3.4799,3.4799,3.4799,3.4799,3.4799,3.4799,3.4799,3.4799,3.4799,3.4799,3.4799,3.4799,3.4799,3.4799,3.4799,3.4799,3.4799,3.4799,3.4799,3.4799,3.4799,3.4799,3.4799,3.4799,3.4799,3.4799,3.4799,3.4799,3.4799,3.4799,3.4799,3.4799,3.4799,3.4799,3.4799,3.4799,3.4799,0.0,0.0,0.0,0.0,0.0,0.0,0.0,0.0,0.0,0.0,0.0,0.0,0.0,0.0,0.0,0.0,0.0,0.0,0.0,0.0,0.0,0.0,0.0,0.0,0.0,0.0,0.0,0.0,0.0,2.849,2.849,2.849,2.7672,2.5861,2.502,2.4112,2.3157,2.3157,2.3647,2.4584,2.5432,2.6329,2.7267,2.8119,2.849,2.849,2.849,2.849,2.8546,2.9063,2.928,2.94,3.0456,3.0877,3.0961,3.1466,3.1693,3.1705,3.1705,3.1705,3.1705,3.1705,3.1705,3.1705,3.1705,3.1705,3.1803,3.2346,3.2887,3.3404,3.391,3.4414,3.4799,3.4799,3.4799,3.4799,3.4799,3.4799,3.4799,3.4799,3.4799,3.4799,3.4799,3.4799,3.4799,3.4799,3.4799,3.4799,3.4799,3.4799,3.4799,3.4799,3.4799,3.4799,3.4799,3.4799,3.4799,3.4799,3.4799,3.4799,3.4799,3.4799,3.4799,3.4799,3.4799,3.4799,3.4799,3.4799,3.4799,3.4799,3.4799,3.4799,1.3545,0.0,0.0,0.0,0.0,0.0,0.0,0.0,0.0,0.0,0.0,0.0,0.0,0.0,0.0,0.0,0.0,0.0,0.0,0.0,0.0,0.0,0.0,0.0,0.0,0.0,0.0,0.0,2.849,2.849,2.849,2.849,2.7672,2.5861,2.6205,2.5694,2.4134,2.4744,2.5516,2.6455,2.6702,2.7275,2.8159,2.8391,2.849,2.849,2.849,2.849,2.8522,2.8667,2.8955,2.9328,2.9629,3.0227,3.0913,3.1069,3.138,3.1705,3.1705,3.1705,3.1705,3.1705,3.1705,3.1705,3.1705,3.1705,3.1803,3.2346,3.2887,3.3501,3.4354,3.4691,3.4799,3.4799,3.4799,3.4799,3.4799,3.4799,3.4799,3.4799,3.4799,3.4799,3.4799,3.4799,3.4799,3.4799,3.4799,3.4799,3.4799,3.4799,3.4799,3.4799,3.4799,3.4799,3.4799,3.4799,3.4799,3.4799,3.4799,3.4799,3.4799,3.4799,3.4799,3.4799,3.4799,3.4799,3.4799,3.4799,3.4799,3.4799,3.4799,3.4799,1.3888,1.4801,0.0,0.0,0.0,0.0,0.0,0.0,0.0,0.0,0.0,0.0,0.0,0.0,0.0,0.0,0.0,0.0,0.0,0.0,0.0,0.0,0.0,0.0,0.0,0.0,0.0,0.0,2.849,2.849,2.849,2.849,2.7672,2.5861,2.6712,2.6319,2.452,2.4988,2.5913,2.7205,2.6805,2.7275,2.849,2.849,2.849,2.849,2.849,2.849,2.849,2.849,2.8671,2.8991,2.9208,2.9809,3.06,3.0817,3.1226,3.1705,3.1705,3.1705,3.1705,3.1705,3.1705,3.1705,3.1705,3.1705,3.1777,3.208,3.2707,3.3477,3.427,3.4643,3.4799,3.4799,3.4799,3.4799,3.4799,3.4799,3.4799,3.4799,3.4799,3.4799,3.4799,3.4799,3.4799,3.4799,3.4799,3.4799,3.4799,3.4799,3.4799,3.4799,3.4799,3.4799,3.4799,3.4799,3.4799,3.4799,3.4799,3.4799,3.4799,3.4799,3.4799,3.4799,3.4799,3.4799,3.4799,3.4799,3.4799,3.4799,3.4799,3.4799,1.4491,1.5211,1.6079,0.0,0.0,0.0,1.8843,1.871,0.0,0.0,0.0,0.0,0.0,0.0,0.0,0.0,0.0,0.0,0.0,0.0,0.0,0.0,0.0,0.0,0.0,0.0,2.8346,2.8414,2.8474,2.849,2.849,2.849,2.7713,2.6007,2.6753,2.6381,2.4659,2.4637,2.5505,2.7185,2.635,2.6855,2.849,2.849,2.849,2.849,2.849,2.849,2.849,2.849,2.849,2.8558,2.9027,2.9532,3.0083,3.0612,3.1141,3.1633,3.1681,3.1705,3.1705,3.1705,3.1705,3.1705,3.1705,3.1705,3.1695,3.1767,3.2525,3.3404,3.3886,3.4414,3.4799,3.4799,3.4799,3.4799,3.4799,3.4799,3.4799,3.4799,3.4799,3.4799,3.4799,3.4799,3.4799,3.4799,3.4799,3.4799,3.4799,3.4799,3.4799,3.4799,3.4799,3.4799,3.4799,3.4799,3.4799,3.4799,3.4799,3.4799,3.4799,3.4799,3.4799,3.4799,3.4799,3.4799,3.4799,3.4799,3.4799,3.4799,3.4799,3.4799,1.558,1.6283,1.7003,1.6679,0.0,0.0,0.0,1.7099,0.0,0.0,0.0,0.0,0.0,0.0,0.0,0.0,0.0,0.0,0.0,0.0,0.0,0.0,0.0,0.0,0.0,0.0,2.7397,2.7818,2.825,2.849,2.849,2.849,2.8007,2.6969,2.7092,2.667,2.5558,2.5558,2.6101,2.7205,2.701,2.749,2.849,2.849,2.849,2.849,2.849,2.849,2.849,2.849,2.849,2.8522,2.8619,2.8979,2.952,3.007,3.06,3.1117,3.156,3.1705,3.1705,3.1705,3.1705,3.1705,3.1705,3.1705,3.1801,3.2214,3.2826,3.3404,3.3886,3.4414,3.4799,3.4799,3.4799,3.4799,3.4799,3.4799,3.4799,3.4799,3.4799,3.4799,3.4799,3.4799,3.4799,3.4799,3.4799,3.4799,3.4799,3.4799,3.4799,3.4799,3.4799,3.4799,3.4799,3.4799,3.4799,3.4799,3.4799,3.4799,3.4799,3.4799,3.4799,3.4799,3.4799,3.4799,3.4799,3.4799,3.4799,3.4799,3.4799,3.4799,1.624,1.6595,1.7063,1.7327,0.0,0.0,0.0,0.0,0.0,0.0,0.0,0.0,0.0,0.0,0.0,0.0,0.0,0.0,0.0,0.0,0.0,0.0,0.0,0.0,0.0,0.0,2.7006,2.727,2.7794,2.8094,2.8094,2.8346,2.8099,2.7226,2.7623,2.7397,2.6505,2.6505,2.6937,2.7846,2.7409,2.7664,2.849,2.849,2.849,2.849,2.849,2.849,2.849,2.849,2.849,2.849,2.849,2.8835,2.9364,2.9893,3.0443,3.0973,3.1502,3.1705,3.1705,3.1705,3.1705,3.1705,3.1705,3.1705,3.1765,3.2032,3.2501,3.302,3.3513,3.3982,3.439,3.4715,3.4799,3.4799,3.4799,3.4799,3.4799,3.4799,3.4799,3.4799,3.4799,3.4799,3.4799,3.4799,3.4799,3.4799,3.4799,3.4799,3.4799,3.4799,3.4799,3.4799,3.4799,3.4799,3.4799,3.4799,3.4799,3.4799,3.4799,3.4799,3.4799,3.4799,3.4799,3.4799,3.4799,3.4799,3.4799,3.4799,3.4799,3.4799,0.0,0.0,0.0,0.0,0.0,1.7435,0.0,0.0,0.0,0.0,0.0,0.0,0.0,0.0,0.0,0.0,0.0,0.0,0.0,0.0,0.0,0.0,0.0,0.0,0.0,0.0,2.6513,2.6736,2.7048,2.7373,2.7685,2.8106,2.8072,2.747,2.7966,2.7906,2.7205,2.7205,2.7551,2.8239,2.7704,2.7825,2.849,2.849,2.849,2.849,2.849,2.849,2.849,2.849,2.849,2.849,2.849,2.8775,2.922,2.9857,3.0371,3.0841,3.1488,3.1705,3.1705,3.1705,3.1705,3.1705,3.1705,3.1705,3.1705,3.1705,3.2092,3.2623,3.3152,3.3644,3.4114,3.4667,3.4799,3.4799,3.4799,3.4799,3.4799,3.4799,3.4799,3.4799,3.4799,3.4799,3.4799,3.4799,3.4799,3.4799,3.4799,3.4799,3.4799,3.4799,3.4799,3.4799,3.4799,3.4799,3.4799,3.4799,3.4799,3.4799,3.4799,3.4799,3.4799,3.4799,3.4799,3.4799,3.4799,3.4799,3.4799,3.4799,3.4799,3.4799,0.0,0.0,0.0,0.0,1.9178,0.0,0.0,0.0,0.0,0.0,0.0,0.0,0.0,0.0,0.0,0.0,0.0,0.0,0.0,0.0,0.0,0.0,0.0,0.0,0.0,0.0,0.0,2.6129,2.5817,2.6195,2.7625,2.7757,2.7971,2.8347,2.7704,2.7307,2.7205,2.7205,2.7246,2.7368,2.8039,2.8411,2.849,2.849,2.849,2.849,2.849,2.849,2.849,2.849,2.849,2.849,2.849,2.8546,2.8707,2.9746,3.0143,3.0335,3.1334,3.1705,3.1705,3.1705,3.1705,3.1705,3.1705,3.1705,3.1705,3.1705,3.2092,3.2623,3.3152,3.3994,3.4703,3.4787,3.4799,3.4799,3.4799,3.4799,3.4799,3.4799,3.4799,3.4799,3.4799,3.4799,3.4799,3.4799,3.4799,3.4799,3.4799,3.4799,3.4799,3.4799,3.4799,3.4799,3.4799,3.4799,3.4799,3.4799,3.4799,3.4799,3.4799,3.4799,3.4799,3.4799,3.4799,3.4799,3.4799,3.4799,3.4799,3.4799,3.4799,3.4799,0.0,0.0,0.0,0.0,0.0,0.0,0.0,0.0,1.6427,0.0,0.0,0.0,0.0,0.0,0.0,0.0,0.0,0.0,0.0,0.0,0.0,0.0,0.0,0.0,0.0,0.0,0.0,0.0,0.0,2.527,2.6243,2.7193,2.7806,2.8022,2.7973,2.7946,2.7946,2.7946,2.7946,2.7966,2.8331,2.849,2.849,2.849,2.849,2.849,2.849,2.849,2.849,2.849,2.849,2.849,2.849,2.849,2.8643,2.9701,3.0107,3.0263,3.1344,3.1705,3.1705,3.1705,3.1705,3.1705,3.1705,3.1705,3.1705,3.1705,3.1851,3.2164,3.2695,3.3513,3.4318,3.4703,3.4799,3.4799,3.4799,3.4799,3.4799,3.4799,3.4799,3.4799,3.4799,3.4799,3.4799,3.4799,3.4799,3.4799,3.4799,3.4799,3.4799,3.4799,3.4799,3.4799,3.4799,3.4799,3.4799,3.4799,3.4799,3.4799,3.4799,3.4799,3.4799,3.4799,3.4799,3.4799,3.4799,3.4799,3.4799,3.4799,3.4799,3.4799,2.0237,0.0,0.0,0.0,0.0,0.0,0.0,0.0,0.0,0.0,0.0,0.0,0.0,0.0,0.0,0.0,0.0,0.0,0.0,0.0,0.0,0.0,0.0,0.0,0.0,0.0,0.0,0.0,0.0,0.0,2.5252,2.64,2.7241,2.7685,2.807,2.8346,2.849,2.849,2.849,2.849,2.849,2.849,2.849,2.849,2.849,2.849,2.849,2.849,2.849,2.849,2.849,2.849,2.849,2.849,2.8643,2.9701,3.0107,3.0263,3.1344,3.1705,3.1705,3.1705,3.1705,3.1705,3.1705,3.1705,3.1705,3.1705,3.1705,3.1874,3.2527,3.3199,3.3861,3.4619,3.4799,3.4799,3.4799,3.4799,3.4799,3.4799,3.4799,3.4799,3.4799,3.4799,3.4799,3.4799,3.4799,3.4799,3.4799,3.4799,3.4799,3.4799,3.4799,3.4799,3.4799,3.4799,3.4799,3.4799,3.4799,3.4799,3.4799,3.4799,3.4799,3.4799,3.4799,3.4799,3.4799,3.4799,3.4799,3.4799,3.4799,3.4799,0.0,0.0,0.0,1.9709,0.0,0.0,0.0,0.0,1.7976,0.0,0.0,0.0,0.0,0.0,1.8566,1.7556,0.0,0.0,0.0,0.0,0.0,0.0,0.0,0.0,0.0,0.0,0.0,0.0,0.0,0.0,2.515,2.536,2.6087,2.7649,2.7721,2.7974,2.8478,2.849,2.849,2.849,2.849,2.849,2.849,2.849,2.849,2.849,2.849,2.849,2.849,2.849,2.849,2.849,2.849,2.849,2.8643,2.9701,3.0107,3.0263,3.1344,3.1705,3.1705,3.1705,3.1705,3.1705,3.1705,3.1705,3.1705,3.1705,3.1705,3.1936,3.3007,3.3307,3.3561,3.4559,3.4799,3.4799,3.4799,3.4799,3.4799,3.4799,3.4799,3.4799,3.4799,3.4799,3.4799,3.4799,3.4799,3.4799,3.4799,3.4799,3.4799,3.4799,3.4799,3.4799,3.4799,3.4799,3.4799,3.4799,3.4799,3.4799,3.4799,3.4799,3.4799,3.4799,3.4799,3.4799,3.4799,3.4799,3.4799,3.4799,3.4799,3.4799,0.0,0.0,2.2491,2.0651,0.0,0.0,0.0,0.0,0.0,0.0,0.0,0.0,0.0,0.0,1.8771,1.8049,1.8085,0.0,0.0,0.0,0.0,0.0,0.0,0.0,0.0,0.0,0.0,0.0,2.1389,0.0,0.0,2.4939,2.5871,2.7126,2.7517,2.7962,2.8478,2.849,2.849,2.849,2.849,2.849,2.849,2.849,2.849,2.849,2.849,2.849,2.849,2.849,2.849,2.849,2.849,2.849,2.8643,2.9701,3.0107,3.0263,3.1344,3.1705,3.1705,3.1705,3.1705,3.1705,3.1705,3.1705,3.1705,3.1705,3.1705,3.1874,3.2575,3.3032,3.3464,3.4114,3.4547,3.4799,3.4799,3.4799,3.4799,3.4799,3.4799,3.4799,3.4799,3.4799,3.4799,3.4799,3.4799,3.4799,3.4799,3.4799,3.4799,3.4799,3.4799,3.4799,3.4799,3.4799,3.4799,3.4799,3.4799,3.4799,3.4799,3.4799,3.4799,3.4799,3.4799,3.4799,3.4799,3.4799,3.4799,3.4799,3.4799,3.4799,2.2525,2.2821,0.0,2.1588,2.0847,0.0,1.8581,0.0,0.0,0.0,0.0,0.0,0.0,0.0,1.9672,1.9143,1.8578,1.776,0.0,0.0,0.0,0.0,0.0,0.0,0.0,0.0,1.9493,2.0788,2.0682,0.0,0.0,0.0,2.5336,2.658,2.7145,2.7769,2.8478,2.849,2.849,2.849,2.849,2.849,2.849,2.849,2.849,2.849,2.849,2.849,2.849,2.849,2.849,2.849,2.849,2.849,2.8643,2.9701,3.0347,3.0768,3.1454,3.1705,3.1705,3.1705,3.1705,3.1705,3.1705,3.1705,3.1705,3.1705,3.1827,3.2116,3.2635,3.3164,3.3657,3.4174,3.4559,3.4799,3.4799,3.4799,3.4799,3.4799,3.4799,3.4799,3.4799,3.4799,3.4799,3.4799,3.4799,3.4799,3.4799,3.4799,3.4799,3.4799,3.4799,3.4799,3.4799,3.4799,3.4799,3.4799,3.4799,3.4799,3.4799,3.4799,3.4799,3.4799,3.4799,3.4799,3.4799,3.4799,3.4799,3.4799,3.4799,3.4799]},{"header":{"parameterUnit":"m.s-1","parameterCategory":1,"la1":30.6,"la2":29.2853,"lo1":-89.7004,"lo2":-87.6739,"dy":0.0162,"dx":0.0183,"nx":112,"ny":82,"refTime":"2026-02-25T00:00:00:Z","depth":0,"parameterNumber":3,"parameterNumberName":"V-component_of_WINDS"},"data":[0.0,0.0,0.0,0.0,0.0,0.0,0.0,0.0,0.0,0.0,0.0,0.0,0.0,0.0,0.0,0.0,0.0,0.0,0.0,0.0,0.0,0.0,0.0,0.0,0.0,0.0,0.0,0.0,0.0,0.0,0.0,0.0,0.0,0.0,0.0,0.0,0.0,0.0,0.0,0.0,0.0,0.0,0.0,0.0,0.0,0.0,0.0,0.0,0.0,0.0,0.0,0.0,0.0,0.0,0.0,0.0,0.0,0.0,0.0,0.0,0.0,0.0,0.0,0.0,0.0,0.0,0.0,0.0,0.0,0.0,0.0,0.0,0.0,0.0,0.0,0.0,0.0,0.0,0.0,0.0,0.0,0.0,0.0,0.0,0.0,0.0,0.0,0.0,0.0,0.0,0.0,1.437,1.5652,1.6233,1.5839,1.5741,1.5232,1.4153,0.0,0.0,0.0,0.0,0.0,0.0,0.0,0.0,0.0,0.0,0.0,0.0,0.0,0.0,0.0,0.0,0.0,0.0,0.0,0.0,0.0,0.0,0.0,0.0,0.0,0.0,0.0,0.0,0.0,0.0,0.0,0.0,0.0,0.0,0.0,0.0,0.0,0.0,0.0,0.0,0.0,0.0,0.0,0.0,0.0,0.0,0.0,0.0,0.0,0.0,0.0,0.0,0.0,0.0,0.0,0.0,0.0,0.0,0.0,0.0,0.0,0.0,0.0,0.0,0.0,0.0,0.0,0.0,0.0,0.0,0.0,0.0,0.0,0.0,0.0,0.0,0.0,0.0,0.0,0.0,0.0,0.0,0.0,0.0,0.0,0.0,0.0,0.0,0.0,0.0,0.0,0.0,0.0,0.0,0.0,0.0,0.0,0.0,0.0,0.0,0.0,0.0,0.0,0.0,1.2703,1.5217,1.6036,1.6367,1.6295,1.5937,1.5359,1.4563,0.0,0.0,0.0,0.0,0.0,0.0,0.0,0.0,0.0,0.0,0.0,0.0,0.0,0.0,0.0,0.0,0.0,0.0,0.0,0.0,0.0,0.0,0.0,0.0,0.0,0.0,0.0,0.0,0.0,0.0,0.0,0.0,0.0,0.0,0.0,0.0,0.0,0.0,0.0,0.0,0.0,0.0,0.0,0.0,0.0,0.0,0.0,0.0,0.0,0.0,0.0,0.0,0.0,0.0,0.0,0.0,0.0,0.0,0.0,0.0,0.0,0.0,0.0,0.0,0.0,0.0,0.0,0.0,0.0,0.0,0.0,0.0,0.0,0.0,0.0,0.0,0.0,0.0,0.0,0.0,0.0,0.0,0.0,0.0,0.0,0.0,0.0,0.0,0.0,0.0,0.0,0.0,0.0,0.0,0.0,0.0,0.0,0.0,0.0,0.0,0.0,0.0,0.0,1.2725,1.3746,1.5518,1.6119,1.6459,1.6602,1.6193,1.5782,1.5495,1.3696,0.0,0.0,0.0,0.0,0.0,0.0,0.0,0.0,0.0,0.0,0.0,0.0,0.0,0.0,0.0,0.0,0.0,0.0,0.0,0.0,0.0,0.0,0.0,0.0,0.0,0.0,0.0,0.0,0.0,0.0,0.0,0.0,0.0,0.0,0.0,0.0,0.0,0.0,0.0,0.0,0.0,0.0,0.0,0.0,0.0,0.0,0.0,0.0,0.0,0.0,0.0,0.0,0.0,0.0,0.0,0.0,0.0,0.0,0.0,0.0,0.0,0.0,0.0,0.0,0.0,0.0,0.0,0.0,0.0,0.0,0.0,0.0,0.0,0.0,0.0,0.0,0.0,0.0,0.0,0.0,0.0,0.0,0.0,0.0,0.0,0.0,0.0,0.0,0.0,0.0,0.0,0.0,0.0,0.0,0.0,0.0,0.0,0.0,0.0,0.0,0.0,0.0,1.4165,1.4821,1.5766,1.6195,1.6474,1.669,1.6166,1.5808,1.5734,1.3512,0.0,0.0,0.0,0.0,0.0,0.0,0.0,0.0,0.0,0.0,0.0,0.0,0.0,0.0,0.0,0.0,0.0,0.0,0.0,0.0,0.0,0.0,0.0,0.0,0.0,0.0,0.0,0.0,0.0,0.0,0.0,0.0,0.0,0.0,0.0,0.0,0.0,0.0,0.0,0.0,0.0,0.0,0.0,0.0,0.0,0.0,0.0,0.0,0.0,0.0,0.0,0.0,0.0,0.0,0.0,0.0,0.0,0.0,0.0,0.0,0.0,0.0,0.0,0.0,0.0,0.0,0.0,0.0,0.0,0.0,0.0,0.0,0.0,0.0,0.0,0.0,0.0,0.0,0.0,0.0,0.0,0.0,0.0,0.0,0.0,0.0,0.0,0.0,0.0,0.0,0.0,0.0,0.0,0.0,0.0,0.0,0.0,0.0,0.0,0.0,0.0,0.0,1.4128,1.5308,1.6253,1.6378,1.6402,1.6441,1.5595,1.4873,1.4364,1.2474,0.0,0.0,0.0,0.0,0.0,0.0,0.0,0.0,0.0,0.0,0.0,0.0,0.0,0.0,0.0,0.0,0.0,0.0,0.0,0.0,0.0,0.0,0.0,0.0,0.0,0.0,0.0,0.0,0.0,0.0,0.0,0.0,0.0,0.0,0.0,0.0,0.0,0.0,0.0,0.0,0.0,0.0,0.0,0.0,0.0,0.0,0.0,0.0,0.0,0.0,0.0,0.0,0.0,0.0,0.0,0.0,0.0,0.0,0.0,0.0,0.0,0.0,0.0,0.0,0.0,0.0,0.0,0.0,0.0,0.0,0.0,0.0,0.0,0.0,0.0,0.0,0.0,0.0,0.0,0.0,0.0,0.0,0.0,0.0,0.0,0.0,0.0,0.0,0.0,0.0,0.0,0.0,0.0,0.0,0.0,0.0,0.0,0.0,0.0,0.0,0.0,0.0,1.4199,1.5222,0.0,1.6545,1.6719,1.6878,1.6457,1.5928,1.5306,0.0,0.0,0.0,0.0,0.0,0.0,0.0,0.0,0.0,0.0,0.0,0.0,0.0,0.0,0.0,0.0,0.0,0.0,0.0,0.0,0.0,0.0,0.0,0.0,0.0,0.0,0.0,0.0,0.0,0.0,0.0,0.0,0.0,0.0,0.0,0.0,0.0,0.0,0.0,0.0,0.0,0.0,0.0,0.0,0.0,0.0,0.0,0.0,0.0,0.0,0.0,0.0,0.0,0.0,0.0,0.0,0.0,0.0,0.0,0.0,0.0,0.0,0.0,0.0,0.0,0.0,0.0,0.0,0.0,0.0,0.0,0.0,0.0,0.0,0.0,0.0,0.0,0.0,0.0,0.0,0.0,0.0,0.0,0.0,0.0,0.0,0.0,0.0,0.0,0.0,0.0,0.0,0.0,0.0,0.0,0.0,0.0,0.0,0.0,0.0,0.0,0.0,1.3504,1.4505,1.5463,0.0,1.6818,1.7004,1.7176,1.6846,1.6297,1.5576,0.0,0.0,0.0,0.0,0.0,0.0,0.0,0.0,0.0,0.0,0.0,0.0,0.0,0.0,0.0,0.0,0.0,0.0,0.0,0.0,0.0,0.0,0.0,0.0,0.0,0.0,0.0,0.0,0.0,0.0,0.0,0.0,0.0,0.0,0.0,0.0,0.0,0.0,0.0,0.0,0.0,0.0,0.0,0.0,0.0,0.0,0.0,0.0,0.0,0.0,0.0,0.0,0.0,0.0,0.0,0.0,0.0,0.0,0.0,0.0,0.0,0.0,0.0,0.0,0.0,0.0,0.0,0.0,0.0,0.0,0.0,0.0,0.0,0.0,0.0,0.0,0.0,0.0,0.0,0.0,0.0,0.0,0.0,0.0,0.0,0.0,0.0,0.0,0.0,0.0,0.0,0.0,0.0,0.0,0.0,0.0,0.0,0.0,0.0,0.0,0.0,0.0,1.3857,1.5105,1.6164,1.7095,1.7204,1.7204,1.7217,1.6474,1.5636,0.0,0.0,0.0,0.0,0.0,0.0,0.0,0.0,0.0,0.0,0.0,0.0,0.0,0.0,0.0,0.0,0.0,0.0,0.0,0.0,0.0,0.0,0.0,0.0,0.0,0.0,0.0,0.0,0.0,0.0,0.0,0.0,0.0,0.0,0.0,0.0,0.0,0.0,0.0,0.0,0.0,0.0,0.0,0.0,0.0,0.0,0.0,0.0,0.0,0.0,0.0,0.0,0.0,0.0,0.0,0.0,0.0,0.0,0.0,0.0,0.0,0.0,0.0,0.0,0.0,0.0,0.0,0.0,0.0,0.0,0.0,0.0,0.0,0.0,0.0,0.0,0.0,0.0,0.0,0.0,0.0,0.0,0.0,0.0,0.0,0.0,0.0,0.0,0.0,0.0,0.0,0.0,0.0,0.0,0.0,0.0,0.0,0.0,0.0,0.0,0.0,0.0,0.0,1.4076,1.5349,1.6382,1.7119,1.7409,1.7673,1.7952,1.7276,1.6421,1.547,0.0,0.0,0.0,0.0,0.0,0.0,0.0,0.0,0.0,0.0,0.0,0.0,0.0,0.0,0.0,0.0,0.0,0.0,0.0,0.0,0.0,0.0,0.0,0.0,0.0,0.0,0.0,0.0,0.0,0.0,0.0,0.0,0.0,0.0,0.0,0.0,0.0,0.0,0.0,0.0,0.0,0.0,0.0,0.0,0.0,0.0,0.0,0.0,0.0,0.0,0.0,0.0,0.0,0.0,0.0,0.0,0.0,0.0,0.0,0.0,0.0,0.0,0.0,0.0,0.0,0.0,0.0,0.0,0.0,0.0,0.0,0.0,0.0,0.0,0.0,0.0,0.0,0.0,0.0,0.0,0.0,0.0,0.0,0.0,0.0,0.0,0.0,0.0,0.0,0.0,0.0,0.0,0.0,0.0,0.0,0.0,0.0,0.0,0.0,0.0,0.0,0.0,1.4213,1.5727,1.695,1.7752,1.8154,1.8479,1.8721,1.8063,1.7229,1.6286,0.0,0.0,0.0,0.0,0.0,0.0,0.0,0.0,0.0,0.0,0.0,0.0,0.0,0.0,0.0,0.0,0.0,0.0,0.0,0.0,0.0,0.0,0.0,0.0,0.0,0.0,0.0,0.0,0.0,0.0,0.0,0.0,0.0,0.0,0.0,0.0,0.0,0.0,0.0,0.0,0.0,0.0,0.0,0.0,0.0,0.0,0.0,0.0,0.0,0.0,0.0,0.0,0.0,0.0,0.0,0.0,0.0,0.0,0.0,0.0,0.0,0.0,0.0,0.0,0.0,0.0,0.0,0.0,0.0,0.0,0.0,0.0,0.0,0.0,0.0,0.0,0.0,0.0,0.0,0.0,0.0,0.0,0.0,0.0,0.0,0.0,0.0,0.0,0.0,0.0,0.0,0.0,0.0,0.0,0.0,0.0,0.0,0.0,0.0,0.0,0.0,0.0,1.4361,1.6207,1.7733,1.8745,1.9184,1.942,1.946,1.8795,1.8012,1.7112,0.0,0.0,0.0,0.0,0.0,0.0,0.0,0.0,0.0,0.0,0.0,0.0,0.0,0.0,0.0,0.0,0.0,0.0,0.0,0.0,0.0,0.0,0.0,0.0,0.0,0.0,0.0,0.0,0.0,0.0,0.0,0.0,0.0,0.0,0.0,0.0,0.0,0.0,0.0,0.0,0.0,0.0,0.0,0.0,0.0,0.0,0.0,0.0,0.0,0.0,0.0,0.0,0.0,0.0,0.0,0.0,0.0,0.0,0.0,0.0,1.5299,0.0,0.0,0.0,0.0,0.0,0.0,0.0,0.0,0.0,0.0,0.0,0.0,0.0,0.0,0.0,0.0,0.0,0.0,0.0,0.0,0.0,0.0,0.0,0.0,0.0,0.0,0.0,0.0,0.0,0.0,0.0,0.0,0.0,0.0,0.0,0.0,0.0,0.0,0.0,0.0,0.0,1.4965,1.6656,1.8093,1.9166,1.9355,1.9526,1.985,1.9345,1.8584,1.7616,0.0,0.0,0.0,0.0,0.0,0.0,0.0,0.0,0.0,0.0,0.0,0.0,0.0,0.0,0.0,0.0,0.0,0.0,0.0,0.0,0.0,0.0,0.0,0.0,0.0,0.0,0.0,0.0,0.0,0.0,0.0,0.0,0.0,0.0,0.0,0.0,0.0,0.0,0.0,0.0,0.0,0.0,0.0,0.0,0.0,0.0,0.0,0.0,0.0,0.0,0.0,0.0,0.0,0.0,0.0,0.0,0.0,0.0,0.0,0.0,0.0,1.6725,0.0,0.0,0.0,0.0,0.0,0.0,0.0,0.0,0.0,0.0,0.0,0.0,0.0,0.0,0.0,0.0,0.0,0.0,0.0,0.0,0.0,0.0,0.0,0.0,0.0,0.0,0.0,0.0,0.0,0.0,0.0,0.0,0.0,0.0,0.0,0.0,0.0,0.0,0.0,0.0,1.5574,1.7384,1.8821,1.9607,1.9888,2.0105,2.0321,1.9819,1.9148,1.834,1.6698,0.0,0.0,0.0,0.0,0.0,0.0,0.0,0.0,0.0,0.0,0.0,0.0,0.0,0.0,0.0,0.0,0.0,0.0,0.0,0.0,0.0,0.0,0.0,0.0,0.0,0.0,0.0,0.0,0.0,0.0,0.0,0.0,0.0,0.0,0.0,0.0,0.0,0.0,0.0,0.0,0.0,0.0,0.0,0.0,0.0,0.0,0.0,0.0,0.0,0.0,0.0,0.0,0.0,0.0,2.1576,2.1969,2.2465,2.2701,2.2597,2.0766,1.9734,1.9304,0.0,0.0,0.0,0.0,0.0,0.0,0.0,0.0,0.0,0.0,0.0,0.0,0.0,0.0,0.0,0.0,0.0,0.0,0.0,0.0,0.0,0.0,0.0,0.0,0.0,1.7699,1.7761,0.0,0.0,0.0,0.0,0.0,0.0,0.0,0.0,0.0,0.0,0.0,0.0,1.6371,1.8298,1.9772,2.0361,2.0771,2.0948,2.0844,2.0387,1.9799,1.9107,1.7565,1.6202,0.0,0.0,0.0,0.0,0.0,0.0,0.0,0.0,0.0,0.0,0.0,0.0,0.0,0.0,0.0,0.0,0.0,0.0,0.0,0.0,0.0,0.0,0.0,0.0,0.0,0.0,0.0,0.0,0.0,0.0,0.0,0.0,1.4716,1.5494,0.0,0.0,0.0,0.0,0.0,0.0,0.0,0.0,0.0,0.0,0.0,0.0,0.0,0.0,2.2056,2.3063,2.3445,2.3205,2.3804,2.3966,2.3758,2.3836,2.3876,2.3889,2.4101,0.0,2.112,2.0582,0.0,0.0,0.0,0.0,0.0,0.0,0.0,0.0,0.0,0.0,0.0,0.0,0.0,0.0,0.0,0.0,0.0,0.0,0.0,0.0,0.0,0.0,2.0088,2.0117,2.022,2.0232,0.0,1.7217,1.4743,1.4555,0.0,0.0,0.0,0.0,0.0,0.0,0.0,0.0,1.7746,1.945,2.0924,2.1981,2.2138,2.1969,2.1446,2.1316,2.0819,1.9747,1.8545,1.7565,1.6885,1.506,0.0,0.0,0.0,0.0,0.0,0.0,0.0,0.0,0.0,0.0,0.0,0.0,0.0,0.0,0.0,0.0,0.0,0.0,0.0,0.0,0.0,0.0,0.0,0.0,0.0,0.0,0.0,0.0,0.0,1.464,1.6471,1.6738,1.7075,1.7136,0.0,0.0,0.0,0.0,0.0,0.0,0.0,0.0,0.0,2.1595,2.2419,2.296,2.3257,2.4884,2.5441,2.4939,2.6381,2.6884,2.6517,2.687,2.7013,2.704,2.7291,2.6438,2.4738,2.2871,2.1407,2.0252,0.0,0.0,0.0,0.0,0.0,1.9332,1.9796,0.0,0.0,0.0,0.0,0.0,0.0,0.0,0.0,0.0,0.0,0.0,0.0,0.0,0.0,2.1564,2.1655,2.1655,2.1655,2.0031,1.8232,0.0,1.6471,1.5674,1.4253,0.0,0.0,0.0,0.0,0.0,1.9103,2.0669,2.1852,2.2349,2.2401,2.2296,2.2034,2.1694,2.1159,2.036,1.9524,1.8769,1.8179,1.6584,1.5447,0.0,0.0,0.0,0.0,0.0,0.0,0.0,0.0,0.0,0.0,0.0,0.0,0.0,0.0,0.0,0.0,0.0,0.0,0.0,0.0,0.0,0.0,0.0,0.0,0.0,0.0,0.0,0.0,1.6508,1.8002,1.7848,1.8508,1.8676,0.0,0.0,0.0,0.0,0.0,0.0,2.1841,2.2665,2.3357,2.394,2.513,2.5577,2.522,2.7189,2.7771,2.7003,2.8732,2.9243,2.8638,2.9096,2.9292,2.9292,2.9292,2.8778,2.7755,2.5156,2.3602,2.2739,2.1721,2.125,2.1145,2.1289,2.159,2.2008,2.2623,2.2832,2.2791,2.2492,0.0,2.0492,1.9498,0.0,0.0,0.0,0.0,2.0681,2.2033,0.0,2.2544,2.3131,2.3263,2.3239,2.3082,2.2597,2.1589,0.0,1.9164,1.8459,1.6516,0.0,0.0,0.0,0.0,1.9461,2.0553,2.1808,2.2662,2.282,2.2833,2.2767,2.2622,2.2191,2.1642,2.0949,2.0348,1.976,1.9159,1.798,1.7118,1.6611,0.0,0.0,0.0,0.0,0.0,0.0,0.0,0.0,0.0,0.0,0.0,0.0,0.0,0.0,0.0,0.0,0.0,0.0,0.0,0.0,0.0,0.0,0.0,0.0,0.0,0.0,0.0,0.0,0.0,1.8512,1.9547,0.0,0.0,0.0,0.0,2.1703,2.2463,2.3807,2.5979,2.5741,2.6173,2.7598,2.8612,2.9285,2.9584,3.1142,3.1333,3.0188,3.0787,3.0453,2.9253,2.9279,2.9292,2.9292,2.9292,2.9266,2.907,2.7265,2.5524,2.3954,2.3327,2.2752,2.2374,2.2883,2.3092,2.3196,2.381,2.4006,2.4098,2.4652,2.4022,2.2922,2.2362,2.176,0.0,0.0,2.2596,2.3287,2.4506,2.4822,2.4951,2.5495,2.5639,2.5482,2.4979,2.4401,2.3458,0.0,2.0936,2.0262,1.9261,0.0,1.9473,1.9173,1.9956,2.1001,2.2139,2.2805,2.3379,2.3954,2.4006,2.3784,2.3209,2.3131,2.2635,2.1525,2.0949,2.0373,1.9786,1.9147,1.8285,1.7186,1.6535,0.0,0.0,0.0,0.0,0.0,0.0,0.0,0.0,0.0,0.0,0.0,0.0,0.0,0.0,0.0,0.0,0.0,0.0,0.0,0.0,0.0,0.0,0.0,0.0,0.0,0.0,0.0,0.0,2.1605,2.3207,0.0,0.0,2.3413,2.3997,2.477,2.5839,2.6979,2.8207,2.9245,2.9798,2.9771,3.0831,3.1176,3.0737,3.2129,3.2259,3.1116,3.183,3.1544,3.0391,3.0391,3.0391,3.0391,3.0391,3.0163,2.9766,2.9139,2.8098,2.6804,2.62,2.5845,2.5717,2.5913,2.62,2.6585,2.6778,2.6605,2.6148,2.5278,2.4717,2.4258,2.3668,2.3602,2.3787,2.4011,2.4467,2.4973,2.5391,2.5511,2.5563,2.5756,2.5809,2.5756,2.5563,2.5338,2.5012,2.4385,2.2937,2.1551,2.0836,2.0808,2.0847,2.0732,2.1329,2.2074,2.2832,2.3418,2.3862,2.4084,2.4098,2.4006,2.3797,2.312,2.2518,2.2099,2.121,2.0595,2.0386,1.9799,1.9107,1.831,1.7382,1.5853,0.0,0.0,0.0,0.0,0.0,0.0,0.0,0.0,0.0,0.0,0.0,0.0,0.0,0.0,0.0,0.0,0.0,0.0,0.0,0.0,0.0,0.0,0.0,0.0,0.0,0.0,2.3282,2.3722,2.5693,2.6778,2.6197,2.6527,2.719,2.8184,2.9074,3.0011,3.1006,3.2079,3.2414,3.1837,3.2673,3.2833,3.219,3.3301,3.337,3.2385,3.3031,3.2783,3.1731,3.1731,3.1731,3.1726,3.1468,3.1146,3.0765,3.0503,2.9967,2.9201,2.8408,2.8107,2.8107,2.8107,2.836,2.8704,2.8704,2.8438,2.7911,2.6808,2.6313,2.6062,2.5667,2.5827,2.6156,2.6156,2.6402,2.6687,2.6687,2.6527,2.6367,2.6367,2.6367,2.6315,2.6135,2.6112,2.6031,2.5848,2.4426,2.3095,2.2492,2.2204,2.2073,2.2073,2.24,2.2871,2.3431,2.3862,2.4098,2.4098,2.4098,2.4098,2.4098,2.321,2.2597,2.2413,2.1328,2.0608,2.0399,1.9824,1.9213,1.8649,1.7303,1.5967,1.4594,0.0,0.0,0.0,0.0,0.0,0.0,0.0,0.0,0.0,0.0,0.0,0.0,0.0,0.0,0.0,0.0,0.0,0.0,0.0,0.0,0.0,0.0,0.0,2.0539,2.3359,2.5212,2.4764,2.6867,2.8162,2.7671,2.8748,3.0165,3.1863,3.2109,3.2886,3.4445,3.412,3.3876,3.3857,3.4237,3.4371,3.4155,3.4857,3.4841,3.4136,3.4428,3.4092,3.3196,3.3196,3.3196,3.3161,3.2434,3.211,3.2051,3.1334,3.1024,3.0901,2.9776,2.9344,2.9344,2.9344,2.9344,2.9344,2.9331,2.9318,2.9318,2.9305,2.89,2.8429,2.8429,2.8429,2.8429,2.8429,2.8429,2.8429,2.8429,2.7994,2.7555,2.7555,2.7529,2.7389,2.686,2.6745,2.6559,2.5965,2.5419,2.4859,2.4254,2.3667,2.3288,2.3288,2.3288,0.0,2.4084,2.415,2.415,2.4137,2.4137,2.4124,2.4098,2.3536,2.2948,2.2426,2.1315,2.0412,1.9852,1.9251,1.8664,1.814,1.6428,1.5248,1.4633,0.0,0.0,0.0,0.0,0.0,0.0,0.0,0.0,0.0,0.0,0.0,0.0,0.0,0.0,0.0,0.0,0.0,0.0,0.0,0.0,0.0,0.0,2.3016,2.3025,2.5436,2.7757,2.9325,3.096,3.2121,3.2513,3.2865,3.3276,3.3759,3.427,3.4759,3.5199,3.5554,3.5581,3.5194,3.5512,3.5555,3.5268,3.5462,3.5268,3.4677,3.4478,3.3973,3.3196,3.3196,3.3196,3.3178,3.2985,3.2595,3.2074,3.1882,3.1487,3.0979,3.0652,3.0534,3.0534,3.0534,3.0534,3.0482,3.0027,2.9884,2.9818,2.9436,2.9188,2.9057,2.9057,2.9057,2.9057,2.9057,2.9057,2.9057,2.9057,2.8939,2.8804,2.8804,2.8464,2.8115,2.7958,2.7589,2.7232,2.7059,2.6595,2.6036,2.5443,2.5195,2.509,2.509,0.0,0.0,2.5312,2.5323,2.5182,2.4794,2.4741,2.4584,2.4137,2.3198,2.2558,0.0,2.091,2.0164,2.0438,1.9865,1.929,1.869,1.7395,1.6232,0.0,0.0,0.0,0.0,0.0,0.0,0.0,0.0,0.0,0.0,0.0,0.0,0.0,0.0,0.0,0.0,0.0,0.0,0.0,0.0,0.0,0.0,2.4393,2.6273,2.7002,2.8406,3.0077,3.1999,3.3212,3.4136,3.4859,3.4921,3.5044,3.5306,3.5706,3.5922,3.5922,3.6292,3.632,3.5927,3.6038,3.6022,3.5831,3.5686,3.5493,3.5236,3.494,3.4574,3.417,3.417,3.417,0.0,3.3817,3.3408,3.3006,3.2702,3.2304,0.0,0.0,0.0,0.0,0.0,3.1005,3.0953,3.0607,3.0471,3.0438,3.0116,3.0011,3.0011,3.0011,3.0011,3.0011,3.0011,2.9841,2.964,2.964,2.9475,2.9292,2.9292,2.9031,2.8782,2.8782,2.849,2.819,2.7941,0.0,0.0,2.6618,2.6122,2.5809,2.5809,2.5809,2.5809,0.0,2.5809,2.5678,2.5382,2.5343,2.5108,2.4517,2.3643,0.0,0.0,0.0,2.0111,1.9954,1.9603,0.0,0.0,0.0,0.0,0.0,0.0,0.0,0.0,1.5811,1.5633,0.0,0.0,0.0,0.0,0.0,0.0,0.0,0.0,0.0,0.0,0.0,0.0,0.0,0.0,0.0,0.0,2.6995,2.9443,3.1472,3.1811,3.2304,3.3506,3.4213,3.489,3.5552,3.5614,3.586,3.6461,3.6507,3.6507,3.6507,0.0,0.0,0.0,0.0,3.6037,3.6053,3.5701,3.5588,3.5736,3.5572,3.5504,3.5504,3.5504,3.5504,3.5455,3.4758,3.438,3.4245,3.3596,3.328,3.3055,3.1671,3.1123,3.1104,3.1024,3.1005,0.0,0.0,0.0,0.0,3.1005,3.1005,3.1005,3.1005,3.1005,3.1005,3.1005,3.062,3.0192,3.0192,2.9849,2.9488,2.9488,2.9436,2.9397,2.9397,2.9344,2.9135,2.8599,2.8494,2.8338,2.7807,2.6746,2.5991,2.5991,2.5991,2.5991,2.5991,2.5991,2.5978,2.5913,0.0,0.0,2.5149,2.4543,2.3733,2.265,2.1524,2.0373,1.9239,1.9264,1.9264,1.9187,1.9721,1.9957,1.9904,2.0569,2.0895,2.083,1.8385,1.7776,0.0,0.0,0.0,0.0,0.0,0.0,0.0,0.0,0.0,0.0,0.0,0.0,0.0,0.0,0.0,2.7261,2.9412,3.1534,3.3611,3.4367,3.4798,3.506,3.5214,3.5568,3.6245,3.6322,3.6369,3.6492,3.6507,3.6507,3.6507,3.6507,0.0,3.643,3.6258,3.6227,3.6398,3.591,3.5751,3.5941,0.0,0.0,3.5504,3.5504,3.5504,3.5488,3.5343,3.4905,3.4295,3.416,3.3751,3.3108,3.2232,3.1887,3.1828,3.1222,3.1005,3.1005,3.1005,3.1005,3.1005,3.1005,3.1005,3.1005,3.1005,3.1005,0.0,3.1005,3.0927,3.083,3.083,3.0757,3.0678,3.0678,3.0307,2.9949,2.9949,2.9601,2.9266,2.9148,2.9122,2.9083,2.8978,2.7951,2.7163,2.7163,2.7163,2.7163,2.7163,2.7163,2.701,2.6572,2.6533,2.6298,2.5691,2.5147,2.4519,2.3825,2.2701,2.1747,2.1028,2.1459,2.1485,2.1002,2.1107,2.0949,2.0529,2.1564,2.2074,2.2035,2.0611,2.0051,0.0,0.0,0.0,0.0,0.0,0.0,0.0,0.0,0.0,0.0,0.0,2.2311,2.4045,0.0,2.7907,2.9612,3.1611,3.3428,3.4813,3.5583,3.5999,3.5999,3.5999,3.6138,3.6476,3.6507,3.6507,3.6507,3.6507,3.6507,3.6507,3.6507,3.6507,3.6507,3.6289,3.6258,3.6352,3.6022,3.5894,3.6005,3.5718,3.5589,3.5589,3.5522,3.5504,3.5504,3.5504,3.5262,3.4905,3.4905,3.4689,3.4271,3.3509,3.2985,3.2559,3.1809,3.1547,3.1505,3.1123,3.1005,3.1005,3.1005,3.1005,3.1005,3.1005,3.1005,3.1005,3.1005,3.1005,3.1005,3.1005,3.1005,3.1005,3.1005,3.0764,3.0537,3.0537,3.0333,3.0064,2.9758,2.9706,2.9614,2.9344,2.8791,2.8307,2.8007,2.7689,2.749,2.749,2.749,2.7402,2.7131,2.7105,2.687,2.6295,2.5474,2.4874,2.4571,2.3719,2.3118,2.2818,2.3093,2.3106,2.2805,2.3093,2.312,2.2847,2.3695,2.4101,2.4086,2.3525,2.3121,0.0,0.0,0.0,0.0,0.0,0.0,0.0,0.0,2.029,2.2778,2.3933,2.5041,2.6842,2.8719,3.0428,3.178,3.3519,3.4936,3.5599,3.6168,3.6507,3.6507,3.6507,3.6507,3.6507,3.6507,3.6507,3.6507,3.6507,3.6507,3.6507,3.6507,3.6507,3.6507,3.6352,3.6258,3.6258,3.6221,3.6187,3.6187,3.6084,3.5972,3.585,3.5734,3.5624,3.5519,3.5639,3.5759,3.5878,3.5878,3.5878,3.5798,3.5159,3.4553,3.3884,3.2731,3.2308,3.2232,3.1634,3.1334,3.1241,3.1389,3.1334,3.1203,3.1203,3.1203,3.1179,3.1043,3.1005,3.1005,3.1005,3.1005,3.1005,3.1005,3.1005,3.1005,3.1005,3.1005,3.0856,3.0367,3.0275,3.0132,2.9711,2.9541,2.9266,2.8664,2.8164,2.7859,2.7859,2.7859,2.7807,2.7689,2.7676,2.7441,2.6899,2.5921,2.5332,2.5332,2.4766,2.4437,2.4437,2.4437,2.4437,2.4437,2.4911,2.5162,2.516,2.5707,2.5965,2.5978,2.6083,2.5769,2.147,1.9578,1.8468,1.9578,1.9895,2.0749,0.0,0.0,2.4953,2.6503,2.7842,2.8969,2.9799,3.1107,3.2519,3.3935,3.4859,3.5614,3.6276,3.6461,3.6507,3.6507,3.6507,3.6507,3.6507,3.6507,3.6507,3.6507,3.6507,3.6507,3.6507,3.6507,3.6507,3.6507,3.6476,3.6476,3.6476,3.6757,3.6883,3.6898,3.7111,3.6929,3.6405,3.6389,3.6058,3.5518,3.6118,3.6686,3.7195,3.7195,3.7195,3.7178,3.7095,3.7009,3.6606,3.4025,3.3073,3.3069,3.2981,3.2537,3.2087,3.2737,3.2506,3.1978,3.1978,3.1978,3.1846,3.1179,3.1005,3.1005,3.1005,3.1005,3.1005,3.1005,3.1005,3.1005,3.1005,3.1005,3.0979,3.0914,3.0895,3.0869,3.0822,3.0372,2.9831,2.9279,2.9135,2.9109,2.9109,2.9109,2.89,2.8364,2.8298,2.8059,2.7467,2.686,2.651,2.651,2.5942,2.5597,2.5597,2.5597,2.5597,2.5597,2.5678,2.5717,2.5717,2.6311,2.6598,2.6598,2.7089,2.6749,2.3151,2.2201,0.0,0.0,2.2675,2.423,2.561,2.6241,2.6907,2.8276,2.9627,3.0766,3.1443,3.2998,3.4398,0.0,3.5645,3.6184,3.6445,3.6507,3.6507,3.6507,3.6507,3.6507,3.6507,3.6507,3.6507,3.6507,3.6507,3.6507,3.6507,3.6507,3.6507,3.6507,3.6876,3.7076,3.7076,3.7608,3.7879,3.7879,3.7907,3.7723,3.7364,3.7248,3.6982,3.6626,3.6911,3.7165,3.7387,3.7387,3.7387,3.7387,3.7387,3.7387,3.721,3.5595,3.5006,3.4939,3.4497,3.3912,3.33,3.3183,3.2663,3.2015,3.1584,3.1468,3.1394,3.1099,3.1005,3.1005,3.1005,3.1005,3.1005,3.1005,3.1005,3.1005,3.1005,3.1005,3.1005,3.1005,3.1005,3.1005,3.1005,3.079,3.0555,3.0325,2.9724,2.9292,2.9292,2.9292,2.9201,2.8952,2.8913,2.8821,2.8569,2.8351,2.805,2.771,2.7445,2.7157,2.6798,2.6785,2.6785,2.6785,2.6785,2.6958,2.7314,2.7566,2.7867,2.8207,2.8438,2.8294,2.3891,0.0,0.0,2.3527,2.5205,2.7007,2.7192,2.7888,2.8827,2.9997,3.0997,3.1996,3.3058,3.4336,3.5352,3.5722,3.6184,3.6507,3.6507,3.6507,3.643,3.6261,3.623,3.623,3.623,3.6399,3.6507,3.6507,3.6507,3.6507,3.6507,3.6692,3.6769,3.6769,3.743,3.7784,3.7784,3.8397,3.8687,3.8702,3.8684,3.8515,3.8179,3.7797,3.7644,3.7689,3.7689,3.7776,3.7941,3.7941,3.7941,3.7941,3.7941,3.7941,3.7888,3.7364,3.6916,3.6523,3.5996,3.5353,3.4718,3.4389,3.3828,3.3164,3.2608,3.2455,3.2336,3.1755,3.1585,3.1489,3.1101,3.1005,3.1005,3.1005,3.1005,3.1005,3.1005,3.1005,3.1005,3.1005,3.1005,3.1005,3.1005,3.1005,3.1005,3.1005,3.0299,2.9763,2.9763,2.9614,2.9523,2.9523,2.9397,2.9292,2.9292,2.9292,2.9109,2.8678,2.8651,2.8438,2.8003,2.799,2.799,2.799,2.799,2.8216,2.8651,2.8651,2.8874,2.9292,2.9292,2.9384,0.0,0.0,2.3794,2.5775,2.733,2.8507,2.9169,3.032,3.1472,3.2167,3.235,3.2997,3.5029,3.4936,3.4967,3.6261,3.6492,3.6507,3.6507,3.6507,3.6261,3.5614,3.5522,3.5522,0.0,3.6122,3.6507,3.6507,3.6507,3.6507,3.6507,3.7107,3.7477,3.7477,3.8107,3.8461,3.8461,3.8939,3.9176,3.9191,3.9498,3.9307,3.8656,3.7805,3.7764,3.8362,3.8362,3.8736,3.9346,3.9346,3.9346,3.9346,3.9346,3.9346,3.9346,3.9295,3.8474,3.7353,3.7336,3.6856,3.6353,3.7033,3.6775,3.6181,3.6146,3.6146,3.5712,3.3615,3.3038,3.273,3.1343,3.1005,3.1005,3.1005,3.1005,3.1005,3.1005,3.1005,3.1005,3.1005,3.1005,3.1005,3.1005,3.1005,3.1005,3.1005,3.0979,3.0953,3.0953,3.0432,3.0074,3.0074,2.9614,2.9292,2.9292,2.9292,2.9292,2.9266,2.9266,2.9266,2.924,2.924,2.924,2.924,2.924,2.9253,2.9266,2.9266,2.9279,2.9292,2.9292,2.9575,2.4899,0.0,2.6303,2.7442,2.9058,3.0579,3.1243,3.2074,3.2782,3.3013,3.3458,3.3859,3.4074,3.4321,3.4797,3.5691,3.5845,3.5999,3.6446,3.6507,3.643,3.6199,3.6168,0.0,0.0,0.0,0.0,3.6476,3.6507,3.6507,3.6507,3.7138,3.7507,3.7507,3.8584,3.9153,3.9153,3.9762,4.005,4.005,4.0102,3.9982,3.9751,3.9332,3.9242,3.9471,3.9471,3.9589,3.9801,3.9801,3.9714,3.9607,3.9607,3.9517,3.9406,3.9406,3.9107,3.8733,3.8733,3.8278,3.7662,3.7417,3.6856,3.6222,3.5726,3.5581,3.5429,3.4705,3.4501,3.4242,3.319,3.2922,3.2695,3.1742,3.1529,3.1425,3.1065,3.1005,3.1005,3.1005,3.1005,3.1005,3.1005,3.1005,3.1005,3.1005,3.1005,3.1005,3.1005,3.0817,3.0699,3.0699,3.0529,3.043,3.043,3.043,3.0255,2.9857,2.9831,2.968,2.9305,2.9292,2.9292,2.9292,2.9292,2.9488,2.9831,2.9831,3.0045,3.043,3.043,3.0516,2.6212,2.7461,2.8692,2.9597,3.118,3.2612,3.3043,3.3275,3.3398,3.3398,3.3397,3.332,3.309,3.3029,3.3505,3.4906,3.4921,3.5168,3.6322,3.6507,3.6415,3.6168,3.6138,0.0,0.0,0.0,0.0,3.6461,3.6507,3.6507,3.6507,3.7353,3.7861,3.7861,3.9153,3.9861,3.9861,4.0274,4.0487,4.0436,4.0331,4.0259,4.0189,4.0049,3.996,3.9889,3.9889,3.9854,3.9783,3.9783,3.9711,3.9589,3.9589,3.9517,3.9406,3.9406,3.9406,3.9406,3.9406,3.9107,3.868,3.8199,3.7775,3.7315,3.6834,3.6707,3.6594,3.609,3.5945,3.5705,3.463,3.435,3.4135,3.3233,3.3006,3.2858,3.2267,3.2132,3.1986,3.149,3.1394,3.1315,3.1061,3.1005,3.1005,3.1005,3.1005,3.1005,3.1005,3.1005,3.1005,3.1005,3.1005,3.1005,3.1005,3.1005,3.083,3.0445,3.0419,3.0281,2.992,2.9907,2.9907,2.9907,2.9907,3.0072,3.0419,3.0419,3.062,3.1005,3.1005,3.1005,2.7349,2.9027,3.083,3.2167,3.3505,3.4505,3.4505,3.3936,3.3383,3.3306,3.2273,3.1503,0.0,0.0,3.1261,3.3905,3.3843,3.4168,3.6199,3.6507,3.6261,0.0,0.0,0.0,0.0,0.0,0.0,3.6461,0.0,3.6507,3.6538,3.78,3.8523,3.8538,3.9814,4.0489,4.0489,4.0489,4.0436,4.0296,4.0296,4.0207,4.0031,4.0031,3.9925,3.9735,3.9735,3.9643,3.946,3.946,3.9445,3.9442,3.9442,3.9409,3.9424,3.9424,3.9406,3.9406,3.9409,3.9406,3.9406,3.9406,3.9406,3.9406,3.9406,3.9406,3.9112,3.778,3.7405,3.7095,3.5713,3.5355,3.5337,3.5257,3.5257,3.5056,3.4395,3.4255,3.387,3.2513,3.2196,3.1909,3.1123,3.1005,3.1005,3.1005,3.1005,3.1005,3.1005,3.1005,3.1005,3.1005,3.1005,3.1005,3.1005,3.1005,3.1005,3.1005,3.1005,3.1005,3.1005,3.1005,3.1005,3.1005,3.1005,3.1005,3.1005,3.1005,3.1005,3.1005,3.1005,3.1005,2.9962,3.1224,3.2213,3.3612,3.4228,3.4505,3.4505,3.3936,3.3121,3.2119,3.1243,3.0245,0.0,0.0,0.0,3.1996,3.332,0.0,3.6276,3.6507,0.0,3.6276,0.0,3.6261,3.6261,3.6261,0.0,0.0,3.6507,3.6723,3.7215,3.8046,3.8722,3.923,4.0061,4.0489,4.0489,4.0489,4.0472,4.0453,4.0453,4.0436,4.0366,4.0366,4.0333,4.0298,4.0298,4.0264,4.0211,4.0211,4.0156,4.0066,3.9907,3.9765,3.961,3.961,3.9535,3.9409,3.9571,3.9535,3.9406,3.9406,3.9406,3.9406,3.9406,3.9406,3.9325,3.8966,3.8852,3.8644,3.7682,3.7434,3.7174,3.6109,3.5864,3.5695,3.5084,3.4957,3.4846,3.449,3.3551,3.2459,3.1221,3.1005,3.1005,3.1005,3.1005,3.1005,3.1005,3.1005,3.1005,3.1005,3.1005,3.1005,3.1005,3.1005,3.1005,3.1005,3.1005,3.1005,3.1005,3.1005,3.1005,3.1005,3.1005,3.1005,3.1005,3.1005,3.1005,3.1005,3.1005,3.1005,3.1508,3.2865,3.3951,3.4736,3.4951,3.4767,3.4167,3.3243,3.1967,3.004,2.9104,0.0,0.0,0.0,0.0,0.0,0.0,0.0,3.623,3.6507,3.6507,0.0,3.6507,0.0,3.6507,3.6507,3.6507,0.0,3.6769,3.7092,3.7477,3.8399,3.9107,3.9491,4.0153,4.0489,4.0489,4.0489,4.0489,4.0489,4.0489,4.0489,4.0489,4.0489,4.047,4.0418,0.0,4.0366,4.0279,4.0279,4.0242,4.0154,4.0031,3.9925,3.9866,4.0172,4.0188,4.0176,4.0556,4.0643,4.0407,3.964,3.9406,3.9406,3.9406,3.9406,3.9406,3.9406,3.9406,3.9301,3.8848,3.8738,3.8524,3.7738,3.7558,3.737,3.674,3.6613,3.6418,3.5787,3.4787,3.3559,3.2166,3.1923,3.1713,3.1101,3.1005,3.1005,3.1005,3.1005,3.1005,3.1005,3.1005,3.1005,3.1005,3.1005,3.1005,3.1005,3.1005,3.1005,3.1005,3.1005,3.1005,3.1005,3.1005,3.1005,3.1005,3.1005,3.1005,3.1005,3.1005,3.1005,3.2514,3.4059,3.5491,3.5491,3.5429,3.4983,3.3475,3.2042,3.0256,2.7657,0.0,2.559,2.4287,2.5318,2.7242,2.9861,0.0,3.346,3.6138,3.6507,3.6507,3.6507,3.6507,3.6507,3.6507,3.6507,3.6553,3.663,3.7246,3.7631,3.7631,3.8814,3.9537,3.963,4.0214,4.0489,4.0489,4.0489,4.0489,4.0489,4.0489,4.0489,4.0489,4.0489,4.0436,4.0329,0.0,0.0,4.0066,4.0066,4.0066,4.0066,4.0064,4.0092,4.0244,4.0821,4.1094,4.121,4.1824,4.2036,4.1746,4.0217,3.9715,3.9682,3.9574,3.9586,3.9631,3.9451,3.9466,3.9511,3.9421,3.9406,3.9406,3.9406,3.9406,3.9242,3.8661,3.8527,3.8106,3.6715,3.5927,3.502,3.3624,3.3286,3.2779,3.147,3.1166,3.1065,3.1018,3.1005,3.1005,3.1005,3.1005,3.1005,3.1005,3.1005,3.1005,3.1005,3.1005,3.1005,3.1005,3.1005,3.1005,3.1005,3.1005,3.1005,3.1005,3.1005,3.1005,3.1005,3.1005,3.1005,3.3796,3.4798,3.5491,3.5491,3.5075,3.4166,3.2196,3.0274,0.0,0.0,0.0,2.3589,2.2788,2.4697,2.7099,2.923,0.0,0.0,0.0,0.0,3.6507,0.0,0.0,0.0,0.0,0.0,0.0,0.0,0.0,0.0,3.8338,3.9076,3.9753,4.0305,4.0428,4.0489,4.0489,4.0489,4.0489,4.0489,4.0489,4.0489,4.0489,4.0489,4.0489,4.047,0.0,0.0,4.0403,4.0403,4.0403,4.0401,4.0279,4.0595,4.1082,4.1204,4.1492,4.1869,4.2141,4.2132,4.1917,4.1455,4.1305,4.1163,4.0452,4.0606,4.0816,3.9705,3.9795,4.0113,3.9541,3.9406,3.9406,3.9406,3.9406,3.9376,3.9257,3.9227,3.882,3.739,3.7008,3.6496,3.5085,3.4249,3.3531,3.283,3.2118,3.1503,3.1071,3.1005,3.1005,3.1005,3.1005,3.1005,3.1005,3.1005,3.1005,3.1005,3.1005,3.1005,3.1005,3.1005,3.1005,3.1005,3.1005,3.1005,3.1005,3.1005,3.1005,3.1005,3.1005,3.1005,3.4212,3.5245,3.5937,3.5583,3.4706,3.3212,3.0458,0.0,0.0,0.0,0.0,2.2049,2.1381,2.3481,0.0,0.0,0.0,0.0,0.0,0.0,0.0,0.0,0.0,0.0,0.0,0.0,0.0,0.0,0.0,0.0,3.8999,3.9661,4.0168,4.0489,4.0489,4.0489,4.0489,4.0489,4.0489,4.0489,4.0489,4.0489,4.0489,4.0489,4.0489,4.0489,4.0489,0.0,4.0489,4.0489,4.0737,4.1076,4.1006,4.1385,4.2014,4.237,4.2652,4.29,4.3346,4.3431,4.33,4.2997,4.2342,4.1629,4.1201,4.1224,4.1268,4.0621,4.0666,4.0846,4.0516,4.0187,3.9915,3.9915,3.9645,3.9406,3.9406,3.9406,3.9211,3.8526,3.8398,3.7941,3.6529,3.5955,3.5321,3.433,3.3838,3.3481,3.3232,3.2881,3.2233,3.1125,3.1005,3.1005,3.1005,3.1005,3.1005,3.1005,3.1005,3.1005,3.1005,3.1005,3.1005,3.1005,3.1005,3.1005,3.1005,3.1005,3.1005,3.1005,3.1005,3.1005,3.4274,3.5368,3.6122,3.5445,3.4228,3.2305,2.895,2.6984,0.0,0.0,2.118,2.0974,2.0588,0.0,2.4425,0.0,0.0,0.0,0.0,0.0,0.0,0.0,0.0,0.0,0.0,0.0,0.0,0.0,0.0,0.0,3.9691,4.0197,4.0489,4.0489,4.0489,4.0489,4.0489,4.0489,4.0489,4.0489,4.0489,4.0489,4.0489,4.0489,4.0489,4.0489,4.0489,0.0,0.0,4.0676,4.1076,4.1617,4.1755,4.2217,4.2879,4.3405,4.3701,4.3901,4.4406,4.4591,4.4549,4.4224,4.3259,4.2138,4.1927,4.1836,4.1762,4.1478,4.1493,4.1568,4.1433,4.1014,4.0576,4.0427,3.9921,3.9445,3.9406,3.9427,3.9445,3.9406,3.9406,3.9046,3.7941,3.7602,3.7058,3.5829,3.5491,3.5338,3.5215,3.4741,3.3775,3.2081,3.1633,3.1482,3.1482,3.1334,3.1241,3.1241,3.1086,3.1005,3.1005,3.1005,3.1005,3.1005,3.1005,3.1005,3.1005,3.1005,3.1005,3.1005,3.1005,3.1005,3.4135,3.5029,3.5429,3.4767,3.3535,3.1613,2.8258,0.0,0.0,2.1735,2.082,2.0558,2.1103,0.0,0.0,0.0,0.0,2.9661,0.0,0.0,0.0,0.0,0.0,0.0,0.0,0.0,0.0,0.0,0.0,0.0,0.0,4.0476,4.0489,4.0489,4.0489,4.0489,4.0489,4.0489,4.0489,4.0489,4.0489,4.0489,4.0489,4.0489,4.0489,4.0489,0.0,0.0,0.0,4.1214,4.154,4.1663,4.2279,4.291,4.3531,4.3578,4.3994,4.4514,4.4575,4.4591,4.4591,4.4568,4.419,4.3607,4.2621,4.2705,4.2891,4.1733,4.1837,4.2171,4.1553,4.1343,4.1149,4.0546,4.0034,3.961,3.9442,3.9535,3.9625,3.9442,3.9406,3.9358,3.9226,3.8598,3.7883,3.7215,3.6488,3.5808,3.5272,3.5159,3.5033,3.4844,3.3727,3.2999,3.2999,3.2394,3.1996,3.1996,3.1371,3.1005,3.1005,3.1005,3.1005,3.1005,3.1005,3.1005,3.1005,3.1005,3.1005,3.1005,3.1005,3.1005,3.2859,3.4044,3.4721,3.4013,3.2812,3.0918,2.7561,0.0,2.3609,2.1196,2.048,2.0388,2.065,2.1242,0.0,0.0,0.0,0.0,0.0,0.0,0.0,0.0,0.0,0.0,0.0,0.0,0.0,0.0,0.0,0.0,0.0,4.0489,4.0489,4.0489,4.0489,4.0489,4.0489,4.0489,4.0489,4.0489,4.0489,4.0489,4.0489,4.0489,4.0489,4.0489,0.0,0.0,0.0,4.1309,4.1848,4.2279,4.2925,4.3605,4.419,4.419,4.436,4.4591,4.4591,4.4591,4.4587,4.4473,4.4301,4.4082,4.3533,4.3445,4.3397,4.272,4.2746,4.2915,4.2816,4.2571,4.2036,4.0707,4.044,4.032,3.9715,3.9732,3.9854,3.9783,3.9765,3.9765,3.9765,3.9499,3.9196,3.8964,3.8544,3.8172,3.7943,3.7453,3.7129,3.7129,3.5497,3.4395,3.4395,3.3367,3.2699,3.2699,3.1644,3.1005,3.1005,3.1005,3.1005,3.1005,3.1005,3.1005,3.1005,3.1005,3.1005,3.1005,3.1005,3.1169,3.1703,3.312,3.4044,3.3521,3.2244,3.0258,0.0,2.5149,2.3302,2.082,2.0296,2.0296,2.0296,2.0696,2.1442,0.0,0.0,2.4564,2.8184,0.0,0.0,0.0,0.0,0.0,0.0,0.0,0.0,0.0,0.0,0.0,0.0,4.0489,4.0489,4.0489,4.0489,4.0489,4.0489,4.0489,4.0489,4.0489,4.0489,4.0489,4.0489,4.0489,4.0489,4.0489,0.0,0.0,0.0,4.1507,4.2171,4.2694,4.3559,4.4175,4.4591,4.4591,4.4591,4.4591,4.4591,4.4591,4.4587,4.4435,4.4396,4.4358,4.4147,4.3949,4.3754,4.3562,4.3522,4.3542,4.3734,4.3406,4.2686,4.1468,4.1276,4.1201,4.0535,4.0385,4.037,4.0317,4.0147,4.0011,4.0011,4.0011,4.0011,4.0011,3.9889,3.9785,3.9785,3.9239,3.8868,3.8868,3.7483,3.6345,3.5899,3.4747,3.4052,3.4052,3.2898,3.2235,3.2235,3.2056,3.1944,3.1944,3.1543,3.1334,3.1334,3.1524,3.1617,3.1617,3.1776,3.2061,3.0896,3.2396,3.3413,3.3398,3.1892,2.9679,0.0,2.4753,2.2742,2.0712,2.0296,2.0296,2.0296,2.0304,2.0758,2.208,0.0,0.0,2.8815,0.0,0.0,0.0,0.0,0.0,0.0,0.0,0.0,0.0,0.0,0.0,0.0,4.0489,4.0489,4.0489,4.0489,4.0489,4.0489,4.0489,4.0489,4.0489,4.0489,4.0489,4.0489,4.0489,4.0489,0.0,0.0,0.0,0.0,4.1999,4.2602,4.274,4.4067,4.4591,4.4591,4.4591,4.4591,4.4591,4.4591,4.4591,4.4591,4.4591,4.4591,4.4553,4.4358,4.4147,4.4007,4.3988,4.3988,4.3988,4.4007,4.3506,4.3005,4.2971,4.2623,4.2227,4.2024,4.1617,4.1234,4.1018,4.0451,4.0011,4.0011,4.0011,4.0011,4.0011,4.0011,4.0011,4.0011,3.9996,3.9978,3.9978,3.9788,3.9036,3.7507,3.6681,3.6275,3.6275,3.5567,3.5169,3.5169,3.4522,3.4162,3.4162,3.279,3.2092,3.2092,3.2753,3.3071,3.3098,3.3604,3.3876,2.7103,2.8242,2.9181,2.8731,2.8146,2.7072,2.4769,2.3763,2.2726,2.0712,2.0296,2.0296,2.0296,2.0296,2.1051,2.3302,2.383,0.0,0.0,0.0,0.0,0.0,0.0,0.0,0.0,0.0,0.0,0.0,0.0,0.0,0.0,4.0489,4.0489,4.0489,4.0489,4.0489,4.0489,4.0489,4.0489,4.0489,4.0489,4.0489,4.0489,4.0489,0.0,0.0,0.0,0.0,0.0,4.1507,4.2186,4.2694,4.3575,4.419,4.4591,4.4591,4.4591,4.4591,4.4591,4.4591,4.4591,4.4591,4.4591,4.4587,4.4515,4.4358,4.4166,4.4046,4.4104,4.4166,4.4046,4.4052,4.391,4.3168,4.3101,4.2996,4.2349,4.2199,4.217,4.2116,4.1561,4.1086,4.1086,4.067,4.0349,4.0349,4.0261,4.0207,4.0207,4.0099,4.0011,4.0011,3.9943,3.9655,3.9023,3.775,3.6983,3.6983,3.5864,3.5201,3.5201,3.4999,3.4868,3.4868,3.4448,3.4208,3.4208,3.4436,3.4534,3.4548,3.5138,3.5398,2.4817,2.5922,2.6876,2.6472,2.598,2.5195,2.364,2.2902,2.212,2.0604,2.0296,2.0296,2.0296,2.0296,2.0927,2.2865,2.3379,0.0,0.0,0.0,0.0,0.0,0.0,0.0,0.0,0.0,0.0,0.0,0.0,0.0,0.0,0.0,4.0489,4.0489,4.0489,4.0489,4.0489,4.0489,4.0489,4.0489,4.0489,4.0489,4.0489,4.0489,0.0,0.0,0.0,0.0,0.0,4.1309,4.2001,4.2679,4.3344,4.4006,4.4591,4.4591,4.4591,4.4591,4.4591,4.4591,4.4591,4.4591,4.4591,4.4591,4.4591,4.4511,4.4396,4.4262,4.432,4.4377,4.4262,4.4416,4.4441,4.3762,4.3806,4.3833,4.3288,4.3067,4.2989,4.2989,4.2432,4.1909,4.1632,4.1232,4.0814,4.0536,4.0436,4.0366,4.0366,4.0261,4.0189,4.0189,4.0137,4.0066,3.9945,3.8952,3.8286,3.8199,3.7372,3.6863,3.6805,3.6541,3.6396,3.6396,3.5895,3.5617,3.5617,3.5878,3.6121,3.6345,3.6721,3.6888,0.0,2.4964,2.5938,2.5892,2.4969,2.3917,2.324,2.2157,0.0,2.0434,2.0296,2.0335,2.0419,2.0357,2.0604,2.1504,0.0,0.0,0.0,0.0,0.0,0.0,0.0,0.0,0.0,0.0,0.0,0.0,0.0,0.0,0.0,0.0,4.0489,4.0489,4.0489,4.0489,4.0489,4.0489,4.0489,4.0489,4.0489,4.0489,4.0489,4.0489,0.0,0.0,0.0,0.0,0.0,4.123,4.1925,4.2602,4.3267,4.3929,4.4529,4.4575,4.4591,4.4591,4.4591,4.4591,4.4591,4.4591,4.4591,4.4591,4.4591,4.4591,4.4591,4.4591,4.4591,4.4591,4.4591,4.4591,4.4591,4.4591,4.4591,4.4591,4.4591,4.4098,4.3685,4.3685,4.3128,4.2479,4.1848,4.1694,4.1432,4.0691,4.0566,4.0568,4.0522,4.0489,4.0489,4.0489,4.0383,4.0296,4.0296,4.0119,3.9925,3.9732,3.9732,3.9625,3.9442,3.8814,3.8502,3.8484,3.719,3.6527,3.6527,3.7142,3.7754,3.8277,3.8277,3.8277,2.138,0.0,2.2483,2.1871,2.1858,2.1827,0.0,2.1165,2.1103,2.0434,2.0296,2.0604,2.1642,2.0989,2.1365,0.0,0.0,0.0,0.0,0.0,0.0,0.0,0.0,0.0,0.0,0.0,0.0,0.0,0.0,0.0,0.0,0.0,4.0489,4.0489,4.0489,4.0489,4.0489,4.0489,4.0489,4.0489,4.0489,4.0489,4.0489,4.0489,0.0,0.0,0.0,0.0,4.0505,4.0691,4.1168,4.1909,4.2571,4.3251,4.3917,4.4406,4.4591,4.4591,4.4591,4.4591,4.4591,4.4591,4.4591,4.4591,4.4591,4.4591,4.4591,4.4591,4.4591,4.4591,4.4591,4.4591,4.4591,4.4591,4.4591,4.4591,4.4591,4.4468,4.436,4.436,4.3821,4.3313,4.3159,4.2694,4.214,4.1447,4.134,4.1155,4.0584,4.0489,4.0489,4.0489,4.0472,4.0437,4.0437,4.0172,3.9978,3.9925,3.9925,3.9836,3.9643,3.9477,3.9331,3.917,3.8841,3.8662,3.8662,3.8825,3.8974,3.9119,3.9119,3.9119,2.0628,2.0992,2.1384,2.0886,2.1026,2.1196,2.0835,2.0804,2.0742,2.0373,2.0296,2.0527,2.1242,0.0,0.0,0.0,0.0,0.0,0.0,0.0,0.0,0.0,0.0,0.0,0.0,0.0,0.0,0.0,0.0,0.0,0.0,0.0,4.0489,4.0489,4.0489,4.0489,4.0489,4.0489,4.0489,4.0489,4.0489,4.0489,4.0489,4.0489,0.0,0.0,0.0,0.0,4.0489,4.0489,4.0937,4.1632,4.2001,4.2743,4.3636,4.4006,4.4329,4.4591,4.4591,4.4591,4.4591,4.4591,4.4591,4.4591,4.4591,4.4591,4.4591,4.4591,4.4591,4.4591,4.4591,4.4591,4.4591,4.4591,4.4591,4.4591,4.4591,4.4591,4.4591,4.4591,4.4298,4.3959,4.3655,4.3297,4.2817,4.2155,4.1801,4.1463,4.1045,4.0707,4.0489,4.0489,4.0489,4.0489,4.0489,4.0331,4.0207,4.0137,4.0137,4.0049,3.9839,3.975,3.9607,3.9391,3.9406,3.9406,3.9406,3.9481,3.9535,3.9535,3.964,3.964,2.093,2.1269,2.1606,2.1241,2.1227,2.1273,2.1165,2.0712,0.0,0.0,0.0,0.0,0.0,2.1227,0.0,0.0,0.0,0.0,0.0,0.0,0.0,0.0,0.0,0.0,0.0,0.0,0.0,0.0,0.0,0.0,0.0,0.0,0.0,4.0489,4.0489,4.0489,4.0489,4.0489,4.0489,4.0489,4.0489,4.0489,4.0489,4.0489,0.0,0.0,0.0,0.0,4.0489,4.0489,4.0876,4.1447,4.1555,4.2358,4.3451,4.3562,4.4006,4.4591,4.4591,4.4591,4.4591,4.4591,4.4591,4.4591,4.4591,4.4591,4.4591,4.4591,4.4591,4.4591,4.4591,4.4591,4.4591,4.4591,4.4591,4.4591,4.4591,4.4591,4.4591,4.4591,4.4591,4.4421,4.3855,4.3762,4.3528,4.2848,4.2263,4.1863,4.1771,4.1107,4.0676,4.0676,4.0584,4.0489,4.0489,4.0489,4.0437,4.0331,4.0331,4.0242,4.0049,3.9857,3.9661,3.9496,3.9496,3.9496,3.9496,3.9661,3.975,3.975,3.9925,3.9907,2.225,2.2519,2.2252,2.0806,2.0881,2.115,2.0588,2.0373,2.0296,0.0,0.0,0.0,0.0,2.2917,0.0,0.0,0.0,0.0,0.0,0.0,0.0,0.0,0.0,0.0,0.0,0.0,0.0,0.0,0.0,0.0,0.0,0.0,0.0,4.0489,4.0489,4.0489,4.0489,4.0489,4.0489,4.0489,4.0489,4.0489,4.0489,4.0489,4.0489,0.0,0.0,4.0489,4.0489,4.0489,4.0584,4.0737,4.137,4.2063,4.2817,4.339,4.4006,4.4591,4.4591,4.4591,4.4591,4.4591,4.4591,4.4591,4.4591,4.4591,4.4591,4.4591,4.4591,4.4591,4.4591,4.4591,4.4591,4.4591,4.4591,4.4591,4.4591,4.4591,4.4591,4.4591,4.4591,4.456,4.4452,4.4452,4.4221,4.3544,4.3344,4.3097,4.2525,4.1863,4.1432,4.1432,4.0876,4.0489,4.0489,4.0489,4.0489,4.0472,4.047,4.0401,4.0259,4.0066,3.9925,3.9922,3.9922,3.9922,3.9922,3.9925,3.9943,3.9943,3.9978,3.9978,2.1637,2.1976,2.2056,2.121,2.171,2.2295,2.1997,2.1642,2.1488,0.0,0.0,0.0,0.0,0.0,0.0,0.0,0.0,0.0,0.0,0.0,0.0,0.0,0.0,0.0,0.0,0.0,0.0,0.0,0.0,0.0,0.0,0.0,0.0,0.0,4.0489,4.0489,4.0489,4.0489,4.0489,4.0489,4.0489,4.0489,4.0489,4.0489,4.0489,4.0489,0.0,4.0489,4.0489,4.0489,4.0489,4.052,4.0876,4.143,4.2186,4.322,4.4006,4.4591,4.4591,4.4591,4.4591,4.4591,4.4591,4.4591,4.4591,4.4591,4.4591,4.4591,4.4591,4.4591,4.4591,4.4591,4.4591,4.4591,4.4591,4.4591,4.4591,4.4591,4.4591,4.4591,4.4591,4.4591,4.4591,4.4591,4.4498,4.4175,4.3821,4.3501,4.319,4.2556,4.214,4.214,4.183,4.1491,4.1122,4.1091,4.0922,4.052,4.0489,4.0453,4.0312,4.0207,4.0101,4.0011,4.0011,4.0011,4.0011,4.0101,4.0154,4.0154,4.0242,4.0226,2.1273,2.1536,2.1822,2.1962,2.2418,2.2967,2.3485,2.3048,2.2819,0.0,0.0,0.0,0.0,0.0,0.0,0.0,0.0,0.0,0.0,0.0,0.0,0.0,0.0,0.0,0.0,0.0,0.0,0.0,0.0,0.0,0.0,0.0,0.0,0.0,4.0166,4.0276,4.0276,4.0413,4.0489,4.0489,4.0489,4.0489,4.0489,4.0489,4.0489,4.0489,4.0489,4.0489,4.0489,4.0489,4.0489,4.0489,4.0489,4.0953,4.1755,4.3097,4.3913,4.4391,4.4545,4.4591,4.4591,4.4591,4.4591,4.4591,4.4591,4.4591,4.4591,4.4591,4.4591,4.4591,4.4591,4.4591,4.4591,4.4591,4.4591,4.4591,4.4591,4.4591,4.4591,4.4591,4.4591,4.4591,4.4591,4.4591,4.4591,4.4591,4.416,4.3821,4.3821,4.3251,4.2833,4.2833,4.2694,4.234,4.1663,4.1601,4.1294,4.0553,4.0489,4.0437,4.0349,4.0364,4.0261,4.0119,4.0119,4.0119,4.0119,4.0261,4.0364,4.0364,4.0437,4.0437,2.2403,2.2235,2.2014,2.2956,2.2305,2.1982,2.4051,2.3833,2.3794,2.5775,0.0,0.0,0.0,0.0,0.0,0.0,0.0,0.0,0.0,0.0,0.0,0.0,0.0,0.0,0.0,0.0,0.0,0.0,0.0,0.0,0.0,0.0,0.0,0.0,0.0,3.9568,3.9568,4.0199,4.0489,4.0489,4.0489,4.0489,4.0489,4.0489,4.0489,4.0489,4.0489,4.0489,4.0489,4.0489,4.0489,4.0489,4.0489,4.0953,4.1755,4.3097,4.3639,4.3762,4.4375,4.4591,4.4591,4.4591,4.4591,4.4591,4.4591,4.4591,4.4591,4.4591,4.4591,4.4591,4.4591,4.4591,4.4591,4.4591,4.4591,4.4591,4.4591,4.4591,4.4591,4.4591,4.4591,4.4591,4.4591,4.4591,4.4591,4.4591,4.456,4.4529,4.4529,4.3929,4.3531,4.3531,4.2971,4.234,4.1663,4.1601,4.1294,4.0553,4.0489,4.0505,4.0489,4.0489,4.0472,4.0455,4.0455,4.0455,4.0455,4.0472,4.0489,4.0489,4.0505,4.0489,2.1557,2.1864,2.2154,2.2866,2.3226,2.3705,2.4797,2.5464,2.6426,2.8461,2.9212,0.0,0.0,0.0,0.0,0.0,0.0,0.0,0.0,0.0,0.0,0.0,0.0,0.0,0.0,0.0,0.0,0.0,0.0,0.0,0.0,0.0,0.0,0.0,0.0,3.9076,3.9507,3.9753,4.0091,4.0489,4.0489,4.0489,4.0489,4.0489,4.0489,4.0489,4.0489,4.0489,4.0489,4.0489,4.0489,4.0489,4.0489,4.0953,4.1709,4.2633,4.3236,4.3701,4.436,4.4591,4.4591,4.4591,4.4591,4.4591,4.4591,4.4591,4.4591,4.4591,4.4591,4.4591,4.4591,4.4591,4.4591,4.4591,4.4591,4.4591,4.4591,4.4591,4.4591,4.4591,4.4591,4.4591,4.4591,4.4591,4.4591,4.4591,4.4591,4.4591,4.4591,4.4375,4.4221,4.4221,4.3621,4.3113,4.2866,4.2078,4.1478,4.1199,4.0753,4.0489,4.0489,4.0489,4.0489,4.0489,4.0489,4.0489,4.0489,4.0489,4.0489,4.0489,4.0489,4.0489,2.0734,2.1263,2.1956,2.2632,2.3585,2.4683,2.5978,2.7184,2.8658,3.0892,3.1705,0.0,0.0,0.0,0.0,0.0,0.0,0.0,0.0,0.0,0.0,0.0,0.0,0.0,0.0,0.0,0.0,0.0,0.0,0.0,0.0,0.0,0.0,0.0,0.0,0.0,3.8861,3.9291,3.9737,4.0199,4.0397,4.0489,4.0489,4.0489,4.0489,4.0489,4.0489,4.0489,4.0489,4.0489,4.0489,4.0489,4.0489,4.0814,4.134,4.2032,4.2571,4.3082,4.3975,4.4283,4.4314,4.4529,4.4591,4.4591,4.4591,4.4591,4.4591,4.4591,4.4591,4.4591,4.4591,4.4591,4.4591,4.4591,4.4591,4.4591,4.4591,4.4591,4.4591,4.4591,4.4591,4.4591,4.4591,4.4591,4.4591,4.4591,4.4591,4.4591,4.4591,4.4591,4.4591,4.4591,4.4175,4.384,4.3624,4.2758,4.2048,4.1632,4.1122,4.0753,4.0505,4.0489,4.0489,4.0489,4.0489,4.0489,4.0489,4.0489,4.0489,4.0489,4.0489,4.0489,2.0237,2.0542,2.1357,2.2363,0.0,0.0,2.7689,2.8938,3.0184,3.2875,3.3429,3.3429,3.3429,0.0,0.0,0.0,0.0,0.0,0.0,0.0,0.0,0.0,0.0,0.0,0.0,0.0,0.0,0.0,0.0,0.0,0.0,0.0,0.0,0.0,0.0,0.0,3.7507,3.8814,3.9491,3.9507,4.0166,4.0489,4.0489,4.0489,4.0489,4.0489,4.0489,4.0489,4.0489,4.0489,4.0489,4.0489,4.0489,4.0489,4.0599,4.134,4.1601,4.1786,4.3128,4.3575,4.3716,4.436,4.4591,4.4591,4.4591,4.4591,4.4591,4.4591,4.4591,4.4591,4.4591,4.4591,4.4591,4.4591,4.4591,4.4591,4.4591,4.4591,4.4591,4.4591,4.4591,4.4591,4.4591,4.4591,4.4591,4.4591,4.4591,4.4591,4.4591,4.4591,4.4591,4.4591,4.4591,4.4329,4.367,4.3608,4.302,4.1694,4.1617,4.1278,4.052,4.0489,4.0489,4.0489,4.0489,4.0489,4.0489,4.0489,4.0489,4.0489,4.0489,4.0489,2.0109,2.0879,0.0,2.3061,0.0,0.0,0.0,3.0335,0.0,0.0,3.5214,3.489,0.0,0.0,0.0,0.0,0.0,0.0,0.0,0.0,0.0,0.0,0.0,0.0,0.0,0.0,0.0,0.0,0.0,0.0,0.0,0.0,0.0,0.0,0.0,0.0,3.7507,3.7876,3.8585,3.9507,3.9707,4.0045,4.0489,4.0489,4.0489,4.0489,4.0489,4.0489,4.0489,4.0489,4.0489,4.0489,4.0489,4.0489,4.0599,4.134,4.1601,4.1724,4.2586,4.3205,4.3639,4.3821,4.4225,4.4591,4.4591,4.4591,4.4591,4.4591,4.4591,4.4591,4.4591,4.4591,4.4591,4.4591,4.4591,4.4591,4.4591,4.4591,4.4591,4.4591,4.4591,4.4591,4.4591,4.4591,4.4591,4.4591,4.4591,4.4591,4.4591,4.4591,4.4591,4.4591,4.4591,4.4514,4.4314,4.3867,4.3439,4.302,4.2109,4.1278,4.052,4.0489,4.0489,4.0489,4.0489,4.0489,4.0489,4.0489,4.0489,4.0489,4.0489,4.0489,2.0382,2.123,0.0,2.4331,2.6048,2.8019,3.0929,0.0,0.0,0.0,0.0,0.0,0.0,0.0,0.0,0.0,0.0,0.0,0.0,0.0,0.0,0.0,0.0,0.0,0.0,0.0,0.0,0.0,0.0,0.0,0.0,0.0,0.0,0.0,0.0,0.0,3.7092,3.7369,3.7908,3.8707,3.8968,3.9307,3.9722,4.0259,4.0489,4.0489,4.0489,4.0489,4.0489,4.0489,4.0489,4.0489,4.0489,4.0489,4.0551,4.0999,4.1153,4.1261,4.1971,4.2463,4.2851,4.3113,4.3652,4.419,4.419,4.4391,4.4591,4.4591,4.4591,4.4591,4.4591,4.4591,4.4591,4.4591,4.4591,4.4591,4.4591,4.4591,4.4591,4.4591,4.4591,4.4591,4.4591,4.4591,4.4591,4.4591,4.4591,4.4591,4.4591,4.4591,4.4591,4.4591,4.4591,4.4591,4.4591,4.4221,4.3867,4.3624,4.2835,4.2078,4.1368,4.0814,4.0489,4.0489,4.0489,4.0489,4.0489,4.0489,4.0661,4.0937,4.0937,4.1076,2.0767,2.1501,0.0,2.5846,2.6854,0.0,3.2531,0.0,0.0,0.0,0.0,0.0,0.0,0.0,0.0,0.0,0.0,0.0,0.0,0.0,0.0,0.0,0.0,0.0,0.0,0.0,0.0,0.0,0.0,0.0,0.0,0.0,0.0,0.0,0.0,0.0,3.6507,3.7092,3.7446,0.0,3.8123,3.843,3.8538,3.9768,4.0336,4.0397,4.0397,4.0428,4.0489,4.0489,4.0489,4.0489,4.0489,4.0489,4.0489,4.0489,4.0489,4.0614,4.1278,4.154,4.1694,4.2309,4.2956,4.3531,4.3593,4.404,4.4514,4.4575,4.4591,4.4591,4.4591,4.4591,4.4591,4.4591,4.4591,4.4591,4.4591,4.4591,4.4591,4.4591,4.4591,4.4591,4.4591,4.4591,4.4591,4.4591,4.4591,4.4591,4.4591,4.4591,4.4591,4.4591,4.4591,4.4591,4.4591,4.4591,4.4329,4.3732,4.3701,4.339,4.2725,4.1399,4.0689,4.0689,4.0689,4.0689,4.0689,4.0689,4.1045,4.1694,4.1694,4.2017,1.9996,2.1205,0.0,0.0,2.8823,3.1697,3.3796,3.489,0.0,0.0,0.0,0.0,0.0,0.0,0.0,0.0,0.0,0.0,0.0,0.0,0.0,0.0,0.0,0.0,0.0,0.0,0.0,0.0,0.0,0.0,0.0,0.0,0.0,0.0,0.0,3.6507,3.6507,3.6646,3.6969,0.0,3.7646,3.8,3.8507,3.8799,3.9214,3.9722,3.9722,4.0014,4.0489,4.0489,4.0489,4.0489,4.0489,4.0489,4.0489,4.0489,4.0489,4.052,4.0691,4.1107,4.1617,4.1771,4.2279,4.291,4.3436,4.3701,4.3913,4.4452,4.4591,4.4591,4.4591,4.4591,4.4591,4.4591,4.4591,4.4591,4.4591,4.4591,4.4591,4.4591,4.4591,4.4591,4.4591,4.4591,4.4591,4.4591,4.4591,4.4591,4.4591,4.4591,4.4591,4.4591,4.4591,4.4591,4.4591,4.4591,4.4529,4.4391,4.4375,4.4067,4.3405,4.2586,4.2153,4.2153,4.2153,4.2153,4.2153,4.2153,4.223,4.2368,4.2368,4.2463,2.0356,0.0,0.0,2.7041,0.0,3.3152,3.4258,3.5028,0.0,0.0,0.0,0.0,0.0,0.0,0.0,0.0,0.0,0.0,0.0,0.0,0.0,0.0,0.0,0.0,0.0,0.0,0.0,0.0,0.0,0.0,0.0,0.0,0.0,0.0,3.6507,3.6507,3.6507,3.6507,3.6692,3.7015,3.7015,3.72,3.7569,3.8199,3.8691,3.903,3.9368,3.9707,4.0061,4.0384,4.0489,4.0489,4.0489,4.0489,4.0489,4.0489,4.0489,4.0489,4.0489,4.0753,4.1061,4.1061,4.1555,4.2186,4.2543,4.2866,4.3267,4.3929,4.4113,4.419,4.4514,4.4591,4.4591,4.4591,4.4591,4.4591,4.4591,4.4591,4.4591,4.4591,4.4591,4.4591,4.4591,4.4591,4.4591,4.4591,4.4591,4.4591,4.4591,4.4591,4.4591,4.4591,4.4591,4.4591,4.4591,4.4591,4.4591,4.4591,4.4591,4.4437,4.4083,4.3744,4.3248,4.2599,4.2602,4.2602,4.2602,4.2602,4.2771,4.3079,4.3079,4.3251,2.0601,0.0,2.4787,2.8482,3.1243,0.0,3.4121,3.4829,0.0,0.0,0.0,0.0,0.0,0.0,0.0,0.0,0.0,0.0,0.0,0.0,0.0,0.0,0.0,0.0,0.0,0.0,0.0,0.0,0.0,0.0,0.0,0.0,3.6662,3.6662,3.677,3.6815,3.6815,3.6815,3.677,3.6647,3.6554,3.6507,3.6553,3.7646,3.8231,3.8353,3.903,3.9384,3.9553,4.0213,4.0489,4.0489,4.0489,4.0489,4.0489,4.0489,4.0489,4.0489,4.0489,4.0489,4.0489,4.0489,4.0907,4.1432,4.1555,4.2063,4.274,4.3405,4.3667,4.3917,4.4452,4.4591,4.4591,4.4591,4.4591,4.4591,4.4591,4.4591,4.4591,4.4591,4.4591,4.4591,4.4591,4.4591,4.4591,4.4591,4.4591,4.4591,4.4591,4.4591,4.4591,4.4591,4.4591,4.4591,4.4591,4.4591,4.4591,4.4591,4.4591,4.4591,4.4591,4.4591,4.4083,4.2971,4.2956,4.2956,4.2956,4.2956,4.3217,4.3759,4.3759,4.4067,1.8874,0.0,2.5771,0.0,3.0535,3.1996,0.0,0.0,0.0,0.0,0.0,0.0,0.0,0.0,0.0,0.0,0.0,0.0,0.0,0.0,0.0,0.0,0.0,0.0,0.0,0.0,0.0,0.0,0.0,0.0,0.0,3.6998,3.7283,3.7283,3.7796,3.8067,3.8067,3.8067,3.781,3.7268,3.6754,3.6507,3.6507,3.6676,3.7076,3.7677,3.8354,3.8953,3.9553,4.0213,4.0489,4.0489,4.0489,4.0489,4.0489,4.0489,4.0489,4.0489,4.0489,4.0489,4.0489,4.0489,4.0584,4.0768,4.1417,4.2063,4.274,4.3405,4.4024,4.4483,4.4575,4.4591,4.4591,4.4591,4.4591,4.4591,4.4591,4.4591,4.4591,4.4591,4.4591,4.4591,4.4591,4.4591,4.4591,4.4591,4.4591,4.4591,4.4591,4.4591,4.4591,4.4591,4.4591,4.4591,4.4591,4.4591,4.4591,4.4591,4.4591,4.4591,4.4591,4.4591,4.4514,4.4344,4.4329,4.4329,4.4329,4.4329,4.4375,4.4468,4.4468,4.4514,2.0152,2.3187,2.6342,0.0,3.012,3.1657,3.2613,0.0,0.0,0.0,0.0,0.0,0.0,0.0,0.0,0.0,0.0,0.0,0.0,0.0,0.0,0.0,0.0,0.0,0.0,0.0,0.0,0.0,0.0,0.0,3.6507,3.7058,3.7253,3.6907,3.7809,3.8139,3.7796,3.8139,3.7996,3.7402,3.7118,3.6831,3.6507,3.6507,3.6661,3.6969,3.7646,3.8307,3.8984,3.9661,4.0151,4.0489,4.0489,4.0489,4.0489,4.0489,4.0489,4.0489,4.0489,4.0489,4.0489,4.0489,4.0489,4.0568,4.0891,4.1476,4.2186,4.2848,4.3528,4.4132,4.4498,4.4591,4.4591,4.4591,4.4591,4.4591,4.4591,4.4591,4.4591,4.4591,4.4591,4.4591,4.4591,4.4591,4.4591,4.4591,4.4591,4.4591,4.4591,4.4591,4.4591,4.4591,4.4591,4.4591,4.4591,4.4591,4.4591,4.4591,4.4591,4.4591,4.4591,4.4591,4.4591,4.4591,4.4591,4.4591,4.4591,4.4591,4.4591,4.4591,4.4591,4.4591,0.0,0.0,2.5492,2.7384,2.9258,3.0902,0.0,0.0,0.0,0.0,0.0,0.0,0.0,0.0,0.0,0.0,0.0,0.0,0.0,0.0,0.0,0.0,0.0,0.0,0.0,0.0,0.0,0.0,0.0,0.0,3.6507,3.7058,3.7268,3.6967,3.7982,3.8393,3.8098,3.8379,3.8294,3.7839,3.7549,3.7163,3.6723,3.6569,3.6507,3.6553,3.7215,3.7784,3.8307,3.9153,3.9782,4.0259,4.0428,4.0489,4.0489,4.0489,4.0489,4.0489,4.0489,4.0489,4.0489,4.0489,4.0489,4.0489,4.0489,4.1014,4.174,4.2417,4.3079,4.3762,4.4421,4.4591,4.4591,4.4591,4.4591,4.4591,4.4591,4.4591,4.4591,4.4591,4.4591,4.4591,4.4591,4.4591,4.4591,4.4591,4.4591,4.4591,4.4591,4.4591,4.4591,4.4591,4.4591,4.4591,4.4591,4.4591,4.4591,4.4591,4.4591,4.4591,4.4591,4.4591,4.4591,4.4591,4.4591,4.4591,4.4591,4.4591,4.4591,4.4591,4.4591,4.4591,0.0,2.0965,0.0,2.5599,2.7492,0.0,0.0,0.0,0.0,0.0,0.0,0.0,0.0,0.0,0.0,0.0,0.0,0.0,0.0,0.0,0.0,0.0,0.0,0.0,0.0,0.0,0.0,0.0,0.0,0.0,3.6507,3.7058,3.7636,3.8195,3.8808,3.9418,3.994,3.9418,3.9152,3.9082,3.794,3.7387,3.7328,3.677,3.6507,3.6553,3.7215,3.7523,3.7646,3.8953,3.9522,3.9614,4.0243,4.0489,4.0489,4.0489,4.0489,4.0489,4.0489,4.0489,4.0489,4.0489,4.0489,4.0489,4.0489,4.1014,4.174,4.2417,4.3079,4.3762,4.4421,4.4591,4.4591,4.4591,4.4591,4.4591,4.4591,4.4591,4.4591,4.4591,4.4591,4.4591,4.4591,4.4591,4.4591,4.4591,4.4591,4.4591,4.4591,4.4591,4.4591,4.4591,4.4591,4.4591,4.4591,4.4591,4.4591,4.4591,4.4591,4.4591,4.4591,4.4591,4.4591,4.4591,4.4591,4.4591,4.4591,4.4591,4.4591,4.4591,4.4591,4.4591,0.0,0.0,0.0,2.3979,2.6087,2.8057,0.0,0.0,0.0,0.0,0.0,0.0,0.0,0.0,0.0,0.0,0.0,0.0,0.0,0.0,0.0,0.0,0.0,0.0,0.0,0.0,0.0,0.0,0.0,0.0,3.6507,3.7058,3.7312,3.7148,3.8477,3.9484,4.0083,3.9497,3.9001,3.8615,3.7781,3.7193,3.6831,3.66,3.6507,3.6507,3.6738,3.7092,3.7538,3.8015,3.8722,3.9522,3.9768,4.0105,4.0489,4.0489,4.0489,4.0489,4.0489,4.0489,4.0489,4.0489,4.0489,4.0489,4.0489,4.1014,4.174,4.2417,4.3079,4.3762,4.4421,4.4591,4.4591,4.4591,4.4591,4.4591,4.4591,4.4591,4.4591,4.4591,4.4591,4.4591,4.4591,4.4591,4.4591,4.4591,4.4591,4.4591,4.4591,4.4591,4.4591,4.4591,4.4591,4.4591,4.4591,4.4591,4.4591,4.4591,4.4591,4.4591,4.4591,4.4591,4.4591,4.4591,4.4591,4.4591,4.4591,4.4591,4.4591,4.4591,4.4591,4.4591,1.7877,0.0,0.0,0.0,0.0,0.0,0.0,0.0,0.0,0.0,0.0,0.0,0.0,0.0,0.0,0.0,0.0,0.0,0.0,0.0,0.0,0.0,0.0,0.0,0.0,0.0,0.0,0.0,0.0,0.0,3.6507,3.6876,3.7103,3.7103,3.8463,3.9484,4.0083,3.9709,3.9202,3.8601,3.7982,3.7386,3.68,3.66,3.6507,3.6507,3.6507,3.6738,3.7184,3.7415,3.8031,3.8876,3.9322,3.9784,4.0199,4.043,4.0489,4.0489,4.0489,4.0489,4.0489,4.0489,4.0489,4.0489,4.0489,4.0845,4.1386,4.2078,4.274,4.3421,4.4083,4.4421,4.4591,4.4591,4.4591,4.4591,4.4591,4.4591,4.4591,4.4591,4.4591,4.4591,4.4591,4.4591,4.4591,4.4591,4.4591,4.4591,4.4591,4.4591,4.4591,4.4591,4.4591,4.4591,4.4591,4.4591,4.4591,4.4591,4.4591,4.4591,4.4591,4.4591,4.4591,4.4591,4.4591,4.4591,4.4591,4.4591,4.4591,4.4591,4.4591,4.4591,0.0,0.0,0.0,0.0,0.0,0.0,0.0,0.0,0.0,0.0,0.0,0.0,0.0,0.0,0.0,0.0,0.0,0.0,0.0,0.0,0.0,0.0,0.0,0.0,0.0,0.0,0.0,0.0,0.0,3.6507,3.6507,3.6507,3.7058,3.825,3.8851,3.9444,4.0058,4.0058,3.9747,3.9152,3.856,3.7953,3.7358,3.677,3.6507,3.6507,3.6507,3.6507,3.6538,3.72,3.7477,3.7631,3.8938,3.9476,3.9584,4.023,4.0474,4.0489,4.0489,4.0489,4.0489,4.0489,4.0489,4.0489,4.0489,4.0489,4.0661,4.1401,4.2094,4.2756,4.3451,4.4098,4.4591,4.4591,4.4591,4.4591,4.4591,4.4591,4.4591,4.4591,4.4591,4.4591,4.4591,4.4591,4.4591,4.4591,4.4591,4.4591,4.4591,4.4591,4.4591,4.4591,4.4591,4.4591,4.4591,4.4591,4.4591,4.4591,4.4591,4.4591,4.4591,4.4591,4.4591,4.4591,4.4591,4.4591,4.4591,4.4591,4.4591,4.4591,4.4591,4.4591,1.7376,0.0,0.0,0.0,0.0,0.0,0.0,0.0,0.0,0.0,0.0,0.0,0.0,0.0,0.0,0.0,0.0,0.0,0.0,0.0,0.0,0.0,0.0,0.0,0.0,0.0,0.0,0.0,3.6507,3.6507,3.6507,3.6507,3.7058,3.825,3.8039,3.8409,3.9431,3.9028,3.8504,3.7913,3.7739,3.7327,3.6739,3.6585,3.6507,3.6507,3.6507,3.6507,3.6507,3.6692,3.7061,3.7538,3.7923,3.8645,3.9522,3.9722,4.0074,4.0489,4.0489,4.0489,4.0489,4.0489,4.0489,4.0489,4.0489,4.0489,4.0661,4.1401,4.2094,4.2879,4.4021,4.4452,4.4591,4.4591,4.4591,4.4591,4.4591,4.4591,4.4591,4.4591,4.4591,4.4591,4.4591,4.4591,4.4591,4.4591,4.4591,4.4591,4.4591,4.4591,4.4591,4.4591,4.4591,4.4591,4.4591,4.4591,4.4591,4.4591,4.4591,4.4591,4.4591,4.4591,4.4591,4.4591,4.4591,4.4591,4.4591,4.4591,4.4591,4.4591,4.4591,4.4591,1.7876,1.8923,0.0,0.0,0.0,0.0,0.0,0.0,0.0,0.0,0.0,0.0,0.0,0.0,0.0,0.0,0.0,0.0,0.0,0.0,0.0,0.0,0.0,0.0,0.0,0.0,0.0,0.0,3.6507,3.6507,3.6507,3.6507,3.7058,3.825,3.7709,3.7983,3.9192,3.8849,3.8238,3.7402,3.7666,3.7327,3.6507,3.6507,3.6507,3.6507,3.6507,3.6507,3.6507,3.6507,3.6738,3.7107,3.7384,3.8154,3.9122,3.9399,3.9922,4.0489,4.0489,4.0489,4.0489,4.0489,4.0489,4.0489,4.0489,4.0489,4.0582,4.1014,4.1863,4.2848,4.3913,4.4391,4.4591,4.4591,4.4591,4.4591,4.4591,4.4591,4.4591,4.4591,4.4591,4.4591,4.4591,4.4591,4.4591,4.4591,4.4591,4.4591,4.4591,4.4591,4.4591,4.4591,4.4591,4.4591,4.4591,4.4591,4.4591,4.4591,4.4591,4.4591,4.4591,4.4591,4.4591,4.4591,4.4591,4.4591,4.4591,4.4591,4.4591,4.4591,4.4591,4.4591,1.8694,1.9469,2.065,0.0,0.0,0.0,2.4117,2.3948,0.0,0.0,0.0,0.0,0.0,0.0,0.0,0.0,0.0,0.0,0.0,0.0,0.0,0.0,0.0,0.0,0.0,0.0,3.6322,3.6368,3.6445,3.6507,3.6507,3.6507,3.7028,3.8151,3.7679,3.794,3.9082,3.9095,3.8535,3.7417,3.7939,3.7606,3.6507,3.6507,3.6507,3.6507,3.6507,3.6507,3.6507,3.6507,3.6507,3.6553,3.7153,3.78,3.8461,3.9138,3.9814,4.0397,4.0459,4.0489,4.0489,4.0489,4.0489,4.0489,4.0489,4.0489,4.0522,4.0614,4.1584,4.2756,4.3421,4.4098,4.4591,4.4591,4.4591,4.4591,4.4591,4.4591,4.4591,4.4591,4.4591,4.4591,4.4591,4.4591,4.4591,4.4591,4.4591,4.4591,4.4591,4.4591,4.4591,4.4591,4.4591,4.4591,4.4591,4.4591,4.4591,4.4591,4.4591,4.4591,4.4591,4.4591,4.4591,4.4591,4.4591,4.4591,4.4591,4.4591,4.4591,4.4591,4.4591,4.4591,2.0122,2.0888,2.1812,2.1396,0.0,0.0,0.0,2.191,0.0,0.0,0.0,0.0,0.0,0.0,0.0,0.0,0.0,0.0,0.0,0.0,0.0,0.0,0.0,0.0,0.0,0.0,3.5106,3.5645,3.6199,3.6507,3.6507,3.6507,3.6831,3.7549,3.746,3.7738,3.8477,3.8477,3.811,3.7402,3.7519,3.7193,3.6507,3.6507,3.6507,3.6507,3.6507,3.6507,3.6507,3.6507,3.6507,3.6507,3.663,3.7092,3.7784,3.8445,3.9122,3.9784,4.0305,4.0489,4.0489,4.0489,4.0489,4.0489,4.0489,4.0489,4.0612,4.1232,4.1968,4.2756,4.3421,4.4098,4.4591,4.4591,4.4591,4.4591,4.4591,4.4591,4.4591,4.4591,4.4591,4.4591,4.4591,4.4591,4.4591,4.4591,4.4591,4.4591,4.4591,4.4591,4.4591,4.4591,4.4591,4.4591,4.4591,4.4591,4.4591,4.4591,4.4591,4.4591,4.4591,4.4591,4.4591,4.4591,4.4591,4.4591,4.4591,4.4591,4.4591,4.4591,4.4591,4.4591,2.1045,2.1288,2.1889,2.2203,0.0,0.0,0.0,0.0,0.0,0.0,0.0,0.0,0.0,0.0,0.0,0.0,0.0,0.0,0.0,0.0,0.0,0.0,0.0,0.0,0.0,0.0,3.4643,3.4982,3.5614,3.5999,3.5999,3.6322,3.6785,3.7387,3.7119,3.7237,3.7854,3.7854,3.7548,3.6952,3.7253,3.7089,3.6507,3.6507,3.6507,3.6507,3.6507,3.6507,3.6507,3.6507,3.6507,3.6507,3.6507,3.6907,3.7584,3.8262,3.8922,3.9599,4.0276,4.0489,4.0489,4.0489,4.0489,4.0489,4.0489,4.0489,4.0566,4.0953,4.1553,4.2263,4.2943,4.3494,4.4018,4.4483,4.4591,4.4591,4.4591,4.4591,4.4591,4.4591,4.4591,4.4591,4.4591,4.4591,4.4591,4.4591,4.4591,4.4591,4.4591,4.4591,4.4591,4.4591,4.4591,4.4591,4.4591,4.4591,4.4591,4.4591,4.4591,4.4591,4.4591,4.4591,4.4591,4.4591,4.4591,4.4591,4.4591,4.4591,4.4591,4.4591,4.4591,4.4591,0.0,0.0,0.0,0.0,0.0,2.2366,0.0,0.0,0.0,0.0,0.0,0.0,0.0,0.0,0.0,0.0,0.0,0.0,0.0,0.0,0.0,0.0,0.0,0.0,0.0,0.0,3.4012,3.4259,3.4659,3.5075,3.5476,3.6014,3.6584,3.7208,3.6861,3.6907,3.7402,3.7402,3.7148,3.6677,3.7058,3.6968,3.6507,3.6507,3.6507,3.6507,3.6507,3.6507,3.6507,3.6507,3.6507,3.6507,3.6507,3.683,3.74,3.8215,3.883,3.943,4.0213,4.0489,4.0489,4.0489,4.0489,4.0489,4.0489,4.0489,4.0489,4.0489,4.103,4.1755,4.2432,4.3014,4.3664,4.4421,4.4591,4.4591,4.4591,4.4591,4.4591,4.4591,4.4591,4.4591,4.4591,4.4591,4.4591,4.4591,4.4591,4.4591,4.4591,4.4591,4.4591,4.4591,4.4591,4.4591,4.4591,4.4591,4.4591,4.4591,4.4591,4.4591,4.4591,4.4591,4.4591,4.4591,4.4591,4.4591,4.4591,4.4591,4.4591,4.4591,4.4591,4.4591,0.0,0.0,0.0,0.0,2.4574,0.0,0.0,0.0,0.0,0.0,0.0,0.0,0.0,0.0,0.0,0.0,0.0,0.0,0.0,0.0,0.0,0.0,0.0,0.0,0.0,0.0,0.0,3.3444,3.3044,3.3566,3.5399,3.5568,3.5922,3.6569,3.7058,3.7328,3.7402,3.7402,3.7372,3.7283,3.6831,3.6569,3.6507,3.6507,3.6507,3.6507,3.6507,3.6507,3.6507,3.6507,3.6507,3.6507,3.6507,3.6538,3.6784,3.803,3.8538,3.8784,4.0061,4.0489,4.0489,4.0489,4.0489,4.0489,4.0489,4.0489,4.0489,4.0489,4.103,4.1755,4.2432,4.351,4.4468,4.4575,4.4591,4.4591,4.4591,4.4591,4.4591,4.4591,4.4591,4.4591,4.4591,4.4591,4.4591,4.4591,4.4591,4.4591,4.4591,4.4591,4.4591,4.4591,4.4591,4.4591,4.4591,4.4591,4.4591,4.4591,4.4591,4.4591,4.4591,4.4591,4.4591,4.4591,4.4591,4.4591,4.4591,4.4591,4.4591,4.4591,4.4591,4.4591,0.0,0.0,0.0,0.0,0.0,0.0,0.0,0.0,2.1097,0.0,0.0,0.0,0.0,0.0,0.0,0.0,0.0,0.0,0.0,0.0,0.0,0.0,0.0,0.0,0.0,0.0,0.0,0.0,0.0,3.2381,3.3628,3.4844,3.5629,3.5907,3.6537,3.6876,3.6876,3.6876,3.6876,3.6861,3.6631,3.6507,3.6507,3.6507,3.6507,3.6507,3.6507,3.6507,3.6507,3.6507,3.6507,3.6507,3.6507,3.6507,3.6661,3.8015,3.8491,3.8691,4.0028,4.0489,4.0489,4.0489,4.0489,4.0489,4.0489,4.0489,4.0489,4.0489,4.0722,4.1122,4.1848,4.2894,4.3925,4.4468,4.4591,4.4591,4.4591,4.4591,4.4591,4.4591,4.4591,4.4591,4.4591,4.4591,4.4591,4.4591,4.4591,4.4591,4.4591,4.4591,4.4591,4.4591,4.4591,4.4591,4.4591,4.4591,4.4591,4.4591,4.4591,4.4591,4.4591,4.4591,4.4591,4.4591,4.4591,4.4591,4.4591,4.4591,4.4591,4.4591,4.4591,4.4591,2.6373,0.0,0.0,0.0,0.0,0.0,0.0,0.0,0.0,0.0,0.0,0.0,0.0,0.0,0.0,0.0,0.0,0.0,0.0,0.0,0.0,0.0,0.0,0.0,0.0,0.0,0.0,0.0,0.0,0.0,3.2321,3.3828,3.4906,3.5476,3.5968,3.6322,3.6507,3.6507,3.6507,3.6507,3.6507,3.6507,3.6507,3.6507,3.6507,3.6507,3.6507,3.6507,3.6507,3.6507,3.6507,3.6507,3.6507,3.6507,3.6661,3.8015,3.8491,3.8691,4.0028,4.0489,4.0489,4.0489,4.0489,4.0489,4.0489,4.0489,4.0489,4.0489,4.0489,4.0705,4.1632,4.2445,4.3291,4.436,4.4591,4.4591,4.4591,4.4591,4.4591,4.4591,4.4591,4.4591,4.4591,4.4591,4.4591,4.4591,4.4591,4.4591,4.4591,4.4591,4.4591,4.4591,4.4591,4.4591,4.4591,4.4591,4.4591,4.4591,4.4591,4.4591,4.4591,4.4591,4.4591,4.4591,4.4591,4.4591,4.4591,4.4591,4.4591,4.4591,4.4591,4.4591,0.0,0.0,0.0,2.5398,0.0,0.0,0.0,0.0,2.3034,0.0,0.0,0.0,0.0,0.0,2.3763,2.2496,0.0,0.0,0.0,0.0,0.0,0.0,0.0,0.0,0.0,0.0,0.0,0.0,0.0,0.0,3.2227,3.2459,3.3428,3.5429,3.5522,3.5845,3.6492,3.6507,3.6507,3.6507,3.6507,3.6507,3.6507,3.6507,3.6507,3.6507,3.6507,3.6507,3.6507,3.6507,3.6507,3.6507,3.6507,3.6507,3.6661,3.8015,3.8491,3.8691,4.0028,4.0489,4.0489,4.0489,4.0489,4.0489,4.0489,4.0489,4.0489,4.0489,4.0489,4.083,4.2199,4.2584,4.2956,4.4283,4.4591,4.4591,4.4591,4.4591,4.4591,4.4591,4.4591,4.4591,4.4591,4.4591,4.4591,4.4591,4.4591,4.4591,4.4591,4.4591,4.4591,4.4591,4.4591,4.4591,4.4591,4.4591,4.4591,4.4591,4.4591,4.4591,4.4591,4.4591,4.4591,4.4591,4.4591,4.4591,4.4591,4.4591,4.4591,4.4591,4.4591,4.4591,0.0,0.0,3.117,2.7529,0.0,0.0,0.0,0.0,0.0,0.0,0.0,0.0,0.0,0.0,2.3999,2.3102,2.3148,0.0,0.0,0.0,0.0,0.0,0.0,0.0,0.0,0.0,0.0,0.0,2.7407,0.0,0.0,3.1921,3.3151,3.4797,3.526,3.583,3.6492,3.6507,3.6507,3.6507,3.6507,3.6507,3.6507,3.6507,3.6507,3.6507,3.6507,3.6507,3.6507,3.6507,3.6507,3.6507,3.6507,3.6507,3.6661,3.8015,3.8491,3.8691,4.0028,4.0489,4.0489,4.0489,4.0489,4.0489,4.0489,4.0489,4.0489,4.0489,4.0489,4.0705,4.1694,4.2279,4.2833,4.3713,4.4267,4.4591,4.4591,4.4591,4.4591,4.4591,4.4591,4.4591,4.4591,4.4591,4.4591,4.4591,4.4591,4.4591,4.4591,4.4591,4.4591,4.4591,4.4591,4.4591,4.4591,4.4591,4.4591,4.4591,4.4591,4.4591,4.4591,4.4591,4.4591,4.4591,4.4591,4.4591,4.4591,4.4591,4.4591,4.4591,4.4591,4.4591,3.1218,3.1847,0.0,2.8779,2.7822,0.0,2.4024,0.0,0.0,0.0,0.0,0.0,0.0,0.0,2.5179,2.4502,2.3779,2.2757,0.0,0.0,0.0,0.0,0.0,0.0,0.0,0.0,2.4922,2.6637,2.6472,0.0,0.0,0.0,3.2428,3.4059,3.4783,3.5583,3.6492,3.6507,3.6507,3.6507,3.6507,3.6507,3.6507,3.6507,3.6507,3.6507,3.6507,3.6507,3.6507,3.6507,3.6507,3.6507,3.6507,3.6507,3.6661,3.8015,3.8799,3.9337,4.0214,4.0489,4.0489,4.0489,4.0489,4.0489,4.0489,4.0489,4.0489,4.0489,4.0691,4.1061,4.1771,4.2448,4.3128,4.379,4.4283,4.4591,4.4591,4.4591,4.4591,4.4591,4.4591,4.4591,4.4591,4.4591,4.4591,4.4591,4.4591,4.4591,4.4591,4.4591,4.4591,4.4591,4.4591,4.4591,4.4591,4.4591,4.4591,4.4591,4.4591,4.4591,4.4591,4.4591,4.4591,4.4591,4.4591,4.4591,4.4591,4.4591,4.4591,4.4591,4.4591,4.4591]}]]